[[{"header":{"parameterUnit":"m.s-1","parameterCategory":1,"la1":31.0,"la2":29.5877,"lo1":-88.7671,"lo2":-86.6584,"dy":0.0162,"dx":0.0185,"nx":115,"ny":88,"refTime":"2024-04-20T06:00:00:Z","depth":0,"parameterNumber":2,"parameterNumberName":"U-component_of_WINDS"},"data":[0.0,0.0,0.0,0.0,0.0,0.0,0.0,0.0,0.0,0.0,0.0,0.0,0.0,0.0,0.0,0.0,0.0,0.0,0.0,0.0,0.0,0.0,0.0,0.0,0.0,0.0,0.0,0.0,0.0,0.0,0.0,0.0,0.0,0.0,0.0,0.0,0.0,0.0,0.0,0.0,0.0,0.0,0.0,0.0,0.0,0.0,0.0,0.0,0.0,0.0,0.0,0.0,0.0,0.0,0.0,0.0,0.0,0.0,0.0,0.0,0.0,0.0,0.0,0.0,0.0,0.0,0.0,0.0,0.0,0.0,0.0,0.0,0.0,0.0,0.0,0.0,0.0,0.0,0.0,0.0,0.0,0.0,0.0,0.0,0.0,0.0,0.0,0.0,0.0,0.0,0.0,0.0,0.0,0.0,0.0,0.0,0.0,0.0,0.0,0.0,0.0,0.0,0.0,0.0,0.0,0.0,0.0,0.0,0.0,0.0,0.0,0.0,0.0,0.0,0.0,0.0,0.0,0.0,0.0,0.0,0.0,0.0,0.0,0.0,0.0,0.0,0.0,0.0,0.0,0.0,0.0,0.0,0.0,0.0,0.0,0.0,0.0,0.0,0.0,0.0,0.0,0.0,0.0,0.0,0.0,0.0,0.0,0.0,0.0,0.0,0.0,0.0,0.0,0.0,0.0,0.0,0.0,0.0,0.0,0.0,0.0,0.0,0.0,0.0,0.0,0.0,0.0,0.0,0.0,0.0,0.0,0.0,0.0,0.0,0.0,0.0,0.0,0.0,0.0,0.0,0.0,0.0,0.0,0.0,0.0,0.0,0.0,0.0,0.0,0.0,0.0,0.0,0.0,0.0,0.0,0.0,0.0,0.0,0.0,0.0,0.0,0.0,0.0,0.0,0.0,0.0,0.0,0.0,0.0,0.0,0.0,0.0,0.0,0.0,0.0,0.0,0.0,0.0,0.0,0.0,0.0,0.0,0.0,0.0,0.0,0.0,0.0,0.0,0.0,0.0,0.0,0.0,0.0,0.0,0.0,0.0,0.0,0.0,0.0,0.0,0.0,0.0,0.0,0.0,0.0,0.0,0.0,0.0,0.0,0.0,0.0,0.0,0.0,0.0,0.0,0.0,0.0,0.0,0.0,0.0,0.0,0.0,0.0,0.0,0.0,0.0,0.0,0.0,0.0,0.0,0.0,0.0,0.0,0.0,0.0,0.0,0.0,0.0,0.0,0.0,0.0,0.0,0.0,0.0,0.0,0.0,0.0,0.0,0.0,0.0,0.0,0.0,0.0,0.0,0.0,0.0,0.0,0.0,0.0,0.0,0.0,0.0,0.0,0.0,0.0,0.0,0.0,0.0,0.0,0.0,0.0,0.0,0.0,0.0,0.0,0.0,0.0,0.0,0.0,0.0,0.0,0.0,0.0,0.0,0.0,0.0,0.0,0.0,0.0,0.0,0.0,0.0,0.0,0.0,0.0,0.0,0.0,0.0,0.0,0.0,0.0,0.0,0.0,0.0,0.0,0.0,0.0,0.0,0.0,0.0,0.0,0.0,0.0,0.0,0.0,0.0,0.0,0.0,0.0,0.0,0.0,0.0,0.0,0.0,0.0,0.0,0.0,0.0,0.0,0.0,0.0,0.0,0.0,0.0,0.0,0.0,0.0,0.0,0.0,0.0,0.0,0.0,0.0,0.0,0.0,0.0,0.0,0.0,0.0,0.0,0.0,0.0,0.0,0.0,0.0,0.0,0.0,0.0,0.0,0.0,0.0,0.0,0.0,0.0,0.0,0.0,0.0,0.0,0.0,0.0,0.0,0.0,0.0,0.0,0.0,0.0,0.0,0.0,0.0,0.0,0.0,0.0,0.0,0.0,0.0,0.0,0.0,0.0,0.0,0.0,0.0,0.0,0.0,0.0,0.0,0.0,0.0,0.0,0.0,0.0,0.0,0.0,0.0,0.0,0.0,0.0,0.0,0.0,0.0,0.0,0.0,0.0,0.0,0.0,0.0,0.0,0.0,0.0,0.0,0.0,0.0,0.0,0.0,0.0,0.0,0.0,0.0,0.0,0.0,0.0,0.0,0.0,0.0,0.0,0.0,0.0,0.0,0.0,0.0,0.0,0.0,0.0,0.0,0.0,0.0,0.0,0.0,0.0,0.0,0.0,0.0,0.0,0.0,0.0,0.0,0.0,0.0,0.0,0.0,0.0,0.0,0.0,0.0,0.0,0.0,0.0,0.0,0.0,0.0,0.0,0.0,0.0,0.0,0.0,0.0,0.0,0.0,0.0,0.0,0.0,0.0,0.0,0.0,0.0,0.0,0.0,0.0,0.0,0.0,0.0,0.0,0.0,0.0,0.0,0.0,0.0,0.0,0.0,0.0,0.0,0.0,0.0,0.0,0.0,0.0,0.0,0.0,0.0,0.0,0.0,0.0,0.0,0.0,0.0,0.0,0.0,0.0,0.0,0.0,0.0,0.0,0.0,0.0,0.0,0.0,0.0,0.0,0.0,0.0,0.0,0.0,0.0,0.0,0.0,0.0,0.0,0.0,0.0,0.0,0.0,0.0,0.0,0.0,0.0,0.0,0.0,0.0,0.0,0.0,0.0,0.0,0.0,0.0,0.0,0.0,0.0,0.0,0.0,0.0,0.0,0.0,0.0,0.0,0.0,0.0,0.0,0.0,0.0,0.0,0.0,0.0,0.0,0.0,0.0,0.0,0.0,0.0,0.0,0.0,0.0,0.0,0.0,0.0,0.0,0.0,0.0,0.0,0.0,0.0,0.0,0.0,0.0,0.0,0.0,0.0,0.0,0.0,0.0,0.0,0.0,0.0,0.0,0.0,0.0,0.0,0.0,0.0,0.0,0.0,0.0,0.0,0.0,0.0,0.0,0.0,0.0,0.0,0.0,0.0,0.0,0.0,0.0,0.0,0.0,0.0,0.0,0.0,0.0,0.0,0.0,0.0,0.0,0.0,0.0,0.0,0.0,0.0,0.0,0.0,0.0,0.0,0.0,0.0,0.0,0.0,0.0,0.0,0.0,0.0,0.0,0.0,0.0,0.0,0.0,0.0,0.0,0.0,0.0,0.0,0.0,0.0,0.0,0.0,0.0,0.0,0.0,0.0,0.0,0.0,0.0,0.0,0.0,0.0,0.0,0.0,0.0,0.0,0.0,0.0,0.0,0.0,0.0,0.0,0.0,0.0,0.0,0.0,0.0,0.0,0.0,0.0,0.0,0.0,0.0,0.0,0.0,0.0,0.0,0.0,0.0,0.0,0.0,0.0,0.0,0.0,0.0,0.0,0.0,0.0,0.0,0.0,0.0,0.0,0.0,0.0,0.0,0.0,0.0,0.0,0.0,0.0,0.0,0.0,0.0,0.0,0.0,0.0,0.0,0.0,0.0,0.0,0.0,0.0,0.0,0.0,0.0,0.0,0.0,0.0,0.0,0.0,0.0,0.0,0.0,0.0,0.0,0.0,0.0,0.0,0.0,0.0,0.0,0.0,0.0,0.0,0.0,0.0,0.0,0.0,0.0,0.0,0.0,0.0,0.0,0.0,0.0,0.0,0.0,0.0,0.0,0.0,0.0,0.0,0.0,0.0,0.0,0.0,0.0,0.0,0.0,0.0,0.0,0.0,0.0,0.0,0.0,0.0,0.0,0.0,0.0,0.0,0.0,0.0,0.0,0.0,0.0,0.0,0.0,0.0,0.0,0.0,0.0,0.0,0.0,0.0,0.0,0.0,0.0,0.0,0.0,0.0,0.0,0.0,0.0,0.0,0.0,0.0,0.0,0.0,0.0,0.0,0.0,0.0,0.0,0.0,0.0,0.0,0.0,0.0,0.0,0.0,0.0,0.0,0.0,0.0,0.0,0.0,0.0,0.0,0.0,0.0,0.0,0.0,0.0,0.0,0.0,0.0,0.0,0.0,0.0,0.0,0.0,0.0,0.0,0.0,0.0,0.0,0.0,0.0,0.0,0.0,0.0,0.0,0.0,0.0,0.0,0.0,0.0,0.0,0.0,0.0,0.0,0.0,0.0,0.0,0.0,0.0,0.0,0.0,0.0,0.0,0.0,0.0,0.0,0.0,0.0,0.0,0.0,0.0,0.0,0.0,0.0,0.0,0.0,0.0,0.0,0.0,0.0,0.0,0.0,0.0,0.0,0.0,0.0,0.0,0.0,0.0,0.0,0.0,0.0,0.0,0.0,0.0,0.0,0.0,0.0,0.0,0.0,0.0,0.0,0.0,0.0,0.0,0.0,0.0,0.0,3.4683,0.0,0.0,0.0,0.0,0.0,0.0,0.0,0.0,0.0,0.0,0.0,0.0,0.0,0.0,0.0,0.0,0.0,0.0,0.0,0.0,0.0,0.0,0.0,0.0,0.0,0.0,0.0,0.0,0.0,0.0,0.0,0.0,0.0,0.0,0.0,0.0,0.0,0.0,0.0,0.0,0.0,0.0,0.0,0.0,0.0,0.0,0.0,0.0,0.0,0.0,0.0,0.0,0.0,0.0,0.0,0.0,0.0,0.0,0.0,0.0,0.0,0.0,0.0,0.0,0.0,0.0,0.0,0.0,0.0,0.0,0.0,0.0,0.0,0.0,0.0,0.0,0.0,0.0,0.0,0.0,0.0,0.0,0.0,0.0,0.0,0.0,0.0,0.0,0.0,0.0,0.0,0.0,0.0,0.0,0.0,0.0,0.0,0.0,0.0,0.0,0.0,0.0,0.0,0.0,0.0,0.0,0.0,0.0,0.0,0.0,3.7769,3.6557,3.5275,3.4603,3.4618,0.0,0.0,0.0,0.0,0.0,0.0,0.0,0.0,0.0,0.0,0.0,0.0,0.0,0.0,0.0,0.0,0.0,0.0,0.0,0.0,0.0,0.0,0.0,0.0,0.0,0.0,0.0,0.0,0.0,0.0,0.0,0.0,0.0,0.0,0.0,0.0,0.0,0.0,0.0,0.0,0.0,0.0,0.0,0.0,0.0,0.0,0.0,0.0,0.0,0.0,0.0,0.0,0.0,0.0,0.0,0.0,0.0,0.0,0.0,0.0,0.0,0.0,0.0,0.0,0.0,0.0,0.0,0.0,0.0,0.0,0.0,0.0,0.0,0.0,0.0,0.0,0.0,0.0,0.0,0.0,0.0,0.0,0.0,0.0,0.0,0.0,0.0,0.0,0.0,0.0,0.0,0.0,0.0,0.0,0.0,0.0,0.0,0.0,0.0,0.0,0.0,0.0,0.0,0.0,0.0,0.0,0.0,0.0,0.0,0.0,0.0,0.0,3.6137,3.5353,3.5132,0.0,0.0,0.0,0.0,0.0,0.0,0.0,0.0,0.0,0.0,0.0,0.0,0.0,0.0,0.0,0.0,0.0,0.0,0.0,0.0,0.0,0.0,0.0,0.0,0.0,0.0,0.0,0.0,0.0,0.0,0.0,0.0,0.0,0.0,0.0,0.0,0.0,0.0,0.0,0.0,0.0,0.0,0.0,0.0,0.0,0.0,0.0,0.0,0.0,0.0,0.0,0.0,0.0,0.0,0.0,0.0,0.0,0.0,0.0,0.0,0.0,0.0,0.0,0.0,0.0,0.0,0.0,0.0,0.0,0.0,0.0,0.0,0.0,0.0,0.0,0.0,0.0,0.0,0.0,0.0,0.0,0.0,0.0,0.0,0.0,0.0,0.0,0.0,0.0,0.0,0.0,0.0,0.0,0.0,0.0,0.0,0.0,0.0,0.0,0.0,0.0,0.0,0.0,0.0,0.0,0.0,0.0,0.0,0.0,0.0,3.9092,3.8229,3.8089,0.0,3.6851,0.0,0.0,0.0,0.0,0.0,0.0,0.0,0.0,0.0,0.0,0.0,0.0,0.0,0.0,0.0,0.0,0.0,0.0,0.0,0.0,0.0,0.0,0.0,0.0,0.0,0.0,0.0,0.0,0.0,0.0,0.0,0.0,0.0,0.0,0.0,0.0,0.0,0.0,0.0,0.0,0.0,0.0,0.0,0.0,0.0,0.0,0.0,0.0,0.0,0.0,0.0,0.0,0.0,0.0,0.0,0.0,0.0,0.0,0.0,0.0,0.0,0.0,0.0,0.0,0.0,0.0,0.0,0.0,0.0,0.0,0.0,0.0,0.0,0.0,0.0,0.0,0.0,0.0,0.0,0.0,0.0,0.0,0.0,0.0,0.0,0.0,0.0,0.0,0.0,0.0,0.0,0.0,0.0,0.0,0.0,0.0,0.0,0.0,0.0,0.0,0.0,0.0,0.0,0.0,0.0,0.0,0.0,0.0,0.0,0.0,3.9387,3.9032,3.8092,3.7475,0.0,0.0,0.0,0.0,0.0,0.0,0.0,0.0,0.0,0.0,0.0,0.0,0.0,0.0,0.0,0.0,0.0,0.0,0.0,0.0,0.0,0.0,0.0,0.0,0.0,0.0,0.0,0.0,0.0,0.0,0.0,0.0,0.0,0.0,0.0,0.0,0.0,0.0,0.0,0.0,0.0,0.0,0.0,0.0,0.0,0.0,0.0,0.0,0.0,0.0,0.0,0.0,0.0,0.0,0.0,0.0,0.0,0.0,0.0,0.0,0.0,0.0,0.0,0.0,0.0,0.0,0.0,0.0,0.0,0.0,0.0,0.0,0.0,0.0,0.0,0.0,0.0,0.0,0.0,0.0,0.0,0.0,0.0,0.0,0.0,0.0,0.0,0.0,0.0,0.0,0.0,0.0,0.0,0.0,0.0,0.0,0.0,0.0,0.0,0.0,0.0,0.0,0.0,0.0,0.0,0.0,0.0,0.0,0.0,0.0,4.0076,3.9855,3.9785,3.8287,3.7441,3.7411,0.0,0.0,0.0,0.0,0.0,0.0,0.0,0.0,0.0,0.0,0.0,0.0,0.0,0.0,0.0,0.0,0.0,0.0,0.0,0.0,0.0,0.0,0.0,0.0,0.0,0.0,0.0,0.0,0.0,0.0,0.0,0.0,0.0,0.0,0.0,0.0,0.0,0.0,0.0,0.0,0.0,0.0,0.0,0.0,0.0,0.0,0.0,0.0,0.0,0.0,0.0,0.0,0.0,0.0,0.0,0.0,0.0,0.0,0.0,0.0,0.0,0.0,0.0,0.0,0.0,0.0,0.0,0.0,0.0,0.0,0.0,0.0,0.0,0.0,0.0,0.0,0.0,0.0,0.0,0.0,0.0,0.0,0.0,0.0,0.0,0.0,0.0,0.0,0.0,0.0,0.0,0.0,0.0,0.0,0.0,0.0,0.0,0.0,0.0,0.0,0.0,0.0,0.0,0.0,0.0,0.0,0.0,0.0,4.0616,4.0629,4.0692,4.0699,3.912,3.8228,0.0,0.0,0.0,0.0,0.0,0.0,0.0,0.0,0.0,0.0,0.0,0.0,0.0,0.0,0.0,0.0,0.0,0.0,0.0,0.0,0.0,0.0,0.0,0.0,0.0,0.0,0.0,0.0,0.0,0.0,0.0,0.0,0.0,0.0,0.0,0.0,0.0,0.0,0.0,0.0,0.0,0.0,0.0,0.0,0.0,0.0,0.0,0.0,0.0,0.0,0.0,0.0,0.0,0.0,0.0,0.0,0.0,0.0,0.0,0.0,0.0,0.0,0.0,0.0,0.0,0.0,0.0,0.0,0.0,0.0,0.0,0.0,0.0,0.0,0.0,0.0,0.0,0.0,0.0,0.0,0.0,0.0,0.0,0.0,0.0,0.0,0.0,0.0,0.0,0.0,0.0,0.0,0.0,0.0,0.0,0.0,0.0,0.0,0.0,0.0,0.0,0.0,0.0,0.0,0.0,0.0,0.0,0.0,0.0,4.06,4.0626,4.0926,4.1467,3.9379,3.8202,0.0,0.0,0.0,0.0,0.0,0.0,0.0,0.0,0.0,0.0,0.0,0.0,0.0,0.0,0.0,0.0,0.0,0.0,0.0,0.0,0.0,0.0,0.0,0.0,0.0,0.0,0.0,0.0,0.0,0.0,0.0,0.0,0.0,0.0,0.0,0.0,0.0,0.0,0.0,0.0,0.0,0.0,0.0,0.0,0.0,0.0,0.0,0.0,0.0,0.0,0.0,0.0,0.0,0.0,0.0,0.0,0.0,0.0,0.0,0.0,0.0,0.0,0.0,0.0,0.0,0.0,0.0,0.0,0.0,0.0,0.0,0.0,0.0,0.0,0.0,0.0,0.0,0.0,0.0,0.0,0.0,0.0,0.0,0.0,0.0,0.0,0.0,0.0,0.0,0.0,0.0,0.0,0.0,0.0,0.0,0.0,0.0,0.0,0.0,0.0,0.0,0.0,0.0,0.0,0.0,0.0,0.0,0.0,0.0,4.1001,0.0,4.1591,4.1851,3.9727,3.8402,0.0,0.0,0.0,0.0,0.0,0.0,0.0,0.0,0.0,0.0,0.0,0.0,0.0,0.0,0.0,0.0,0.0,0.0,0.0,0.0,0.0,0.0,0.0,0.0,0.0,0.0,0.0,0.0,0.0,0.0,0.0,0.0,0.0,0.0,0.0,0.0,0.0,0.0,0.0,0.0,0.0,0.0,0.0,0.0,0.0,0.0,0.0,0.0,0.0,0.0,0.0,0.0,0.0,0.0,0.0,0.0,0.0,0.0,0.0,0.0,0.0,0.0,0.0,0.0,0.0,0.0,0.0,0.0,0.0,0.0,0.0,0.0,0.0,0.0,0.0,0.0,0.0,0.0,0.0,0.0,0.0,0.0,0.0,0.0,0.0,0.0,0.0,0.0,0.0,0.0,0.0,0.0,0.0,0.0,0.0,0.0,0.0,0.0,0.0,0.0,0.0,0.0,0.0,0.0,0.0,0.0,0.0,0.0,4.1116,4.1956,4.2765,4.2857,4.1962,4.0419,3.9069,0.0,0.0,0.0,0.0,0.0,0.0,0.0,0.0,0.0,0.0,0.0,0.0,0.0,0.0,0.0,0.0,0.0,0.0,0.0,0.0,0.0,0.0,0.0,0.0,0.0,0.0,0.0,0.0,0.0,0.0,0.0,0.0,0.0,0.0,0.0,0.0,0.0,0.0,0.0,0.0,0.0,0.0,0.0,0.0,0.0,0.0,0.0,0.0,0.0,0.0,0.0,0.0,0.0,0.0,0.0,0.0,0.0,0.0,0.0,0.0,0.0,0.0,0.0,0.0,0.0,0.0,0.0,0.0,0.0,0.0,0.0,0.0,0.0,0.0,0.0,0.0,0.0,0.0,0.0,0.0,0.0,0.0,0.0,0.0,0.0,0.0,0.0,0.0,0.0,0.0,0.0,0.0,0.0,0.0,0.0,0.0,0.0,0.0,0.0,0.0,0.0,0.0,0.0,0.0,0.0,0.0,0.0,0.0,0.0,4.5334,4.5603,4.5873,4.6082,4.3426,4.1285,0.0,0.0,0.0,0.0,0.0,0.0,0.0,0.0,0.0,0.0,0.0,0.0,0.0,0.0,0.0,0.0,0.0,0.0,0.0,0.0,0.0,0.0,0.0,0.0,0.0,0.0,0.0,0.0,0.0,0.0,0.0,0.0,0.0,0.0,0.0,0.0,0.0,0.0,0.0,0.0,0.0,0.0,0.0,0.0,0.0,0.0,0.0,0.0,0.0,0.0,0.0,0.0,0.0,0.0,0.0,0.0,0.0,0.0,0.0,0.0,0.0,0.0,0.0,0.0,0.0,0.0,0.0,0.0,0.0,0.0,0.0,0.0,0.0,0.0,0.0,0.0,0.0,0.0,0.0,0.0,0.0,0.0,0.0,0.0,0.0,0.0,0.0,0.0,0.0,0.0,0.0,0.0,0.0,0.0,0.0,0.0,0.0,0.0,0.0,0.0,0.0,0.0,0.0,0.0,0.0,0.0,0.0,0.0,0.0,5.1049,5.0279,4.9701,4.9547,4.6583,4.3888,4.154,0.0,0.0,0.0,0.0,0.0,0.0,0.0,0.0,0.0,0.0,0.0,0.0,0.0,0.0,0.0,0.0,0.0,0.0,0.0,0.0,0.0,0.0,0.0,0.0,0.0,0.0,0.0,0.0,0.0,0.0,0.0,0.0,0.0,0.0,0.0,0.0,0.0,0.0,0.0,0.0,0.0,0.0,0.0,0.0,0.0,0.0,0.0,0.0,0.0,0.0,0.0,0.0,0.0,0.0,0.0,0.0,0.0,0.0,0.0,0.0,0.0,0.0,0.0,0.0,0.0,0.0,0.0,0.0,0.0,0.0,0.0,0.0,0.0,0.0,0.0,0.0,0.0,0.0,0.0,0.0,0.0,0.0,0.0,0.0,0.0,0.0,0.0,0.0,0.0,0.0,0.0,0.0,0.0,0.0,0.0,0.0,0.0,0.0,0.0,0.0,0.0,0.0,0.0,0.0,0.0,0.0,0.0,0.0,5.8718,5.6636,5.467,5.2685,5.0103,4.7041,0.0,0.0,0.0,0.0,0.0,0.0,0.0,0.0,0.0,0.0,0.0,0.0,0.0,0.0,0.0,0.0,0.0,0.0,0.0,0.0,0.0,0.0,0.0,0.0,0.0,0.0,0.0,0.0,0.0,0.0,0.0,0.0,0.0,0.0,0.0,0.0,0.0,0.0,0.0,0.0,0.0,0.0,0.0,0.0,0.0,0.0,0.0,0.0,0.0,0.0,0.0,0.0,0.0,0.0,0.0,0.0,0.0,0.0,0.0,0.0,0.0,0.0,0.0,0.0,0.0,0.0,0.0,0.0,0.0,0.0,0.0,0.0,0.0,0.0,0.0,0.0,0.0,0.0,0.0,0.0,0.0,0.0,0.0,0.0,0.0,0.0,0.0,0.0,0.0,0.0,0.0,0.0,0.0,0.0,0.0,0.0,0.0,0.0,0.0,0.0,0.0,0.0,0.0,0.0,0.0,0.0,0.0,0.0,0.0,6.2926,6.5556,6.4552,5.9763,5.6482,5.2569,0.0,0.0,0.0,0.0,0.0,0.0,0.0,0.0,0.0,0.0,0.0,0.0,0.0,0.0,0.0,0.0,0.0,0.0,0.0,0.0,0.0,0.0,0.0,0.0,0.0,0.0,0.0,0.0,0.0,0.0,0.0,0.0,0.0,0.0,0.0,0.0,0.0,0.0,0.0,0.0,0.0,0.0,0.0,0.0,0.0,0.0,0.0,0.0,0.0,0.0,0.0,0.0,0.0,0.0,0.0,0.0,0.0,0.0,0.0,0.0,0.0,0.0,0.0,0.0,0.0,0.0,0.0,0.0,0.0,0.0,0.0,0.0,0.0,0.0,0.0,0.0,0.0,0.0,0.0,0.0,0.0,0.0,0.0,0.0,0.0,0.0,0.0,0.0,0.0,0.0,0.0,0.0,0.0,0.0,0.0,0.0,0.0,0.0,0.0,0.0,0.0,0.0,0.0,0.0,0.0,0.0,0.0,0.0,6.1944,6.7386,7.1703,7.2268,6.8822,6.2926,5.7369,0.0,0.0,0.0,0.0,0.0,0.0,0.0,0.0,0.0,0.0,0.0,0.0,0.0,0.0,0.0,0.0,0.0,0.0,0.0,0.0,0.0,0.0,0.0,0.0,0.0,0.0,0.0,0.0,0.0,0.0,0.0,0.0,0.0,0.0,0.0,0.0,0.0,0.0,0.0,0.0,0.0,0.0,0.0,0.0,0.0,0.0,0.0,0.0,0.0,0.0,0.0,0.0,0.0,0.0,0.0,0.0,0.0,0.0,0.0,0.0,0.0,0.0,0.0,0.0,0.0,0.0,0.0,0.0,0.0,0.0,0.0,0.0,0.0,0.0,0.0,0.0,0.0,0.0,0.0,0.0,0.0,0.0,0.0,0.0,0.0,0.0,0.0,0.0,0.0,0.0,0.0,0.0,0.0,0.0,0.0,0.0,0.0,0.0,0.0,0.0,0.0,0.0,0.0,0.0,0.0,0.0,0.0,0.0,6.5856,7.1748,7.6094,7.8321,7.8001,6.9262,6.1923,0.0,0.0,0.0,0.0,0.0,0.0,0.0,0.0,0.0,0.0,0.0,0.0,0.0,0.0,0.0,0.0,0.0,0.0,0.0,0.0,0.0,0.0,0.0,0.0,0.0,0.0,0.0,0.0,0.0,0.0,0.0,0.0,0.0,0.0,0.0,0.0,0.0,0.0,0.0,0.0,0.0,0.0,0.0,0.0,0.0,0.0,0.0,0.0,0.0,0.0,0.0,0.0,0.0,0.0,0.0,0.0,0.0,0.0,0.0,0.0,0.0,0.0,0.0,0.0,0.0,0.0,0.0,0.0,0.0,0.0,0.0,0.0,0.0,0.0,0.0,0.0,0.0,0.0,0.0,0.0,0.0,0.0,0.0,0.0,0.0,0.0,0.0,0.0,0.0,0.0,0.0,0.0,0.0,0.0,0.0,0.0,0.0,0.0,0.0,0.0,0.0,0.0,0.0,0.0,0.0,0.0,0.0,0.0,7.0157,7.6032,8.037,8.2559,8.2521,7.4745,6.7479,0.0,0.0,0.0,0.0,0.0,0.0,0.0,0.0,0.0,0.0,0.0,0.0,0.0,0.0,0.0,0.0,0.0,0.0,0.0,0.0,0.0,0.0,0.0,0.0,0.0,0.0,0.0,0.0,0.0,0.0,0.0,0.0,0.0,0.0,0.0,0.0,0.0,0.0,0.0,0.0,0.0,0.0,0.0,0.0,0.0,0.0,0.0,0.0,4.4435,0.0,0.0,0.0,0.0,0.0,0.0,0.0,0.0,0.0,0.0,0.0,0.0,0.0,0.0,0.0,0.0,0.0,0.0,0.0,0.0,0.0,0.0,0.0,0.0,0.0,0.0,0.0,0.0,0.0,0.0,0.0,0.0,0.0,0.0,0.0,0.0,0.0,0.0,0.0,0.0,0.0,0.0,0.0,0.0,0.0,0.0,0.0,0.0,0.0,0.0,0.0,0.0,0.0,0.0,0.0,0.0,0.0,0.0,0.0,7.364,7.9142,8.3442,8.541,8.4802,7.9065,7.2367,0.0,0.0,0.0,0.0,0.0,0.0,0.0,0.0,0.0,0.0,0.0,0.0,0.0,0.0,0.0,0.0,0.0,0.0,0.0,0.0,0.0,0.0,0.0,0.0,0.0,0.0,0.0,0.0,0.0,0.0,0.0,0.0,0.0,0.0,0.0,0.0,0.0,0.0,0.0,0.0,0.0,0.0,0.0,0.0,0.0,0.0,0.0,0.0,0.0,0.0,0.0,0.0,0.0,0.0,0.0,0.0,0.0,0.0,0.0,0.0,0.0,0.0,0.0,0.0,0.0,0.0,0.0,0.0,0.0,0.0,0.0,0.0,0.0,0.0,0.0,0.0,0.0,0.0,0.0,0.0,0.0,0.0,0.0,0.0,0.0,0.0,0.0,0.0,0.0,0.0,0.0,0.0,0.0,0.0,0.0,0.0,0.0,0.0,0.0,0.0,0.0,0.0,0.0,0.0,0.0,0.0,0.0,6.9817,7.6709,8.1869,8.5899,8.7519,8.6569,8.237,7.6167,6.7846,0.0,0.0,0.0,0.0,0.0,0.0,0.0,0.0,0.0,0.0,0.0,0.0,0.0,0.0,0.0,0.0,0.0,0.0,0.0,0.0,0.0,0.0,0.0,0.0,0.0,0.0,0.0,0.0,0.0,0.0,0.0,0.0,0.0,0.0,0.0,0.0,0.0,0.0,4.4336,4.6758,0.0,0.0,0.0,0.0,0.0,0.0,0.0,0.0,5.0356,0.0,0.0,0.0,0.0,0.0,0.0,0.0,0.0,0.0,0.0,0.0,0.0,0.0,0.0,0.0,0.0,0.0,0.0,0.0,0.0,0.0,0.0,0.0,0.0,0.0,0.0,0.0,0.0,0.0,0.0,0.0,0.0,0.0,0.0,0.0,0.0,0.0,0.0,0.0,0.0,0.0,0.0,0.0,0.0,0.0,0.0,0.0,0.0,0.0,0.0,0.0,0.0,0.0,0.0,0.0,0.0,6.3935,7.2417,7.962,8.5337,8.8149,8.9189,8.8265,8.3503,7.7275,6.9463,0.0,0.0,0.0,0.0,0.0,0.0,0.0,0.0,0.0,0.0,0.0,0.0,0.0,0.0,0.0,0.0,0.0,0.0,0.0,0.0,0.0,0.0,0.0,0.0,0.0,0.0,0.0,0.0,0.0,0.0,0.0,0.0,0.0,0.0,0.0,0.0,0.0,0.0,0.0,5.0234,5.1875,0.0,0.0,0.0,0.0,0.0,0.0,0.0,0.0,5.3834,0.0,0.0,0.0,0.0,0.0,0.0,0.0,0.0,0.0,0.0,0.0,0.0,0.0,0.0,0.0,0.0,0.0,0.0,0.0,0.0,0.0,0.0,0.0,0.0,0.0,0.0,0.0,0.0,0.0,0.0,0.0,0.0,0.0,0.0,0.0,0.0,0.0,0.0,0.0,0.0,0.0,0.0,0.0,0.0,0.0,0.0,0.0,0.0,0.0,0.0,0.0,0.0,0.0,0.0,0.0,6.6513,7.4988,8.2002,8.7391,9.0009,9.0663,8.9316,8.4395,7.7938,0.0,0.0,0.0,0.0,0.0,0.0,0.0,0.0,0.0,0.0,0.0,0.0,0.0,0.0,0.0,0.0,0.0,0.0,0.0,0.0,0.0,0.0,0.0,0.0,0.0,0.0,0.0,0.0,0.0,0.0,0.0,0.0,0.0,0.0,0.0,0.0,0.0,0.0,0.0,0.0,5.4136,5.6161,5.663,0.0,0.0,0.0,0.0,0.0,0.0,5.7265,5.6836,0.0,0.0,0.0,0.0,0.0,0.0,0.0,0.0,0.0,0.0,0.0,0.0,0.0,0.0,0.0,0.0,0.0,0.0,0.0,0.0,0.0,0.0,0.0,0.0,0.0,0.0,0.0,0.0,0.0,0.0,0.0,0.0,0.0,0.0,0.0,0.0,0.0,0.0,0.0,0.0,0.0,0.0,0.0,0.0,0.0,0.0,0.0,0.0,0.0,0.0,0.0,0.0,0.0,0.0,0.0,6.909,7.7361,8.4076,8.9017,9.1518,9.1825,8.9902,8.4939,7.8246,0.0,0.0,0.0,0.0,0.0,0.0,0.0,0.0,0.0,0.0,0.0,0.0,0.0,0.0,0.0,0.0,0.0,0.0,0.0,0.0,0.0,0.0,0.0,0.0,0.0,0.0,0.0,0.0,0.0,0.0,0.0,0.0,0.0,0.0,0.0,0.0,0.0,0.0,0.0,0.0,0.0,6.0037,6.1247,6.0978,0.0,0.0,0.0,0.0,6.147,6.0963,0.0,0.0,0.0,0.0,0.0,0.0,0.0,0.0,0.0,0.0,0.0,0.0,0.0,0.0,0.0,0.0,0.0,0.0,0.0,0.0,0.0,0.0,0.0,0.0,0.0,0.0,0.0,0.0,0.0,0.0,0.0,0.0,0.0,0.0,0.0,0.0,0.0,0.0,0.0,0.0,0.0,0.0,0.0,0.0,0.0,0.0,0.0,0.0,0.0,0.0,0.0,0.0,0.0,0.0,0.0,0.0,7.1629,7.9383,8.5762,9.071,9.2633,9.2364,8.994,8.4978,7.7977,0.0,0.0,0.0,0.0,0.0,0.0,0.0,0.0,0.0,0.0,0.0,0.0,0.0,0.0,0.0,0.0,0.0,0.0,0.0,0.0,0.0,0.0,0.0,0.0,0.0,0.0,0.0,0.0,0.0,0.0,0.0,0.0,0.0,0.0,0.0,0.0,0.0,0.0,0.0,0.0,0.0,6.2262,6.4565,6.5468,6.5624,0.0,0.0,6.5808,6.6034,6.5332,0.0,0.0,0.0,0.0,0.0,0.0,0.0,0.0,0.0,0.0,0.0,0.0,0.0,0.0,0.0,0.0,0.0,0.0,0.0,0.0,0.0,0.0,0.0,0.0,0.0,0.0,0.0,0.0,0.0,0.0,0.0,0.0,0.0,0.0,0.0,0.0,0.0,0.0,0.0,0.0,0.0,0.0,0.0,0.0,0.0,0.0,0.0,0.0,0.0,0.0,0.0,0.0,0.0,0.0,0.0,6.4051,7.286,8.0914,8.7257,9.1787,9.3557,9.321,9.0671,8.5709,7.8669,0.0,0.0,0.0,0.0,0.0,0.0,0.0,0.0,0.0,0.0,0.0,0.0,0.0,0.0,0.0,0.0,0.0,0.0,0.0,0.0,0.0,0.0,0.0,0.0,0.0,0.0,0.0,0.0,0.0,0.0,0.0,0.0,0.0,0.0,0.0,0.0,0.0,0.0,0.0,0.0,0.0,0.0,6.8039,6.917,0.0,0.0,0.0,7.0025,7.0964,0.0,0.0,0.0,0.0,0.0,0.0,0.0,0.0,0.0,0.0,0.0,0.0,0.0,0.0,0.0,0.0,0.0,0.0,0.0,0.0,0.0,0.0,0.0,0.0,0.0,0.0,0.0,0.0,0.0,0.0,0.0,0.0,0.0,0.0,0.0,0.0,0.0,0.0,0.0,0.0,0.0,0.0,0.0,0.0,0.0,0.0,0.0,0.0,0.0,0.0,0.0,0.0,0.0,0.0,0.0,0.0,0.0,7.4361,8.2336,8.8679,9.3287,9.4672,9.421,9.1825,8.6709,0.0,0.0,0.0,0.0,0.0,0.0,0.0,0.0,0.0,0.0,0.0,0.0,0.0,0.0,0.0,0.0,0.0,0.0,0.0,0.0,0.0,0.0,0.0,0.0,0.0,0.0,0.0,3.6479,0.0,0.0,0.0,0.0,0.0,0.0,0.0,0.0,0.0,0.0,0.0,0.0,0.0,0.0,6.7531,7.1409,7.3018,7.4104,0.0,0.0,7.4197,7.5478,7.3314,7.0952,0.0,0.0,0.0,0.0,0.0,0.0,0.0,0.0,0.0,0.0,0.0,0.0,0.0,0.0,0.0,0.0,0.0,0.0,0.0,0.0,0.0,0.0,0.0,0.0,0.0,0.0,0.0,0.0,0.0,0.0,0.0,0.0,0.0,0.0,0.0,0.0,0.0,0.0,0.0,0.0,0.0,0.0,0.0,0.0,0.0,0.0,0.0,0.0,0.0,0.0,0.0,0.0,0.0,0.0,0.0,7.6861,8.3824,9.0133,9.5788,9.6172,9.5365,9.3518,8.7863,8.0823,0.0,0.0,0.0,0.0,0.0,0.0,0.0,0.0,0.0,0.0,0.0,0.0,0.0,0.0,0.0,0.0,0.0,0.0,0.0,0.0,0.0,0.0,0.0,0.0,0.0,0.0,0.0,0.0,0.0,0.0,0.0,0.0,0.0,0.0,0.0,0.0,0.0,0.0,0.0,0.0,0.0,6.966,7.4683,7.7428,7.9259,0.0,0.0,7.8949,7.9019,7.6216,7.3511,7.1782,0.0,0.0,0.0,0.0,0.0,0.0,0.0,0.0,0.0,0.0,0.0,0.0,0.0,0.0,0.0,0.0,0.0,0.0,0.0,0.0,0.0,0.0,0.0,0.0,0.0,0.0,0.0,0.0,0.0,0.0,0.0,0.0,0.0,0.0,0.0,0.0,0.0,0.0,0.0,0.0,0.0,0.0,0.0,0.0,0.0,0.0,0.0,0.0,0.0,0.0,0.0,0.0,0.0,6.8398,7.7938,8.5247,9.1325,9.6057,9.6788,9.6249,9.4518,8.9248,8.2939,0.0,0.0,0.0,0.0,0.0,0.0,0.0,0.0,0.0,0.0,0.0,0.0,0.0,0.0,0.0,0.0,0.0,0.0,0.0,0.0,0.0,0.0,0.0,0.0,0.0,0.0,0.0,0.0,4.2992,4.3994,4.4376,0.0,0.0,0.0,0.0,0.0,0.0,0.0,0.0,0.0,0.0,7.2149,7.7268,7.967,0.0,0.0,8.1826,8.0915,8.0859,7.8064,7.515,7.291,6.8137,0.0,0.0,0.0,0.0,0.0,0.0,0.0,0.0,0.0,0.0,0.0,0.0,0.0,0.0,0.0,0.0,0.0,0.0,0.0,0.0,0.0,0.0,0.0,0.0,0.0,0.0,0.0,0.0,0.0,0.0,0.0,0.0,0.0,0.0,0.0,0.0,0.0,0.0,0.0,0.0,0.0,0.0,0.0,0.0,0.0,0.0,0.0,0.0,0.0,0.0,0.0,0.0,6.959,7.8823,8.644,9.2479,9.6942,9.7596,9.7211,9.5672,9.1056,8.5478,0.0,0.0,0.0,0.0,0.0,0.0,0.0,0.0,0.0,0.0,0.0,0.0,0.0,0.0,0.0,0.0,0.0,0.0,0.0,0.0,0.0,0.0,0.0,0.0,0.0,0.0,0.0,0.0,4.3996,4.4781,4.4806,0.0,0.0,0.0,0.0,0.0,0.0,0.0,0.0,0.0,0.0,7.482,7.9388,8.1674,8.3342,8.4837,8.3613,8.2471,8.2145,7.9349,7.6397,7.4101,0.0,0.0,0.0,0.0,0.0,0.0,0.0,0.0,0.0,0.0,0.0,0.0,0.0,0.0,0.0,0.0,0.0,0.0,0.0,0.0,0.0,0.0,0.0,0.0,0.0,0.0,0.0,0.0,0.0,0.0,5.1779,0.0,0.0,0.0,0.0,0.0,0.0,0.0,0.0,0.0,0.0,0.0,0.0,0.0,0.0,0.0,0.0,0.0,0.0,0.0,0.0,0.0,0.0,7.0475,7.9708,8.7286,9.3633,9.8519,9.875,9.8365,9.7365,9.3326,8.8286,8.2208,0.0,0.0,0.0,0.0,0.0,0.0,0.0,0.0,0.0,0.0,0.0,0.0,0.0,0.0,0.0,0.0,0.0,0.0,0.0,0.0,0.0,0.0,0.0,0.0,0.0,0.0,4.455,4.4649,4.4743,0.0,0.0,0.0,0.0,0.0,0.0,0.0,0.0,0.0,0.0,7.2756,7.7654,8.1092,8.3656,8.5461,8.6377,8.5075,8.3734,8.2876,8.0027,7.7312,0.0,0.0,0.0,0.0,0.0,0.0,0.0,0.0,0.0,0.0,0.0,0.0,0.0,0.0,0.0,0.0,0.0,0.0,0.0,0.0,0.0,0.0,0.0,0.0,0.0,0.0,0.0,5.4857,5.4818,0.0,0.0,0.0,0.0,0.0,0.0,0.0,0.0,0.0,0.0,0.0,6.205,6.2637,0.0,0.0,0.0,0.0,0.0,0.0,0.0,0.0,0.0,0.0,0.0,0.0,7.2168,8.1285,8.844,9.4212,9.8518,9.921,9.9133,9.817,9.4676,8.8717,8.0015,0.0,0.0,0.0,0.0,0.0,0.0,0.0,0.0,0.0,0.0,0.0,0.0,0.0,0.0,0.0,0.0,0.0,0.0,0.0,0.0,0.0,0.0,0.0,0.0,0.0,4.6205,0.0,0.0,0.0,0.0,0.0,0.0,0.0,0.0,0.0,0.0,0.0,6.6322,7.1899,7.6271,8.0123,8.3548,8.5144,8.6138,0.0,0.0,0.0,0.0,0.0,0.0,0.0,0.0,0.0,0.0,0.0,0.0,0.0,0.0,6.5423,6.2149,6.0839,6.0417,6.1017,0.0,0.0,0.0,0.0,0.0,0.0,0.0,0.0,0.0,0.0,0.0,0.0,0.0,0.0,0.0,0.0,5.6698,0.0,0.0,0.0,0.0,0.0,0.0,0.0,0.0,6.4039,6.5705,6.6805,6.7962,6.7806,0.0,6.6384,6.3974,0.0,0.0,0.0,0.0,0.0,0.0,0.0,0.0,7.4322,8.2547,8.9675,9.4983,9.84,9.9706,9.9703,9.8469,9.4714,8.903,8.1337,7.4841,6.8679,0.0,0.0,0.0,0.0,0.0,0.0,0.0,0.0,0.0,0.0,0.0,0.0,0.0,0.0,0.0,0.0,0.0,0.0,0.0,0.0,0.0,0.0,0.0,4.8304,0.0,0.0,0.0,0.0,0.0,0.0,0.0,0.0,0.0,6.0592,6.4987,7.0059,7.5605,7.8994,8.1942,8.4741,0.0,0.0,0.0,0.0,0.0,0.0,0.0,8.0022,7.9467,7.9006,7.8568,7.8021,7.6806,7.5683,7.5139,0.0,0.0,6.7723,6.6229,6.5998,6.6571,6.6917,6.7448,6.83,6.9585,7.0849,0.0,0.0,0.0,0.0,0.0,0.0,0.0,0.0,6.1172,6.1287,0.0,6.029,0.0,0.0,0.0,0.0,0.0,6.2989,0.0,0.0,6.9347,7.0997,7.1183,7.286,7.3236,7.2456,7.2381,7.1898,7.0591,6.2897,0.0,0.0,0.0,0.0,0.0,0.0,7.689,8.3534,9.0985,9.602,9.8437,10.0122,10.0156,9.8393,9.3599,8.9458,8.6076,8.0389,7.4627,6.8932,6.2988,0.0,0.0,0.0,0.0,0.0,0.0,0.0,0.0,0.0,0.0,0.0,0.0,0.0,0.0,0.0,0.0,0.0,0.0,0.0,0.0,5.0356,0.0,0.0,0.0,0.0,0.0,0.0,0.0,0.0,0.0,0.0,6.5054,6.8838,7.3263,7.8271,0.0,0.0,0.0,0.0,8.6478,8.7358,8.6132,8.5137,8.5164,8.3785,8.274,8.2699,0.0,0.0,8.3115,8.2445,8.1852,8.189,8.1736,7.9796,7.3333,7.2047,7.1896,7.1978,7.2715,7.3501,7.435,7.537,7.6687,7.1455,0.0,0.0,0.0,0.0,6.5082,6.558,6.627,6.604,6.5771,6.535,6.4304,0.0,0.0,0.0,0.0,0.0,0.0,6.811,7.0256,7.3622,7.5511,7.6149,7.7892,7.825,7.7508,7.7501,7.707,7.6207,7.3322,6.9283,6.4282,0.0,0.0,0.0,0.0,8.0023,8.6082,9.2372,9.6475,9.8308,9.9989,9.9759,9.7499,9.3708,9.0722,8.8614,8.408,7.9736,7.5656,6.9333,0.0,0.0,0.0,0.0,0.0,0.0,0.0,0.0,0.0,0.0,0.0,0.0,0.0,0.0,0.0,0.0,0.0,0.0,0.0,5.4626,5.4493,5.3782,0.0,0.0,0.0,0.0,0.0,0.0,0.0,0.0,0.0,7.2288,7.4434,7.7494,0.0,0.0,8.5652,8.7391,8.782,8.8238,8.9079,0.0,0.0,0.0,8.7675,8.7017,8.6993,8.762,8.8133,8.8168,8.8014,8.7511,8.6362,8.613,8.5229,8.2883,8.0338,7.9099,7.9492,7.9888,8.0334,8.1173,8.2028,8.3039,7.8443,7.3908,7.0959,6.9655,6.9693,6.9693,6.996,7.0381,7.0445,7.0025,6.9176,6.8089,6.7161,6.6318,6.6165,0.0,0.0,0.0,7.2499,7.4451,7.7509,7.9182,7.9742,8.1133,8.1524,8.1068,8.144,8.1387,8.0953,8.0421,7.8154,7.4072,0.0,0.0,7.3976,7.8577,8.3303,8.8137,9.3562,9.6963,9.821,9.9205,9.8975,9.7407,9.4195,9.1827,9.0569,8.6851,8.3278,7.9998,7.4456,6.8498,0.0,0.0,0.0,0.0,0.0,0.0,0.0,0.0,0.0,0.0,0.0,4.3805,0.0,0.0,0.0,0.0,5.4814,5.6973,5.8858,5.8242,0.0,0.0,0.0,0.0,0.0,0.0,0.0,6.5674,6.9509,7.3707,7.8361,8.0354,8.2494,8.5483,8.6608,8.7737,8.9436,0.0,9.0086,9.1236,9.0748,9.0603,9.1715,9.1024,9.029,9.0317,9.1136,9.1754,9.1813,9.1881,9.1543,9.0692,9.0383,9.0218,8.9687,8.7963,8.5991,8.4712,8.4661,8.5191,8.6001,8.6893,8.7879,8.4685,8.3445,7.7445,7.4752,7.4448,7.4448,7.441,7.441,7.4522,7.4101,7.3222,7.1827,7.0707,6.9941,7.0707,0.0,7.2543,7.5688,7.7564,7.8519,8.1077,8.23,8.2339,8.3252,8.3676,8.3713,8.448,8.4931,8.4963,8.4969,8.5008,8.4925,7.9761,7.7754,7.9215,8.3,8.6576,8.9764,9.4554,9.7445,9.8257,9.8151,9.8082,9.7967,9.4758,9.2623,9.1827,8.8614,8.5435,8.2467,7.8315,7.3053,6.6627,0.0,0.0,0.0,0.0,0.0,0.0,0.0,0.0,0.0,0.0,0.0,0.0,0.0,0.0,0.0,5.9311,0.0,6.2397,6.1704,0.0,0.0,0.0,6.118,6.3738,6.5576,6.8268,7.234,0.0,0.0,8.3401,0.0,8.7858,8.7963,8.8617,8.9701,9.1287,9.1595,9.2172,9.3782,9.3366,9.3485,9.4907,9.4023,9.3176,9.3284,9.3785,9.4275,9.4343,9.4356,9.4365,9.4094,9.4269,9.4143,9.4143,9.3717,9.276,8.8113,8.7958,8.8748,8.9487,9.0234,9.129,8.8969,8.7389,8.4619,8.1849,7.9334,7.9334,7.8955,7.8424,7.8511,7.8136,7.7417,7.6502,7.5656,7.4962,7.5153,7.6071,7.7638,7.9627,8.1041,8.1958,8.4441,8.5666,8.5705,8.6508,8.6965,8.704,8.7235,8.7389,8.754,8.8116,8.8423,8.8346,8.7041,8.5583,8.4202,8.624,8.8692,9.1414,9.5041,9.7929,9.9869,9.877,9.7815,9.7165,9.3879,9.1743,9.0987,8.7849,8.5475,8.4098,8.0098,7.537,6.9948,6.4897,0.0,0.0,0.0,0.0,0.0,0.0,0.0,0.0,0.0,4.9616,5.3028,0.0,5.8078,0.0,6.3449,6.5013,6.582,6.5153,0.0,0.0,6.5999,6.7282,6.9836,7.2195,7.4725,7.7636,8.0991,8.3939,8.6209,8.9286,9.1784,9.2969,9.2777,9.29,9.3943,9.4711,9.5441,9.6325,9.6404,9.6674,9.7597,9.7596,9.7211,9.7287,9.7094,9.6895,9.6916,9.6512,9.5941,9.5361,9.5168,9.4965,9.4356,9.4201,9.3891,9.2664,9.2577,9.2788,9.2971,9.3186,9.3698,9.1633,9.0027,8.9093,8.7173,8.4523,8.3351,8.2443,8.1726,8.2255,8.1862,8.0781,7.9931,7.9019,7.8369,7.9132,8.0009,8.1079,8.3104,8.425,8.4785,8.6543,8.7386,8.7387,8.7883,8.8148,8.8183,8.8915,8.9301,8.9496,9.0606,9.1181,9.122,9.1181,9.0451,8.9112,8.9265,9.0376,9.2526,9.5763,9.8304,9.9954,9.877,9.7356,9.5789,9.2847,9.0558,8.9073,8.6164,8.4136,8.2989,8.0064,7.6524,7.2283,6.7936,6.2897,0.0,0.0,0.0,0.0,0.0,0.0,0.0,0.0,0.0,0.0,0.0,6.1927,0.0,6.7448,6.8898,6.9321,6.9323,6.9733,7.0953,7.186,7.338,7.5899,7.84,8.0799,8.2967,8.5839,8.8329,9.0017,9.2518,9.467,9.5937,9.6399,9.6556,9.6674,9.7135,9.7673,9.8519,9.8673,9.8788,9.9326,9.9365,9.925,9.8865,9.8518,9.8282,9.8339,9.778,9.7131,9.6744,9.6358,9.5941,9.5477,9.5361,9.5361,9.5361,9.5352,9.5226,9.4839,9.4772,9.5129,9.3523,9.1965,9.1779,9.0852,8.9395,8.6889,8.53,8.4454,8.5395,8.5009,8.3578,8.2585,8.1801,8.1231,8.276,8.3601,8.3945,8.6237,8.7345,8.7498,8.8339,8.8721,8.8721,8.8759,8.8718,8.8829,9.0245,9.0941,9.1062,9.2546,9.3311,9.3357,9.3311,9.3268,9.3191,9.1862,9.1985,9.3676,9.6598,9.8486,9.9343,9.8426,9.6745,9.4299,9.1663,8.9106,8.6661,8.4212,8.2222,8.0767,7.9139,7.6847,7.3793,7.0629,6.6667,0.0,5.855,0.0,0.0,0.0,0.0,0.0,0.0,0.0,0.0,6.3374,6.587,6.8794,7.136,7.286,7.286,7.379,7.5077,7.6619,7.7746,7.9345,8.1753,8.4176,8.6257,8.7845,9.026,9.2371,9.3751,9.5558,9.7057,9.7787,9.9057,9.9673,9.9288,9.9096,9.9404,10.0173,10.025,10.0173,10.025,10.025,9.9981,9.9327,9.9096,9.9129,9.9243,9.8601,9.806,9.8128,9.7634,9.717,9.7131,9.7092,9.7092,9.7092,9.7092,9.6812,9.5961,9.5816,9.6358,9.5694,9.4105,9.2774,9.2072,9.1629,8.9999,8.8208,8.6474,8.6911,8.6486,8.5356,8.5437,8.546,8.5464,8.5892,8.6849,8.8186,8.9332,9.0249,9.0861,9.1739,9.2164,9.2168,9.2164,9.216,9.2155,9.2504,9.2618,9.2699,9.3688,9.4146,9.419,9.4146,9.4146,9.4146,0.0,0.0,0.0,9.7463,9.8525,9.9305,9.7891,9.5904,9.3382,9.0249,0.0,8.4978,8.249,8.0758,7.9812,7.8238,0.0,0.0,0.0,0.0,0.0,0.0,0.0,0.0,0.0,0.0,0.0,6.5943,6.6294,6.5166,6.8998,7.1842,7.2552,7.4822,7.6322,7.6361,7.8257,7.9895,8.0964,8.2925,8.4945,8.6757,8.8598,9.0142,9.1145,9.3445,9.5133,9.5557,9.7633,9.9211,9.9404,10.0366,10.0943,10.0827,10.0711,10.0865,10.1058,10.1019,10.1058,10.1096,10.1058,10.0943,10.0789,10.0288,10.0019,10.0017,9.9454,9.8996,9.9057,9.8941,9.8794,9.8786,9.8825,9.8747,9.8794,9.8786,9.836,9.6899,9.7131,9.7741,9.6878,0.0,9.4448,9.3712,0.0,9.2192,9.0957,8.9628,8.9286,8.8729,8.8103,8.8511,8.8562,8.839,8.8939,8.9672,9.0593,9.1434,9.2045,9.2465,9.2886,9.3115,9.312,9.3115,9.3115,9.311,9.3535,9.3726,9.3803,9.4605,9.5216,9.5637,9.5637,9.5828,9.621,9.621,9.6668,9.7509,9.8342,9.8762,9.8732,9.7929,9.5904,9.258,0.0,0.0,0.0,0.0,0.0,0.0,0.0,0.0,0.0,0.0,0.0,6.9683,6.874,6.796,6.7153,6.7449,6.8448,7.0131,7.2542,7.2919,7.042,7.3752,7.5909,7.5964,7.8192,7.9812,8.0273,8.1785,8.3387,8.5055,8.6655,8.8309,8.9994,9.1719,9.3098,9.3927,9.5495,9.6801,9.7661,9.8856,9.9977,10.0481,10.0943,10.1289,10.1289,10.1289,10.1289,10.1289,10.1289,10.1289,10.1289,10.1289,10.1289,10.125,10.1019,10.0827,10.0903,10.0312,9.9769,9.9878,9.9607,9.9305,9.9297,9.9297,9.9297,9.9305,9.9336,9.9065,9.8176,9.8399,9.8825,9.775,9.6832,9.6061,9.5254,9.4446,9.3823,9.3229,9.259,0.0,0.0,0.0,9.0977,9.0987,9.0654,9.1438,9.1909,9.2231,9.2957,9.3453,9.3721,9.3764,9.3841,9.3955,9.3994,9.3988,9.402,9.4561,9.4834,9.4872,9.5522,9.6172,9.6859,9.705,9.7547,9.8273,9.8311,9.8388,9.8579,9.9106,9.9067,9.8349,9.8044,9.6095,9.2351,9.0326,8.7577,8.3983,8.2185,8.0535,7.9023,7.8913,7.8573,7.7701,7.6968,7.5852,7.4204,7.353,7.31,7.2984,7.3168,7.4048,7.5831,7.7847,7.802,7.5749,7.7692,7.911,7.9248,8.1325,8.3055,8.3937,8.5036,8.6488,8.8535,8.9761,9.1004,9.2373,9.4064,9.5293,9.6043,9.6967,9.8089,9.9343,9.9769,10.0156,10.0937,10.1133,10.125,10.1289,10.1289,10.1289,10.1289,10.1289,10.1289,10.1289,10.1289,10.1289,10.1289,10.1289,10.1366,10.1404,10.1006,10.0627,10.0775,10.0195,9.9924,9.9808,9.9916,9.9762,9.9769,9.9769,9.9769,9.9762,9.9792,9.9947,9.9071,9.764,9.6869,9.6061,9.529,9.4632,9.4111,9.3541,9.1734,9.1062,9.113,9.1703,9.1976,9.2038,9.2395,9.2954,9.3678,9.3968,9.4853,0.0,9.6318,9.6751,9.7369,9.7401,9.7432,9.7311,9.6821,9.6554,9.6554,9.6668,9.6783,9.6974,9.7585,9.8388,9.9152,9.9236,9.958,10.0222,9.9678,9.9335,9.919,9.7815,9.6133,9.407,9.0975,8.8377,8.6352,8.4671,8.3027,8.1415,8.1336,8.0997,8.0163,8.0081,7.9305,7.7653,7.7418,7.7035,7.6383,7.6985,7.8421,8.07,8.1301,8.0735,7.9045,8.0455,8.1793,8.2556,8.4205,8.5624,8.6544,8.8459,8.98,9.0417,9.2362,9.3835,9.4103,9.5484,9.6592,9.6852,9.8189,9.9067,9.9465,10.0129,10.0633,10.094,10.1165,10.125,10.1289,10.1289,10.1289,10.1289,10.1289,10.1289,10.1289,10.1289,10.1289,10.1289,10.1289,10.1366,10.1558,10.1466,10.1394,10.1657,10.1464,10.1425,10.1425,10.1541,10.1386,10.1348,10.1348,10.1386,10.1309,10.1348,10.127,10.0246,9.9108,9.786,9.7126,9.6722,9.5663,9.4888,9.436,9.3694,9.3077,9.2645,9.2919,9.3569,9.4338,9.4478,9.5045,9.599,9.6077,9.6505,9.7229,9.7409,9.7616,9.7974,9.8044,9.8074,9.8074,9.7731,9.7547,9.7547,9.7547,9.7776,9.8273,9.9075,9.9649,10.0031,10.0031,10.0222,10.0566,10.026,9.984,9.9381,9.8655,9.7432,9.5789,9.3306,9.1243,8.9561,8.746,8.578,8.4519,8.406,8.3486,8.2645,8.2684,8.2147,8.0884,8.0879,8.0761,8.0417,8.0745,8.1815,8.3822,8.4022,8.4097,8.4213,8.406,8.4366,8.5207,8.6356,8.7619,8.8842,8.9994,9.1182,9.2598,9.3769,9.4752,9.5637,9.6369,9.7248,9.8113,9.8915,9.9564,9.9992,10.0421,10.0773,10.0956,10.1158,10.1289,10.1289,10.1289,10.1289,10.1289,10.1289,10.1289,10.1289,10.1289,10.1289,10.1289,10.1289,10.1404,10.1558,10.162,10.1703,10.185,10.1889,10.1889,10.1889,10.1889,10.1889,10.1889,10.1889,10.1889,10.1889,10.1889,10.1734,10.131,10.0429,9.9035,9.8227,9.7787,9.6803,9.5847,9.5106,9.5446,9.5027,9.4223,9.4355,9.514,9.6096,9.6279,9.6779,9.7477,9.7604,9.7768,9.7958,9.8105,9.8249,9.8418,9.8571,9.8647,9.8601,9.8456,9.8388,9.8388,9.8388,9.8846,9.9649,10.0298,10.0604,10.0557,10.0566,10.0519,10.051,10.051,10.0251,9.9687,9.9496,9.877,9.7471,9.5789,9.4185,9.2656,9.0631,8.8912,8.773,8.7003,8.6199,8.528,8.5167,8.4671,8.3715,8.3678,8.3715,8.3714,8.398,8.4709,8.6086,8.6237,8.6885,8.8298,8.7531,8.6961,8.7464,8.815,8.9256,9.0555,9.1326,9.2244,9.4152,9.4567,9.5293,9.6636,9.7057,9.77,9.9106,9.9564,9.9946,10.0413,10.0604,10.0727,10.0933,10.1161,10.125,10.1289,10.1289,10.1289,10.1289,10.1289,10.1289,10.1289,10.1289,10.1289,10.1289,10.1289,10.1404,10.1558,10.162,10.1664,10.185,10.1889,10.1889,10.1889,10.1889,10.1889,10.1889,10.1889,10.1889,10.1889,10.1889,10.1889,10.2155,10.1347,10.0393,9.9218,9.7933,9.7944,9.7099,9.5884,9.6058,9.5855,9.5425,9.5857,9.6239,9.6396,9.6837,9.7134,9.7264,9.74,9.7958,9.8732,9.8833,9.9297,9.9984,10.0118,10.0156,10.0099,9.9649,9.9419,9.9419,9.9381,9.9725,10.0413,10.0566,10.0595,10.0462,10.0481,10.0395,10.0227,10.0227,10.0326,10.0451,9.9763,9.9305,9.919,9.7547,9.621,9.5293,9.4299,9.2656,9.0517,9.0135,8.9367,8.7951,8.7725,8.7001,8.5435,8.5282,8.5283,8.5361,8.6011,8.6853,8.7731,8.7877,8.86,9.0203,9.0241,8.9821,8.9485,8.9905,9.0784,9.1663,9.3005,9.3961,9.4381,9.5102,9.5866,9.6828,9.754,9.8372,9.9297,9.9984,10.0527,10.0566,10.0604,10.0734,10.1105,10.136,10.152,10.1597,10.1481,10.1443,10.1366,10.1327,10.1289,10.1289,10.1289,10.1289,10.1289,10.1289,10.1404,10.152,10.1585,10.1657,10.185,10.1889,10.1889,10.1889,10.1889,10.1889,10.1889,10.1889,10.1889,10.1889,10.1889,10.1889,10.2925,10.2081,10.0833,9.9659,9.8668,9.8672,9.8382,9.7946,9.8208,9.8207,9.8197,9.8687,9.8226,9.714,9.7282,9.778,9.8592,9.9157,9.9683,10.0207,10.0769,10.1254,10.1547,10.1674,10.1763,10.1775,10.147,10.1356,10.1356,10.1356,10.1508,10.1737,10.1394,10.1077,10.1039,10.0555,10.0239,10.0177,10.0176,10.0265,10.0326,10.0021,9.9869,9.9803,9.8821,9.8143,9.7608,9.605,9.4567,9.3573,9.2623,9.1323,8.9672,8.96,8.8797,8.7231,8.704,8.704,8.7042,8.7387,8.8152,8.9488,8.96,9.0322,9.1888,9.2073,9.1882,9.1701,9.1892,9.2427,9.3229,9.3999,9.4572,9.5107,9.5872,9.6675,9.7522,9.8388,9.922,9.9946,10.0413,10.0604,10.0604,10.0718,10.1124,10.1652,10.1977,10.2135,10.2674,10.2444,10.2058,10.1981,10.1673,10.1327,10.1289,10.1289,10.1289,10.1289,10.1289,10.1366,10.152,10.162,10.1657,10.185,10.1889,10.1889,10.1889,10.1889,10.1889,10.1889,10.1889,10.1889,10.1889,10.1889,10.1889,10.377,10.2852,10.131,10.0172,9.9438,9.9438,9.937,9.9342,9.9526,9.9756,9.9908,10.0312,9.973,9.8541,9.8542,9.9224,10.0122,10.0842,10.122,10.1464,10.2142,10.2462,10.2446,10.257,10.2623,10.2646,10.2637,10.2689,10.2727,10.2727,10.2727,10.2613,10.2118,10.18,10.1724,10.0938,10.052,10.0456,10.0245,10.0207,10.0404,10.0456,10.0393,10.0177,9.9744,9.9373,9.9155,9.7532,9.6241,9.5598,9.4419,9.3043,9.1391,9.109,9.0173,8.8683,8.8683,8.8759,8.88,8.922,8.9985,9.109,9.1281,9.1888,9.3071,9.3453,9.3568,9.3764,9.3803,9.4032,9.4261,9.4605,9.5107,9.5828,9.656,9.7248,9.8318,9.9075,9.9678,10.0451,10.0566,10.0604,10.0688,10.0887,10.1367,10.2155,10.2515,10.2904,10.352,10.3135,10.2558,10.2597,10.1866,10.1366,10.1289,10.1289,10.1289,10.1327,10.1327,10.1443,10.1597,10.1581,10.1696,10.185,10.1889,10.1889,10.1889,10.1889,10.1889,10.1889,10.1889,10.1889,10.1889,10.1889,10.1889,10.4577,10.3623,10.2081,10.0943,10.0246,10.0246,9.9805,9.9297,9.9438,9.9563,9.9871,10.0056,10.02,10.0432,10.0826,10.1221,10.1506,10.1783,10.2091,10.226,10.2374,10.2336,10.2298,10.2462,10.256,10.2753,10.282,10.2866,10.2789,10.2751,10.2727,10.2713,10.2675,10.2585,10.238,10.1648,10.1178,10.1026,10.0403,10.0251,10.0988,10.1102,10.083,10.0355,10.0177,9.9923,9.9335,9.9117,9.7982,9.5713,9.5522,9.472,9.3142,9.2236,9.1017,8.9638,9.0058,9.052,9.0676,9.1785,9.2741,9.2933,9.2881,9.3333,9.4179,9.4408,9.4714,9.5407,9.5446,9.5293,9.4834,9.5255,9.5948,9.6713,9.6904,9.7745,9.9106,9.9373,9.9755,10.0413,10.0604,10.0696,10.0825,10.099,10.1537,10.2198,10.255,10.2978,10.3555,10.317,10.2788,10.2443,10.1904,10.1289,10.1289,10.1289,10.1289,10.1327,10.1404,10.1481,10.1595,10.1662,10.1755,10.185,10.1889,10.1889,10.1889,10.1889,10.1889,10.1889,10.1889,10.1889,10.1889,10.1889,10.1889,10.4357,10.3036,10.1934,10.131,10.1053,10.1053,10.087,10.0613,10.0833,10.095,10.1076,10.1348,10.1611,10.1757,10.2185,10.1995,10.1521,10.2184,10.2651,10.2961,10.3568,10.389,10.389,10.3946,10.3984,10.3965,10.404,10.4057,10.4057,10.4057,10.4057,10.3981,10.3525,10.3205,10.3053,10.2387,10.1915,10.1843,10.154,10.154,10.1805,10.1843,10.1746,10.1589,10.1658,10.1382,10.0684,10.025,9.9355,9.8074,9.7012,9.5904,9.4714,9.3382,9.2389,9.1854,9.2007,9.2198,9.2279,9.2776,9.3349,9.3803,9.3912,9.4332,9.5057,9.5668,9.6127,9.6439,9.6936,9.7012,9.6821,9.663,9.6745,9.756,9.8165,9.8693,9.9297,9.9831,10.0298,10.0527,10.065,10.0787,10.1,10.1158,10.1584,10.2361,10.3055,10.3478,10.3747,10.3593,10.317,10.2597,10.1866,10.1289,10.1289,10.1289,10.1327,10.1327,10.1366,10.1481,10.1555,10.1654,10.1742,10.185,10.1889,10.1889,10.1889,10.1889,10.1889,10.1889,10.1889,10.1889,10.1889,10.1889,10.1889,10.4467,10.3403,10.2301,10.1861,10.1861,10.1604,10.1494,10.1494,10.1604,10.1795,10.1875,10.2079,10.2313,10.2426,10.2684,10.2483,10.1987,10.2761,10.3338,10.3676,10.4419,10.4704,10.4723,10.4799,10.4799,10.4799,10.4799,10.4799,10.4799,10.4799,10.4799,10.4723,10.4231,10.3965,10.3852,10.3132,10.2753,10.2677,10.2449,10.2411,10.2677,10.2715,10.2866,10.3056,10.3205,10.2782,10.1862,10.1141,10.0451,9.9678,9.8426,9.705,9.5675,9.4529,9.365,9.3229,9.3344,9.3497,9.3535,9.3726,9.4299,9.5064,9.5216,9.556,9.6363,9.6929,9.7234,9.7432,9.7738,9.8158,9.8349,9.8044,9.7929,9.8516,9.9083,9.9488,9.9793,10.0298,10.0612,10.0742,10.0831,10.1,10.1126,10.1203,10.1669,10.2481,10.3174,10.3518,10.3824,10.3634,10.3326,10.2635,10.1866,10.1404,10.1289,10.1289,10.1289,10.1327,10.1443,10.1519,10.1588,10.1683,10.1773,10.185,10.1889,10.1889,10.1889,10.1889,10.1889,10.1889,10.1889,10.1889,10.1889,10.1889,10.1889,10.5091,10.4761,10.3403,10.2742,10.2632,10.2008,10.1604,10.1677,10.1641,10.1861,10.2089,10.1954,10.2341,10.2499,10.2722,10.2722,10.3117,10.356,10.3877,10.4153,10.4411,10.455,10.461,10.4723,10.4761,10.4799,10.4799,10.4799,10.4799,10.4799,10.4799,10.4799,10.4723,10.4648,10.4723,10.4003,10.3568,10.3473,10.2942,10.2904,10.3473,10.3586,10.389,10.4534,10.461,10.4002,10.263,10.1938,10.123,10.0481,9.9717,9.8189,9.621,9.5675,9.4949,9.3917,9.4108,9.4452,9.4529,9.5178,9.5987,9.6598,9.6828,9.705,9.7662,9.8006,9.812,9.8158,9.8311,9.8579,9.9266,9.9343,9.9266,9.9427,9.9542,9.9801,10.0375,10.068,10.0849,10.0957,10.1085,10.1167,10.1247,10.1248,10.1596,10.2212,10.2635,10.2904,10.3365,10.3057,10.2751,10.2444,10.1827,10.1366,10.1289,10.1289,10.1327,10.1327,10.1481,10.1597,10.1627,10.1722,10.1819,10.1889,10.1889,10.1889,10.1889,10.1889,10.1889,10.1889,10.1889,10.1889,10.1889,10.1889,10.1889,10.5128,10.4981,10.399,10.3513,10.3513,10.3219,10.3154,10.3125,10.3154,10.3182,10.3301,10.3426,10.3628,10.3863,10.4054,10.4319,10.4685,10.4339,10.4017,10.4028,10.418,10.4373,10.459,10.4648,10.4723,10.4761,10.4799,10.4799,10.4799,10.4799,10.4799,10.4799,10.4799,10.4799,10.4799,10.4534,10.442,10.4382,10.4155,10.4193,10.442,10.442,10.4534,10.4761,10.4799,10.4553,10.406,10.3466,10.2512,10.133,10.0527,9.922,9.7731,9.7311,9.7089,9.6668,9.6783,9.6936,9.6936,9.7089,9.7363,9.763,9.7738,9.7845,9.8105,9.8686,9.8953,9.9075,9.9458,9.9992,10.0145,10.0222,10.0183,10.0222,10.0222,10.0298,10.0658,10.0837,10.0973,10.1131,10.1208,10.1208,10.1248,10.1289,10.1443,10.175,10.2174,10.2597,10.2251,10.2481,10.229,10.1789,10.1443,10.1289,10.1289,10.1289,10.1366,10.1404,10.152,10.1597,10.1665,10.176,10.1858,10.1889,10.1889,10.1889,10.1889,10.1889,10.1889,10.1889,10.1889,10.1889,10.1889,10.1889,10.1889,10.5862,10.5532,10.4687,10.4357,10.432,10.4027,10.3925,10.3934,10.3925,10.3917,10.3917,10.4044,10.4206,10.4403,10.4561,10.4794,10.5024,10.4616,10.4387,10.421,10.4011,10.4104,10.4297,10.4513,10.4666,10.4799,10.4799,10.4799,10.4799,10.4799,10.4799,10.4799,10.4799,10.4799,10.4799,10.4799,10.4799,10.4799,10.4761,10.4799,10.4799,10.4799,10.4799,10.4799,10.4799,10.4799,10.4761,10.4381,10.3535,10.2168,10.1053,9.9869,9.8715,9.8571,9.8464,9.8158,9.8082,9.8044,9.8082,9.7967,9.828,9.8471,9.8579,9.8715,9.9021,9.964,9.984,9.9916,10.026,10.0604,10.0566,10.065,10.0688,10.068,10.0642,10.0773,10.0908,10.1011,10.1096,10.1211,10.125,10.1288,10.125,10.1289,10.1289,10.1404,10.175,10.202,10.1558,10.1789,10.1597,10.1443,10.1366,10.1289,10.1289,10.1366,10.1366,10.1481,10.1593,10.1632,10.1701,10.1832,10.1889,10.1889,10.1889,10.1889,10.1889,10.1889,10.1889,10.1889,10.2044,10.1889,10.1889,10.1889,10.1966,10.7147,10.6376,10.5532,10.5165,10.5091,10.4467,10.4247,10.4091,10.4173,10.4247,10.4164,10.4284,10.4338,10.4427,10.4691,10.4851,10.4672,10.4982,10.506,10.4948,10.4441,10.4086,10.3952,10.4388,10.4664,10.4761,10.4799,10.4799,10.4799,10.4799,10.4799,10.4799,10.4799,10.4799,10.4799,10.4799,10.4799,10.4799,10.4799,10.4799,10.4799,10.4799,10.4799,10.4799,10.4799,10.4799,10.4761,10.4629,10.4019,10.2803,10.1568,10.068,9.9831,9.961,9.9266,9.8693,9.8349,9.8388,9.8349,9.8541,9.8732,9.9389,9.9496,9.9755,10.0298,10.0375,10.0451,10.0451,10.0566,10.0604,10.065,10.0696,10.078,10.0803,10.0849,10.0952,10.1171,10.1173,10.125,10.1289,10.1289,10.1289,10.1289,10.1289,10.1289,10.1327,10.1404,10.1404,10.1366,10.1443,10.1366,10.1289,10.1289,10.1289,10.1289,10.1365,10.1441,10.1516,10.1665,10.1701,10.1736,10.1832,10.1889,10.1889,10.1966,10.1966,10.2082,10.2199,10.2392,10.2624,10.2508,10.2082,10.216,10.2431,10.2585,10.7477,10.7183,10.6376,10.6046,10.6046,10.5789,10.5715,10.5752,10.5715,10.5642,10.5715,10.5752,10.5725,10.601,10.5973,10.6129,10.6149,10.5942,10.5797,10.5728,10.5356,10.451,10.4076,10.4327,10.4626,10.4686,10.4761,10.4799,10.4799,10.4799,10.4799,10.4799,10.4799,10.4799,10.4799,10.4799,10.4799,10.4799,10.4799,10.4799,10.4799,10.4799,10.4799,10.4799,10.4799,10.4799,10.478,10.4416,10.4121,10.3731,10.2942,10.2438,10.2056,10.1521,10.1024,10.0795,10.026,9.9954,9.9954,9.9954,10.0069,10.0222,10.0375,10.0375,10.0527,10.0604,10.0604,10.0604,10.0604,10.065,10.0696,10.0787,10.0863,10.1028,10.1081,10.1091,10.1211,10.125,10.1289,10.1289,10.1289,10.1289,10.1289,10.1289,10.1289,10.1289,10.1289,10.1289,10.1289,10.1289,10.1289,10.1289,10.1289,10.1289,10.1328,10.1402,10.1475,10.1588,10.1662,10.177,10.1837,10.1896,10.1889,10.1889,10.2121,10.2199,10.2585,10.2926,10.3127,10.332,10.3436,10.332,10.3584,10.3816,10.3777,10.7881,10.7514,10.6706,10.6376,10.6376,10.6376,10.6376,10.6376,10.6376,10.6376,10.6376,10.6376,10.646,10.6544,10.6507,10.6627,10.6681,10.6438,10.6413,10.6386,10.614,10.5343,10.465,10.4818,10.487,10.4648,10.4761,10.4799,10.4799,10.4799,10.4799,10.4799,10.4799,10.4799,10.4799,10.4799,10.4799,10.4799,10.4799,10.4799,10.4799,10.4799,10.4799,10.4799,10.4799,10.4799,10.478,10.4584,10.4364,10.3997,10.3514,10.3202,10.3154,10.2782,10.2438,10.24,10.1941,10.1712,10.1674,10.1712,10.1674,10.1721,10.1682,10.1682,10.1721,10.1674,10.1635,10.1215,10.1224,10.104,10.0863,10.0908,10.1077,10.1165,10.1248,10.125,10.125,10.1289,10.1289,10.1289,10.1289,10.1289,10.1289,10.1289,10.1289,10.1289,10.1289,10.1289,10.1289,10.1289,10.1289,10.1289,10.1289,10.1289,10.1328,10.1439,10.1662,10.1774,10.2306,10.2334,10.2174,10.216,10.2044,10.2121,10.2315,10.2592,10.3127,10.3552,10.3823,10.4023,10.4326,10.4474,10.4551,10.4783,10.4783,10.8431,10.7624,10.6853,10.6486,10.6413,10.6376,10.6376,10.6376,10.6376,10.6376,10.6376,10.6376,10.6376,10.6376,10.646,10.6376,10.646,10.6636,10.6763,10.6862,10.6771,10.6277,10.535,10.5284,10.5105,10.4836,10.4818,10.4931,10.5045,10.5103,10.514,10.5272,10.5197,10.4969,10.4987,10.4931,10.4856,10.4742,10.4742,10.4742,10.4742,10.4799,10.4799,10.4799,10.4799,10.4856,10.4912,10.4964,10.4897,10.4197,10.3705,10.365,10.3525,10.3459,10.3317,10.324,10.3087,10.2973,10.3087,10.2935,10.3097,10.2982,10.3029,10.322,10.2982,10.2896,10.2667,10.2111,10.2157,10.182,10.1296,10.1268,10.1318,10.1325,10.1289,10.1289,10.1289,10.1289,10.1289,10.1289,10.1289,10.1289,10.1289,10.1289,10.1289,10.1289,10.1289,10.1289,10.1289,10.1289,10.1289,10.1289,10.1289,10.1327,10.1366,10.1439,10.1739,10.2002,10.2914,10.3172,10.2824,10.2701,10.2431,10.2469,10.305,10.3475,10.3823,10.4171,10.4487,10.4913,10.537,10.51,10.4868,10.5293,10.5448,10.9276,10.8468,10.7661,10.6963,10.6449,10.6376,10.6413,10.6449,10.6413,10.6486,10.6413,10.6413,10.6413,10.6376,10.6376,10.6376,10.6376,10.6627,10.6837,10.7279,10.7553,10.7182,10.6283,10.5688,10.5171,10.5181,10.5475,10.5572,10.5686,10.6199,10.6674,10.6518,10.6269,10.6193,10.5506,10.5393,10.509,10.4562,10.4643,10.4777,10.4836,10.4894,10.4951,10.4875,10.4875,10.4856,10.4968,10.5094,10.5201,10.514,10.5117,10.496,10.4834,10.4463,10.4157,10.4043,10.3584,10.3278,10.324,10.3355,10.324,10.3403,10.3441,10.3202,10.323,10.3307,10.325,10.2961,10.3052,10.2752,10.2198,10.2207,10.2057,10.1673,10.1481,10.1404,10.1327,10.1327,10.1289,10.1289,10.1289,10.1289,10.1289,10.1289,10.1289,10.1289,10.1289,10.1289,10.1289,10.1289,10.1289,10.1289,10.1327,10.1404,10.1516,10.1781,10.2388,10.2842,10.3714,10.4326,10.3978,10.3784,10.3746,10.3823,10.4017,10.4365,10.4597,10.51,10.5493,10.5951,10.626,10.6105,10.5951,10.6144,10.6144,10.9753,10.9276,10.8468,10.7918,10.7551,10.7514,10.7514,10.7551,10.7514,10.7294,10.7,10.6926,10.6743,10.6413,10.6376,10.6376,10.646,10.6627,10.6874,10.7158,10.7434,10.7514,10.7218,10.632,10.58,10.5849,10.6001,10.6138,10.6413,10.6776,10.6927,10.6941,10.6918,10.6553,10.6252,10.6076,10.5912,10.5634,10.5582,10.568,10.5664,10.5761,10.5651,10.5482,10.5368,10.5311,10.5061,10.5148,10.5315,10.5483,10.5651,10.5724,10.5647,10.5265,10.5036,10.4921,10.4692,10.4386,10.4386,10.4386,10.4425,10.431,10.4348,10.4425,10.4463,10.4473,10.4262,10.4093,10.3947,10.3809,10.3168,10.3174,10.2905,10.2713,10.252,10.2367,10.1943,10.1558,10.1289,10.1289,10.1289,10.1289,10.1289,10.1289,10.1289,10.1289,10.1289,10.1289,10.1289,10.1289,10.1289,10.1327,10.1366,10.1481,10.1591,10.216,10.319,10.3874,10.4752,10.537,10.5564,10.5409,10.5325,10.51,10.4797,10.5067,10.537,10.5918,10.6299,10.6531,10.6724,10.6918,10.6918,10.6647,10.6608,11.0083,10.9936,10.9239,10.8909,10.8799,10.8762,10.8688,10.8725,10.8799,10.8285,10.7881,10.7771,10.7367,10.6743,10.6633,10.6559,10.6497,10.6627,10.6874,10.7079,10.7279,10.7472,10.7439,10.707,10.6728,10.655,10.6593,10.6649,10.6816,10.7031,10.737,10.708,10.6978,10.6913,10.6827,10.6649,10.6424,10.6277,10.6315,10.6491,10.6578,10.6776,10.6691,10.6391,10.5974,10.5823,10.5496,10.549,10.5506,10.5725,10.5968,10.6056,10.6029,10.5762,10.5686,10.5686,10.5495,10.5418,10.538,10.5495,10.5533,10.5686,10.5647,10.5724,10.5773,10.5656,10.541,10.5224,10.5004,10.482,10.4212,10.4059,10.3983,10.379,10.379,10.3521,10.2866,10.202,10.1635,10.1289,10.1289,10.1289,10.1289,10.1289,10.1289,10.1289,10.1289,10.1289,10.1289,10.1327,10.1327,10.1366,10.1443,10.1865,10.2083,10.277,10.3759,10.4719,10.5635,10.6105,10.6608,10.6415,10.6067,10.568,10.5493,10.5763,10.6067,10.6415,10.6724,10.6956,10.6995,10.6995,10.6995,10.6995,10.6995,11.0597,10.9973,10.9826,10.9423,10.8872,10.8835,10.8909,10.8799,10.8945,10.8762,10.8615,10.8578,10.8138,10.7551,10.7367,10.7037,10.6607,10.6627,10.6755,10.6998,10.72,10.7431,10.7588,10.7515,10.7405,10.7516,10.7282,10.7074,10.7398,10.7916,10.7991,10.8186,10.808,10.7749,10.7193,10.6866,10.6668,10.646,10.6556,10.6659,10.679,10.7044,10.7275,10.7053,10.6656,10.6373,10.6273,10.6267,10.6373,10.6706,10.7405,10.7672,10.7405,10.6488,10.5953,10.5915,10.5953,10.6029,10.5991,10.58,10.5724,10.5724,10.58,10.5838,10.5945,10.5946,10.5892,10.5976,10.5899,10.5749,10.4982,10.4905,10.4559,10.4212,10.4059,10.398,10.3595,10.302,10.2212,10.1789,10.1558,10.1289,10.1289,10.1289,10.1289,10.1289,10.1289,10.1289,10.1289,10.1327,10.1366,10.1443,10.1481,10.2092,10.2649,10.3527,10.4448,10.537,10.6144,10.6492,10.6879,10.6918,10.6686,10.626,10.626,10.6531,10.6763,10.6918,10.6918,10.6995,10.6995,10.6995,10.6995,10.6995,10.6995,11.0964,11.0634,11.0634,11.0414,11.0083,11.0047,11.0047,11.0047,11.0047,10.9826,10.9533,10.9386,10.8945,10.8285,10.7697,10.7147,10.6644,10.646,10.6673,10.6998,10.7158,10.7316,10.7511,10.7625,10.7662,10.7664,10.7516,10.7475,10.7764,10.8134,10.8396,10.8325,10.8291,10.7995,10.7733,10.7512,10.7251,10.6983,10.7123,10.7299,10.7466,10.7962,10.8099,10.7729,10.7566,10.736,10.7164,10.718,10.7302,10.7584,10.794,10.8169,10.7966,10.7634,10.7023,10.6985,10.6946,10.6946,10.687,10.6641,10.6373,10.6373,10.6144,10.5983,10.6016,10.6126,10.6174,10.629,10.6328,10.6251,10.5828,10.5751,10.5597,10.5328,10.5133,10.4903,10.4557,10.4095,10.3405,10.2558,10.1943,10.1597,10.1289,10.1289,10.1289,10.1289,10.1289,10.1327,10.1327,10.1366,10.1443,10.1558,10.171,10.2508,10.3217,10.4062,10.5022,10.5951,10.6492,10.684,10.6995,10.6995,10.6995,10.6802,10.6956,10.6995,10.6995,10.6956,10.6995,10.6995,10.6995,10.6995,10.6995,10.6995,10.6995,11.1221,11.1221,11.1221,11.1221,11.1221,11.1221,11.1184,11.1221,11.1148,11.0781,11.0304,11.0157,10.9679,10.8725,10.7771,10.6963,10.6376,10.6376,10.6627,10.6918,10.6998,10.7237,10.7397,10.7511,10.7549,10.7394,10.7397,10.7701,10.7814,10.7963,10.7963,10.7889,10.7815,10.7815,10.7852,10.7777,10.7963,10.8036,10.8109,10.8288,10.8667,10.8935,10.9069,10.8576,10.8606,10.8385,10.8039,10.8072,10.8231,10.8424,10.8666,10.8819,10.873,10.8692,10.8704,10.8666,10.8398,10.8207,10.7978,10.7634,10.7187,10.6958,10.6575,10.6315,10.6161,10.621,10.629,10.6367,10.6405,10.6405,10.629,10.6367,10.6367,10.629,10.6213,10.6136,10.5518,10.5018,10.4557,10.3634,10.2558,10.202,10.1904,10.1289,10.1289,10.1327,10.1366,10.1366,10.1404,10.1481,10.1558,10.1668,10.2044,10.2914,10.3675,10.4448,10.5448,10.6492,10.6763,10.6956,10.6995,10.6995,10.6995,10.6995,10.6995,10.6995,10.6995,10.6995,10.6995,10.6995,10.6995,10.6995,10.6995,10.6995,10.6995,11.1221,11.1221,11.1221,11.1221,11.1221,11.1221,11.1221,11.1221,11.1221,11.1184,11.0964,11.0964,11.0157,10.8762,10.7257,10.6596,10.6413,10.6376,10.6627,10.6998,10.6998,10.7163,10.7363,10.732,10.7237,10.7195,10.7158,10.7237,10.7394,10.7472,10.7394,10.7279,10.7357,10.7357,10.7434,10.7511,10.7625,10.7664,10.7815,10.8182,10.8674,10.8944,10.9131,10.9219,10.9065,10.8916,10.8893,10.8964,10.9123,10.9315,10.9965,11.0309,11.0423,11.0423,11.0385,10.9965,10.9201,10.8207,10.836,10.8295,10.7951,10.7657,10.7263,10.6936,10.6587,10.6367,10.6367,10.6405,10.6405,10.6405,10.6405,10.6405,10.6405,10.6405,10.6367,10.6367,10.6097,10.5672,10.5249,10.4905,10.3867,10.3174,10.2789,10.1981,10.1327,10.1366,10.1404,10.1443,10.1481,10.1558,10.1633,10.1736,10.234,10.3172,10.4017,10.4758,10.5719,10.684,10.6956,10.6995,10.6995,10.6995,10.6995,10.6995,10.6995,10.6995,10.6995,10.6995,10.6995,10.6995,10.6995,10.6995,10.6995,10.6995,10.6995,11.1221,11.1221,11.1221,11.1221,11.1221,11.1221,11.1221,11.1221,11.1221,11.1221,11.1221,11.1221,11.0304,10.8762,10.7514,10.6816,10.6486,10.6376,10.659,10.6918,10.7042,10.7126,10.7286,10.732,10.7195,10.7021,10.7029,10.6998,10.6998,10.7079,10.7079,10.6998,10.7079,10.7158,10.7158,10.7237,10.7246,10.7363,10.7553,10.7963,10.8396,10.881,10.9141,10.9435,10.9445,10.9562,10.9693,10.9894,10.9962,11.0194,11.0576,11.0691,11.0691,11.0653,11.0653,11.0614,11.0181,10.976,10.9722,10.9328,10.8919,10.8662,10.8366,10.781,10.7206,10.6674,10.6444,10.6405,10.6405,10.6405,10.6405,10.6405,10.6405,10.6405,10.6405,10.6405,10.6367,10.6213,10.5828,10.5522,10.5216,10.4523,10.3791,10.2944,10.229,10.2136,10.1905,10.1595,10.1588,10.1611,10.1683,10.1826,10.2554,10.3398,10.4249,10.5029,10.5873,10.6763,10.6956,10.6995,10.6995,10.6995,10.6995,10.6995,10.6995,10.6995,10.6995,10.6995,10.6995,10.6995,10.6995,10.6995,10.6995,10.6995,10.6995,11.1038,11.1221,11.1221,11.1221,11.1221,11.1221,11.1221,11.1221,11.1221,11.1221,11.1074,11.0781,10.9863,10.8762,10.7697,10.6816,10.6413,10.6376,10.659,10.6918,10.7042,10.7089,10.7172,10.7205,10.7065,10.6901,10.682,10.6792,10.6673,10.6755,10.6837,10.6837,10.6918,10.6918,10.6918,10.6998,10.7126,10.7175,10.7363,10.7777,10.8254,10.8674,10.901,10.9397,10.9764,11.0151,11.0301,11.0428,11.0549,11.0653,11.0653,11.0691,11.0691,11.0691,11.0691,11.0704,11.0563,11.0662,11.0586,11.0356,11.005,10.9716,10.9236,10.8331,10.771,10.7021,10.6521,10.6444,10.6405,10.6405,10.6405,10.6405,10.6405,10.6405,10.6405,10.6405,10.6367,10.6251,10.6215,10.6064,10.5871,10.5756,10.4985,10.4061,10.3406,10.306,10.252,10.1974,10.1843,10.1858,10.2082,10.2237,10.3081,10.3971,10.4752,10.5493,10.626,10.6686,10.6918,10.6995,10.6995,10.6995,10.6995,10.6995,10.6995,10.6995,10.6995,10.6995,10.6995,10.6995,10.6995,10.6995,10.6995,10.6995,10.6995,11.0524,11.1221,11.1184,11.1221,11.1221,11.1221,11.1221,11.1221,11.1221,11.1184,11.0891,10.9739,10.9042,10.8431,10.7294,10.6523,10.6376,10.6376,10.6673,10.6918,10.7042,10.7052,10.7135,10.7052,10.6837,10.6617,10.6627,10.6544,10.646,10.6544,10.6544,10.646,10.671,10.671,10.6792,10.6837,10.7042,10.7131,10.7286,10.7628,10.8144,10.8605,10.8944,10.9334,10.9862,11.0301,11.0301,11.0573,11.0639,11.0691,11.0691,11.0691,11.0691,11.0691,11.0691,11.0742,11.0843,11.0941,11.0913,11.0961,11.0731,11.0049,10.9374,10.8778,10.8213,10.7793,10.7213,10.6597,10.6521,10.6405,10.6405,10.6405,10.6405,10.6405,10.6405,10.6405,10.6405,10.6405,10.6409,10.6449,10.6408,10.629,10.6213,10.5289,10.4522,10.4099,10.3437,10.2808,10.2411,10.2392,10.2624,10.3003,10.3739,10.4551,10.5448,10.6144,10.6647,10.6802,10.6956,10.6995,10.6995,10.6995,10.6995,10.6995,10.6995,10.6995,10.6995,10.6995,10.6995,10.6995,10.6995,10.6995,10.6995,10.6995,10.6995,11.0157,11.0487,11.1001,11.1221,11.1221,11.1221,11.1221,11.1221,11.1221,11.0891,11.0414,10.9299,10.8492,10.7881,10.7037,10.6376,10.6376,10.6544,10.6755,10.6998,10.7084,10.7131,10.7172,10.7131,10.7079,10.6837,10.6755,10.6755,10.6792,10.6701,10.6627,10.6627,10.6654,10.6544,10.6544,10.6627,10.6837,10.7047,10.7212,10.7442,10.8144,10.8536,10.8877,10.9308,10.9921,11.0246,11.0357,11.0573,11.0639,11.0691,11.0691,11.0691,11.0691,11.0691,11.0691,11.0742,11.0892,11.0989,11.1123,11.12,11.1132,11.0923,11.0205,10.9517,10.8983,10.8367,10.7713,10.7175,10.6751,10.6636,10.6444,10.6405,10.6405,10.6405,10.6405,10.6444,10.6405,10.6446,10.6526,10.6562,10.6632,10.6589,10.6589,10.6473,10.5788,10.5175,10.443,10.3714,10.3282,10.3011,10.3313,10.3661,10.4319,10.4938,10.5757,10.6415,10.6956,10.6995,10.6995,10.6995,10.6995,10.6995,10.6995,10.6995,10.6995,10.6995,10.6995,10.6995,10.6995,10.6995,10.6995,10.6995,10.6995,10.6995,10.6995,10.9569,11.0047,11.0597,11.1001,11.1184,11.1221,11.1221,11.1221,11.1221,11.0744,10.9936,10.9166,10.8358,10.7551,10.678,10.6376,10.646,10.6627,10.6755,10.6998,10.72,10.7283,10.7286,10.7246,10.7163,10.7047,10.6962,10.6998,10.6918,10.7095,10.7197,10.7105,10.7132,10.7132,10.6376,10.6376,10.6627,10.6888,10.706,10.7405,10.8144,10.8536,10.884,10.9334,10.9921,11.0246,11.0357,11.0535,11.0691,11.0691,11.0691,11.0691,11.0691,11.0691,11.0691,11.0793,11.0941,11.1085,11.1123,11.1255,11.1423,11.1286,11.0978,11.0479,10.994,10.9098,10.8636,10.8021,10.7482,10.7059,10.6905,10.6905,10.6636,10.6597,10.6482,10.6444,10.6486,10.6526,10.6602,10.6709,10.674,10.6807,10.6846,10.6735,10.6276,10.5705,10.5199,10.4526,10.3984,10.3862,10.4048,10.4403,10.4868,10.5448,10.5957,10.6531,10.6995,10.6995,10.6995,10.6995,10.6995,10.6995,10.6995,10.6995,10.6995,10.6995,10.6995,10.6995,10.6995,10.6995,10.6995,10.6995,10.6995,10.6995,10.6995,10.8542,10.9936,11.001,11.0487,11.1111,11.1221,11.1221,11.1221,11.1221,11.0707,10.9826,10.9081,10.8309,10.7525,10.6633,10.6413,10.646,10.6627,10.6837,10.7079,10.7316,10.736,10.7323,10.7323,10.7283,10.7023,10.7094,10.7158,10.7079,10.7626,10.7877,10.8045,10.8099,10.7941,10.6523,10.6376,10.6627,10.6962,10.7023,10.7479,10.8107,10.8536,10.884,10.9334,10.9921,11.0301,11.0357,11.0535,11.0691,11.0691,11.0691,11.0691,11.0691,11.0691,11.0691,11.0742,11.0941,11.1123,11.117,11.139,11.1478,11.1522,11.1252,11.1017,11.044,10.9979,10.9594,10.8944,10.8598,10.8252,10.7944,10.7598,10.7213,10.7021,10.6944,10.6756,10.6873,10.6602,10.6709,10.6817,10.6813,10.6879,10.6918,10.6879,10.6459,10.6111,10.5802,10.5377,10.4874,10.4642,10.479,10.5138,10.5525,10.5835,10.6338,10.6686,10.6995,10.6995,10.6995,10.6995,10.6995,10.6995,10.6995,10.6995,10.6995,10.6995,10.6995,10.6995,10.6995,10.6995,10.6995,10.6995,10.6995,10.6995,10.6995,10.7918,10.8468,10.9533,11.0157,11.045,11.1001,11.1221,11.1221,11.1111,11.045,10.9399,10.8823,10.7978,10.7085,10.6633,10.646,10.6627,10.6837,10.6998,10.7237,10.7394,10.7511,10.7474,10.7474,10.7474,10.74,10.7434,10.7394,10.7357,10.8205,10.8261,10.832,10.8724,10.826,10.7294,10.6864,10.6627,10.6925,10.706,10.7368,10.8182,10.8574,10.9019,10.9383,10.9997,11.034,11.0301,11.0535,11.0691,11.0691,11.0691,11.0691,11.0691,11.0691,11.0691,11.0742,11.0941,11.1216,11.1307,11.1478,11.1522,11.1522,11.1483,11.1368,11.1055,11.044,11.0056,10.9752,10.9367,10.8944,10.8559,10.8485,10.8255,10.8216,10.8064,10.7683,10.7486,10.6976,10.6769,10.6885,10.6956,10.6956,10.6995,10.6995,10.6686,10.6608,10.6376,10.6415,10.6067,10.5609,10.5564,10.5912,10.6221,10.6376,10.6647,10.6879,10.6995,10.6995,10.6995,10.6995,10.6995,10.6995,10.6995,10.6995,10.6995,10.6995,10.6995,10.6995,10.6995,10.6995,10.6995,10.6995,10.6995,10.6995,10.6995,10.733,10.7734,10.9019,10.9753,11.0083,11.0854,11.1221,11.1148,11.0928,11.0047,10.8945,10.8529,10.7684,10.6754,10.646,10.6544,10.671,10.6998,10.7158,10.7316,10.7549,10.7549,10.7625,10.7625,10.7588,10.7625,10.7625,10.7625,10.7623,10.8584,10.9236,10.9538,10.9276,10.9068,10.8321,10.7856,10.751,10.7885,10.8135,10.8409,10.9078,10.9473,10.9667,10.9938,11.0279,11.0644,11.0471,11.052,11.0691,11.0729,11.0691,11.0691,11.0691,11.0691,11.0691,11.0793,11.0941,11.1216,11.1396,11.1522,11.1522,11.1522,11.1522,11.1522,11.1483,11.0978,11.0829,11.0483,10.9983,10.9675,10.9406,10.9409,10.9294,10.9217,10.8916,10.8526,10.7976,10.7459,10.7072,10.715,10.6995,10.6995,10.6995,10.6995,10.6918,10.6918,10.6956,10.6995,10.6995,10.657,10.6183,10.6415,10.6647,10.6724,10.6802,10.6918,10.6995,10.6995,10.6995,10.6995,10.6995,10.6995,10.6995,10.6995,10.6995,10.6995,10.6995,10.6995,10.6995,10.6995,10.6995,10.6995,10.6995,10.6995,10.6995,10.6853,10.7624,10.8431,10.9202,11.001,11.0817,11.1221,11.1148,11.0399,10.9592,10.8762,10.7966,10.7195,10.6607,10.6627,10.671,10.6837,10.7158,10.7316,10.7394,10.7549,10.7625,10.7625,10.7625,10.7625,10.7625,10.7625,10.7625,10.7811,10.9034,11.0279,11.1098,11.0417,11.006,10.9656,10.9338,10.8919,10.8919,10.8946,10.9414,11.005,11.0672,11.0675,11.0806,11.1113,11.1197,11.1059,11.0878,11.0868,11.0844,11.0729,11.0691,11.0691,11.0691,11.0691,11.0793,11.0989,11.1216,11.1478,11.1522,11.1522,11.1522,11.1522,11.1522,11.1483,11.1368,11.1252,11.1252,11.0983,11.0675,11.0406,11.0252,11.0098,10.984,10.9532,10.9059,10.8432,10.7962,10.7614,10.7382,10.7072,10.6995,10.6995,10.6995,10.6995,10.6995,10.6995,10.6995,10.6995,10.6995,10.6686,10.6724,10.6879,10.6956,10.6995,10.6995,10.6995,10.6995,10.6995,10.6995,10.6995,10.6995,10.6995,10.6995,10.6995,10.6995,10.6995,10.6995,10.6995,10.6995,10.6995,10.6995,10.6995,10.6995,10.6995,10.6523,10.6816,10.7587,10.8395,10.9312,11.0634,11.1221,11.1111,11.0362,10.9555,10.8762,10.793,10.7169,10.6664,10.671,10.6837,10.7079,10.7237,10.7394,10.7472,10.7549,10.7625,10.7625,10.7625,10.7625,10.7625,10.7625,10.7699,10.7957,10.9141,11.065,11.1504,11.1165,11.0956,11.0758,11.0611,11.0061,10.9732,10.9687,11.0155,11.0759,11.1234,11.1352,11.1599,11.2046,11.211,11.1956,11.1641,11.1646,11.1545,11.0997,11.0729,11.0691,11.0691,11.0742,11.0941,11.1085,11.1178,11.1478,11.1522,11.1522,11.1522,11.1522,11.1522,11.1522,11.1522,11.1522,11.1522,11.1522,11.1137,11.0983,11.0906,11.0875,11.0728,11.0416,10.9905,10.9316,10.8769,10.8382,10.773,10.7421,10.7227,10.7189,10.6995,10.6995,10.6995,10.6995,10.6995,10.6995,10.6995,10.6995,10.6995,10.6995,10.6995,10.6995,10.6995,10.6995,10.6995,10.6995,10.6995,10.6995,10.6995,10.6995,10.6995,10.6995,10.6995,10.6995,10.6995,10.6995,10.6995,10.6995,10.6995,10.6995,10.6995,10.6995,10.6376,10.6486,10.7257,10.8064,10.8872,10.9863,11.0267,11.0142,10.9688,10.9225,10.8738,10.7694,10.7041,10.6747,10.6837,10.7079,10.7316,10.7394,10.7549,10.7549,10.7625,10.7625,10.7625,10.7625,10.7625,10.7625,10.7699,10.7811,10.8365,10.947,11.0939,11.1726,11.1619,11.1447,11.1236,11.1001,11.0895,11.0608,11.0576,11.0898,11.1394,11.1872,11.2255,11.2354,11.294,11.3099,11.2908,11.2519,11.2372,11.208,11.1392,11.0997,11.0844,11.0691,11.0843,11.0989,11.1085,11.1262,11.1478,11.1522,11.1522,11.1522,11.1522,11.1522,11.1522,11.1522,11.1522,11.1522,11.1522,11.1483,11.1522,11.1564,11.165,11.1732,11.1266,11.0868,11.0244,10.9659,10.8962,10.8233,10.7885,10.7653,10.7459,10.7189,10.6995,10.6995,10.6995,10.6995,10.6995,10.6995,10.6995,10.6995,10.6995,10.6995,10.6995,10.6995,10.6995,10.6995,10.6995,10.6995,10.6995,10.6995,10.6995,10.6995,10.6995,10.6995,10.6995,10.6995,10.6995,10.6995,10.6995,10.6995,10.6995,10.6995,10.6995,10.6376,10.6449,10.7257,10.7991,10.8652,10.8835,10.8945,10.8785,10.8771,10.8749,10.8419,10.7353,10.6763,10.6837,10.7079,10.7237,10.7357,10.7549,10.7549,10.7625,10.7625,10.7625,10.7625,10.7625,10.7625,10.7625,10.7885,10.8442,10.9293,11.0291,11.1206,11.1837,11.1705,11.1447,11.1184,11.1221,11.1263,11.1468,11.1583,11.1906,11.2739,11.3258,11.3571,11.3298,11.3578,11.3841,11.3327,11.3037,11.2907,11.2424,11.1889,11.1545,11.0958,11.0691,11.0843,11.0989,11.1085,11.1262,11.1435,11.1522,11.1522,11.1522,11.1522,11.1522,11.1522,11.1522,11.1522,11.1522,11.1522,11.1522,11.1522,11.1606,11.1729,11.1848,11.165,11.1142,11.0597,11.0012,10.9432,10.8852,10.862,10.8349,10.7923,10.7653,10.7266,10.715,10.6995,10.6995,10.6995,10.6995,10.6995,10.6995,10.6995,10.6995,10.6995,10.6995,10.6995,10.6995,10.6995,10.6995,10.6995,10.6995,10.6995,10.6995,10.6995,10.6995,10.6995,10.6995,10.6995,10.6995,10.6995,10.6995,10.6995,10.6995,10.6995,10.6376,10.6449,10.7257,10.7697,10.7954,10.8542,10.8762,10.8762,10.8309,10.8136,10.7962,10.716,10.6925,10.7158,10.7237,10.7394,10.7511,10.7549,10.7625,10.7625,10.7625,10.7625,10.7662,10.7699,10.7699,10.7848,10.8331,10.9334,11.0374,11.1075,11.1472,11.1884,11.1863,11.1681,11.1331,11.1368,11.1704,11.2169,11.2095,11.2501,11.3187,11.3521,11.3722,11.3977,11.4351,11.4676,11.4336,11.4125,11.3625,11.3045,11.2296,11.1621,11.0767,11.0729,11.0843,11.1037,11.1085,11.1262,11.1435,11.1522,11.1522,11.1522,11.1522,11.1522,11.1522,11.1522,11.1522,11.1522,11.1522,11.1522,11.1564,11.1648,11.1808,11.1886,11.1996,11.1451,11.0945,11.0442,10.9901,10.9669,10.9432,10.8968,10.8504,10.804,10.7614,10.7305,10.7072,10.6995,10.6995,10.6995,10.6995,10.6995,10.6995,10.6995,10.6995,10.6995,10.6995,10.6995,10.6995,10.6995,10.6995,10.6995,10.6995,10.6995,10.6995,10.6995,10.6995,10.6995,10.6995,10.6995,10.6995,10.6995,10.6995,10.6995,10.6995,10.6376,10.6449,10.6853,10.7037,10.7147,10.7636,10.7856,10.7819,10.7593,10.7508,10.7596,10.7232,10.7126,10.7357,10.7394,10.7472,10.7625,10.7625,10.7625,10.7625,10.7625,10.7625,10.7699,10.796,10.822,10.848,10.952,11.056,11.1303,11.1626,11.1909,11.1948,11.2048,11.2049,11.1772,11.2081,11.244,11.2982,11.2568,11.2869,11.3448,11.3708,11.3948,11.4355,11.4705,11.5013,11.5135,11.4887,11.4503,11.3565,11.2678,11.1659,11.092,11.0691,11.0843,11.0989,11.1132,11.1216,11.1435,11.1522,11.1522,11.1522,11.1522,11.1522,11.1522,11.1522,11.1522,11.1522,11.1522,11.1522,11.1564,11.1689,11.1769,11.1848,11.1996,11.1796,11.1564,11.1366,11.1095,11.1018,11.0515,10.9742,10.9161,10.8421,10.7918,10.7227,10.6995,10.6995,10.6995,10.6995,10.6995,10.6995,10.6995,10.6995,10.6995,10.6995,10.6995,10.6995,10.7072,10.6995,10.6995,10.6995,10.6995,10.6995,10.6995,10.6995,10.6995,10.6995,10.6995,10.6995,10.6995,10.6995,10.6995,10.6995,10.6995,10.6376,10.6376,10.6376,10.6413,10.6497,10.6664,10.6774,10.6848,10.7029,10.7163,10.7286,10.7326,10.7323,10.7397,10.7549,10.7549,10.7625,10.7625,10.7625,10.7625,10.7625,10.7811,10.8145,10.8482,10.8888,10.9516,11.0444,11.108,11.16,11.1923,11.2049,11.2132,11.2319,11.2661,11.2815,11.3183,11.3618,11.3672,11.3567,11.3563,11.3819,11.397,11.406,11.4317,11.4705,11.5013,11.5191,11.5288,11.5058,11.4229,11.3022,11.2028,11.1302,11.1035,11.0957,11.1104,11.1085,11.1262,11.1396,11.1522,11.1522,11.1522,11.1522,11.1522,11.1522,11.1522,11.1522,11.1522,11.1522,11.1522,11.1568,11.165,11.177,11.1848,11.1996,11.2101,11.2062,11.1985,11.1985,11.1985,11.1366,11.0515,10.978,10.9001,10.8227,10.7459,10.7034,10.6995,10.6995,10.6995,10.6995,10.6995,10.6995,10.6995,10.6995,10.7072,10.7072,10.7266,10.7343,10.715,10.6995,10.6995,10.6995,10.6995,10.6995,10.6995,10.6995,10.6995,10.6995,10.6995,10.6995,10.6995,10.6995,10.6995,10.6995,10.6376,10.6376,10.6376,10.646,10.6627,10.671,10.6792,10.6955,10.7158,10.7283,10.7363,10.7514,10.7511,10.7549,10.7549,10.7625,10.7625,10.7699,10.7662,10.7625,10.7922,10.822,10.8628,10.9188,10.978,11.056,11.1224,11.16,11.1892,11.2102,11.2494,11.2797,11.2614,11.2955,11.344,11.3771,11.397,11.4065,11.3853,11.363,11.3968,11.4083,11.406,11.4288,11.4642,11.4891,11.5073,11.5229,11.4887,11.4252,11.3518,11.2601,11.199,11.1659,11.1455,11.1258,11.12,11.1224,11.1396,11.1522,11.1522,11.1522,11.1522,11.1522,11.1522,11.1522,11.1522,11.1522,11.1522,11.1522,11.1564,11.1691,11.1771,11.1885,11.1996,11.2067,11.2062,11.2062,11.2062,11.2062,11.1869,11.1173,11.0515,10.9703,10.9001,10.8233,10.7382,10.7343,10.7227,10.7111,10.7034,10.6995,10.6995,10.6995,10.6995,10.7189,10.7266,10.7498,10.7653,10.7537,10.7343,10.7034,10.6995,10.6995,10.6995,10.6995,10.6995,10.6995,10.6995,10.6995,10.6995,10.6995,10.6995,10.6995,10.6995]},{"header":{"parameterUnit":"m.s-1","parameterCategory":1,"la1":31.0,"la2":29.5877,"lo1":-88.7671,"lo2":-86.6584,"dy":0.0162,"dx":0.0185,"nx":115,"ny":88,"refTime":"2024-04-20T06:00:00:Z","depth":0,"parameterNumber":3,"parameterNumberName":"V-component_of_WINDS"},"data":[0.0,0.0,0.0,0.0,0.0,0.0,0.0,0.0,0.0,0.0,0.0,0.0,0.0,0.0,0.0,0.0,0.0,0.0,0.0,0.0,0.0,0.0,0.0,0.0,0.0,0.0,0.0,0.0,0.0,0.0,0.0,0.0,0.0,0.0,0.0,0.0,0.0,0.0,0.0,0.0,0.0,0.0,0.0,0.0,0.0,0.0,0.0,0.0,0.0,0.0,0.0,0.0,0.0,0.0,0.0,0.0,0.0,0.0,0.0,0.0,0.0,0.0,0.0,0.0,0.0,0.0,0.0,0.0,0.0,0.0,0.0,0.0,0.0,0.0,0.0,0.0,0.0,0.0,0.0,0.0,0.0,0.0,0.0,0.0,0.0,0.0,0.0,0.0,0.0,0.0,0.0,0.0,0.0,0.0,0.0,0.0,0.0,0.0,0.0,0.0,0.0,0.0,0.0,0.0,0.0,0.0,0.0,0.0,0.0,0.0,0.0,0.0,0.0,0.0,0.0,0.0,0.0,0.0,0.0,0.0,0.0,0.0,0.0,0.0,0.0,0.0,0.0,0.0,0.0,0.0,0.0,0.0,0.0,0.0,0.0,0.0,0.0,0.0,0.0,0.0,0.0,0.0,0.0,0.0,0.0,0.0,0.0,0.0,0.0,0.0,0.0,0.0,0.0,0.0,0.0,0.0,0.0,0.0,0.0,0.0,0.0,0.0,0.0,0.0,0.0,0.0,0.0,0.0,0.0,0.0,0.0,0.0,0.0,0.0,0.0,0.0,0.0,0.0,0.0,0.0,0.0,0.0,0.0,0.0,0.0,0.0,0.0,0.0,0.0,0.0,0.0,0.0,0.0,0.0,0.0,0.0,0.0,0.0,0.0,0.0,0.0,0.0,0.0,0.0,0.0,0.0,0.0,0.0,0.0,0.0,0.0,0.0,0.0,0.0,0.0,0.0,0.0,0.0,0.0,0.0,0.0,0.0,0.0,0.0,0.0,0.0,0.0,0.0,0.0,0.0,0.0,0.0,0.0,0.0,0.0,0.0,0.0,0.0,0.0,0.0,0.0,0.0,0.0,0.0,0.0,0.0,0.0,0.0,0.0,0.0,0.0,0.0,0.0,0.0,0.0,0.0,0.0,0.0,0.0,0.0,0.0,0.0,0.0,0.0,0.0,0.0,0.0,0.0,0.0,0.0,0.0,0.0,0.0,0.0,0.0,0.0,0.0,0.0,0.0,0.0,0.0,0.0,0.0,0.0,0.0,0.0,0.0,0.0,0.0,0.0,0.0,0.0,0.0,0.0,0.0,0.0,0.0,0.0,0.0,0.0,0.0,0.0,0.0,0.0,0.0,0.0,0.0,0.0,0.0,0.0,0.0,0.0,0.0,0.0,0.0,0.0,0.0,0.0,0.0,0.0,0.0,0.0,0.0,0.0,0.0,0.0,0.0,0.0,0.0,0.0,0.0,0.0,0.0,0.0,0.0,0.0,0.0,0.0,0.0,0.0,0.0,0.0,0.0,0.0,0.0,0.0,0.0,0.0,0.0,0.0,0.0,0.0,0.0,0.0,0.0,0.0,0.0,0.0,0.0,0.0,0.0,0.0,0.0,0.0,0.0,0.0,0.0,0.0,0.0,0.0,0.0,0.0,0.0,0.0,0.0,0.0,0.0,0.0,0.0,0.0,0.0,0.0,0.0,0.0,0.0,0.0,0.0,0.0,0.0,0.0,0.0,0.0,0.0,0.0,0.0,0.0,0.0,0.0,0.0,0.0,0.0,0.0,0.0,0.0,0.0,0.0,0.0,0.0,0.0,0.0,0.0,0.0,0.0,0.0,0.0,0.0,0.0,0.0,0.0,0.0,0.0,0.0,0.0,0.0,0.0,0.0,0.0,0.0,0.0,0.0,0.0,0.0,0.0,0.0,0.0,0.0,0.0,0.0,0.0,0.0,0.0,0.0,0.0,0.0,0.0,0.0,0.0,0.0,0.0,0.0,0.0,0.0,0.0,0.0,0.0,0.0,0.0,0.0,0.0,0.0,0.0,0.0,0.0,0.0,0.0,0.0,0.0,0.0,0.0,0.0,0.0,0.0,0.0,0.0,0.0,0.0,0.0,0.0,0.0,0.0,0.0,0.0,0.0,0.0,0.0,0.0,0.0,0.0,0.0,0.0,0.0,0.0,0.0,0.0,0.0,0.0,0.0,0.0,0.0,0.0,0.0,0.0,0.0,0.0,0.0,0.0,0.0,0.0,0.0,0.0,0.0,0.0,0.0,0.0,0.0,0.0,0.0,0.0,0.0,0.0,0.0,0.0,0.0,0.0,0.0,0.0,0.0,0.0,0.0,0.0,0.0,0.0,0.0,0.0,0.0,0.0,0.0,0.0,0.0,0.0,0.0,0.0,0.0,0.0,0.0,0.0,0.0,0.0,0.0,0.0,0.0,0.0,0.0,0.0,0.0,0.0,0.0,0.0,0.0,0.0,0.0,0.0,0.0,0.0,0.0,0.0,0.0,0.0,0.0,0.0,0.0,0.0,0.0,0.0,0.0,0.0,0.0,0.0,0.0,0.0,0.0,0.0,0.0,0.0,0.0,0.0,0.0,0.0,0.0,0.0,0.0,0.0,0.0,0.0,0.0,0.0,0.0,0.0,0.0,0.0,0.0,0.0,0.0,0.0,0.0,0.0,0.0,0.0,0.0,0.0,0.0,0.0,0.0,0.0,0.0,0.0,0.0,0.0,0.0,0.0,0.0,0.0,0.0,0.0,0.0,0.0,0.0,0.0,0.0,0.0,0.0,0.0,0.0,0.0,0.0,0.0,0.0,0.0,0.0,0.0,0.0,0.0,0.0,0.0,0.0,0.0,0.0,0.0,0.0,0.0,0.0,0.0,0.0,0.0,0.0,0.0,0.0,0.0,0.0,0.0,0.0,0.0,0.0,0.0,0.0,0.0,0.0,0.0,0.0,0.0,0.0,0.0,0.0,0.0,0.0,0.0,0.0,0.0,0.0,0.0,0.0,0.0,0.0,0.0,0.0,0.0,0.0,0.0,0.0,0.0,0.0,0.0,0.0,0.0,0.0,0.0,0.0,0.0,0.0,0.0,0.0,0.0,0.0,0.0,0.0,0.0,0.0,0.0,0.0,0.0,0.0,0.0,0.0,0.0,0.0,0.0,0.0,0.0,0.0,0.0,0.0,0.0,0.0,0.0,0.0,0.0,0.0,0.0,0.0,0.0,0.0,0.0,0.0,0.0,0.0,0.0,0.0,0.0,0.0,0.0,0.0,0.0,0.0,0.0,0.0,0.0,0.0,0.0,0.0,0.0,0.0,0.0,0.0,0.0,0.0,0.0,0.0,0.0,0.0,0.0,0.0,0.0,0.0,0.0,0.0,0.0,0.0,0.0,0.0,0.0,0.0,0.0,0.0,0.0,0.0,0.0,0.0,0.0,0.0,0.0,0.0,0.0,0.0,0.0,0.0,0.0,0.0,0.0,0.0,0.0,0.0,0.0,0.0,0.0,0.0,0.0,0.0,0.0,0.0,0.0,0.0,0.0,0.0,0.0,0.0,0.0,0.0,0.0,0.0,0.0,0.0,0.0,0.0,0.0,0.0,0.0,0.0,0.0,0.0,0.0,0.0,0.0,0.0,0.0,0.0,0.0,0.0,0.0,0.0,0.0,0.0,0.0,0.0,0.0,0.0,0.0,0.0,0.0,0.0,0.0,0.0,0.0,0.0,0.0,0.0,0.0,0.0,0.0,0.0,0.0,0.0,0.0,0.0,0.0,0.0,0.0,0.0,0.0,0.0,0.0,0.0,0.0,0.0,0.0,0.0,0.0,0.0,0.0,0.0,0.0,0.0,0.0,0.0,0.0,0.0,0.0,0.0,0.0,0.0,0.0,0.0,0.0,0.0,0.0,0.0,0.0,0.0,0.0,0.0,0.0,0.0,0.0,0.0,0.0,0.0,0.0,0.0,0.0,0.0,0.0,0.0,0.0,0.0,0.0,0.0,0.0,0.0,0.0,0.0,0.0,0.0,0.0,0.0,0.0,0.0,0.0,0.0,0.0,0.0,0.0,0.0,0.0,0.0,0.0,0.0,0.0,0.0,0.0,0.0,0.0,0.0,0.0,0.0,0.0,0.0,0.0,0.0,0.0,0.0,0.0,0.0,0.0,0.0,0.0,0.0,0.0,0.0,0.0,0.0,0.0,0.0,0.0,0.0,0.0,0.0,0.0,0.0,0.0,0.0,0.0,0.0,0.0,0.0,0.0,0.0,0.0,0.1742,0.0,0.0,0.0,0.0,0.0,0.0,0.0,0.0,0.0,0.0,0.0,0.0,0.0,0.0,0.0,0.0,0.0,0.0,0.0,0.0,0.0,0.0,0.0,0.0,0.0,0.0,0.0,0.0,0.0,0.0,0.0,0.0,0.0,0.0,0.0,0.0,0.0,0.0,0.0,0.0,0.0,0.0,0.0,0.0,0.0,0.0,0.0,0.0,0.0,0.0,0.0,0.0,0.0,0.0,0.0,0.0,0.0,0.0,0.0,0.0,0.0,0.0,0.0,0.0,0.0,0.0,0.0,0.0,0.0,0.0,0.0,0.0,0.0,0.0,0.0,0.0,0.0,0.0,0.0,0.0,0.0,0.0,0.0,0.0,0.0,0.0,0.0,0.0,0.0,0.0,0.0,0.0,0.0,0.0,0.0,0.0,0.0,0.0,0.0,0.0,0.0,0.0,0.0,0.0,0.0,0.0,0.0,0.0,0.0,0.0,0.3886,0.344,0.2854,0.242,0.2193,0.0,0.0,0.0,0.0,0.0,0.0,0.0,0.0,0.0,0.0,0.0,0.0,0.0,0.0,0.0,0.0,0.0,0.0,0.0,0.0,0.0,0.0,0.0,0.0,0.0,0.0,0.0,0.0,0.0,0.0,0.0,0.0,0.0,0.0,0.0,0.0,0.0,0.0,0.0,0.0,0.0,0.0,0.0,0.0,0.0,0.0,0.0,0.0,0.0,0.0,0.0,0.0,0.0,0.0,0.0,0.0,0.0,0.0,0.0,0.0,0.0,0.0,0.0,0.0,0.0,0.0,0.0,0.0,0.0,0.0,0.0,0.0,0.0,0.0,0.0,0.0,0.0,0.0,0.0,0.0,0.0,0.0,0.0,0.0,0.0,0.0,0.0,0.0,0.0,0.0,0.0,0.0,0.0,0.0,0.0,0.0,0.0,0.0,0.0,0.0,0.0,0.0,0.0,0.0,0.0,0.0,0.0,0.0,0.0,0.0,0.0,0.0,0.3321,0.286,0.2688,0.0,0.0,0.0,0.0,0.0,0.0,0.0,0.0,0.0,0.0,0.0,0.0,0.0,0.0,0.0,0.0,0.0,0.0,0.0,0.0,0.0,0.0,0.0,0.0,0.0,0.0,0.0,0.0,0.0,0.0,0.0,0.0,0.0,0.0,0.0,0.0,0.0,0.0,0.0,0.0,0.0,0.0,0.0,0.0,0.0,0.0,0.0,0.0,0.0,0.0,0.0,0.0,0.0,0.0,0.0,0.0,0.0,0.0,0.0,0.0,0.0,0.0,0.0,0.0,0.0,0.0,0.0,0.0,0.0,0.0,0.0,0.0,0.0,0.0,0.0,0.0,0.0,0.0,0.0,0.0,0.0,0.0,0.0,0.0,0.0,0.0,0.0,0.0,0.0,0.0,0.0,0.0,0.0,0.0,0.0,0.0,0.0,0.0,0.0,0.0,0.0,0.0,0.0,0.0,0.0,0.0,0.0,0.0,0.0,0.0,0.4713,0.4356,0.3835,0.0,0.3224,0.0,0.0,0.0,0.0,0.0,0.0,0.0,0.0,0.0,0.0,0.0,0.0,0.0,0.0,0.0,0.0,0.0,0.0,0.0,0.0,0.0,0.0,0.0,0.0,0.0,0.0,0.0,0.0,0.0,0.0,0.0,0.0,0.0,0.0,0.0,0.0,0.0,0.0,0.0,0.0,0.0,0.0,0.0,0.0,0.0,0.0,0.0,0.0,0.0,0.0,0.0,0.0,0.0,0.0,0.0,0.0,0.0,0.0,0.0,0.0,0.0,0.0,0.0,0.0,0.0,0.0,0.0,0.0,0.0,0.0,0.0,0.0,0.0,0.0,0.0,0.0,0.0,0.0,0.0,0.0,0.0,0.0,0.0,0.0,0.0,0.0,0.0,0.0,0.0,0.0,0.0,0.0,0.0,0.0,0.0,0.0,0.0,0.0,0.0,0.0,0.0,0.0,0.0,0.0,0.0,0.0,0.0,0.0,0.0,0.0,0.5185,0.4879,0.4172,0.3691,0.0,0.0,0.0,0.0,0.0,0.0,0.0,0.0,0.0,0.0,0.0,0.0,0.0,0.0,0.0,0.0,0.0,0.0,0.0,0.0,0.0,0.0,0.0,0.0,0.0,0.0,0.0,0.0,0.0,0.0,0.0,0.0,0.0,0.0,0.0,0.0,0.0,0.0,0.0,0.0,0.0,0.0,0.0,0.0,0.0,0.0,0.0,0.0,0.0,0.0,0.0,0.0,0.0,0.0,0.0,0.0,0.0,0.0,0.0,0.0,0.0,0.0,0.0,0.0,0.0,0.0,0.0,0.0,0.0,0.0,0.0,0.0,0.0,0.0,0.0,0.0,0.0,0.0,0.0,0.0,0.0,0.0,0.0,0.0,0.0,0.0,0.0,0.0,0.0,0.0,0.0,0.0,0.0,0.0,0.0,0.0,0.0,0.0,0.0,0.0,0.0,0.0,0.0,0.0,0.0,0.0,0.0,0.0,0.0,0.0,0.59,0.5513,0.515,0.4532,0.4018,0.3932,0.0,0.0,0.0,0.0,0.0,0.0,0.0,0.0,0.0,0.0,0.0,0.0,0.0,0.0,0.0,0.0,0.0,0.0,0.0,0.0,0.0,0.0,0.0,0.0,0.0,0.0,0.0,0.0,0.0,0.0,0.0,0.0,0.0,0.0,0.0,0.0,0.0,0.0,0.0,0.0,0.0,0.0,0.0,0.0,0.0,0.0,0.0,0.0,0.0,0.0,0.0,0.0,0.0,0.0,0.0,0.0,0.0,0.0,0.0,0.0,0.0,0.0,0.0,0.0,0.0,0.0,0.0,0.0,0.0,0.0,0.0,0.0,0.0,0.0,0.0,0.0,0.0,0.0,0.0,0.0,0.0,0.0,0.0,0.0,0.0,0.0,0.0,0.0,0.0,0.0,0.0,0.0,0.0,0.0,0.0,0.0,0.0,0.0,0.0,0.0,0.0,0.0,0.0,0.0,0.0,0.0,0.0,0.0,0.6979,0.6163,0.5447,0.5087,0.4803,0.4694,0.0,0.0,0.0,0.0,0.0,0.0,0.0,0.0,0.0,0.0,0.0,0.0,0.0,0.0,0.0,0.0,0.0,0.0,0.0,0.0,0.0,0.0,0.0,0.0,0.0,0.0,0.0,0.0,0.0,0.0,0.0,0.0,0.0,0.0,0.0,0.0,0.0,0.0,0.0,0.0,0.0,0.0,0.0,0.0,0.0,0.0,0.0,0.0,0.0,0.0,0.0,0.0,0.0,0.0,0.0,0.0,0.0,0.0,0.0,0.0,0.0,0.0,0.0,0.0,0.0,0.0,0.0,0.0,0.0,0.0,0.0,0.0,0.0,0.0,0.0,0.0,0.0,0.0,0.0,0.0,0.0,0.0,0.0,0.0,0.0,0.0,0.0,0.0,0.0,0.0,0.0,0.0,0.0,0.0,0.0,0.0,0.0,0.0,0.0,0.0,0.0,0.0,0.0,0.0,0.0,0.0,0.0,0.0,0.0,0.7068,0.6435,0.6025,0.5828,0.5534,0.5199,0.0,0.0,0.0,0.0,0.0,0.0,0.0,0.0,0.0,0.0,0.0,0.0,0.0,0.0,0.0,0.0,0.0,0.0,0.0,0.0,0.0,0.0,0.0,0.0,0.0,0.0,0.0,0.0,0.0,0.0,0.0,0.0,0.0,0.0,0.0,0.0,0.0,0.0,0.0,0.0,0.0,0.0,0.0,0.0,0.0,0.0,0.0,0.0,0.0,0.0,0.0,0.0,0.0,0.0,0.0,0.0,0.0,0.0,0.0,0.0,0.0,0.0,0.0,0.0,0.0,0.0,0.0,0.0,0.0,0.0,0.0,0.0,0.0,0.0,0.0,0.0,0.0,0.0,0.0,0.0,0.0,0.0,0.0,0.0,0.0,0.0,0.0,0.0,0.0,0.0,0.0,0.0,0.0,0.0,0.0,0.0,0.0,0.0,0.0,0.0,0.0,0.0,0.0,0.0,0.0,0.0,0.0,0.0,0.0,0.7045,0.0,0.6587,0.6441,0.6115,0.5739,0.0,0.0,0.0,0.0,0.0,0.0,0.0,0.0,0.0,0.0,0.0,0.0,0.0,0.0,0.0,0.0,0.0,0.0,0.0,0.0,0.0,0.0,0.0,0.0,0.0,0.0,0.0,0.0,0.0,0.0,0.0,0.0,0.0,0.0,0.0,0.0,0.0,0.0,0.0,0.0,0.0,0.0,0.0,0.0,0.0,0.0,0.0,0.0,0.0,0.0,0.0,0.0,0.0,0.0,0.0,0.0,0.0,0.0,0.0,0.0,0.0,0.0,0.0,0.0,0.0,0.0,0.0,0.0,0.0,0.0,0.0,0.0,0.0,0.0,0.0,0.0,0.0,0.0,0.0,0.0,0.0,0.0,0.0,0.0,0.0,0.0,0.0,0.0,0.0,0.0,0.0,0.0,0.0,0.0,0.0,0.0,0.0,0.0,0.0,0.0,0.0,0.0,0.0,0.0,0.0,0.0,0.0,0.0,0.7065,0.7021,0.7156,0.7076,0.674,0.6492,0.6275,0.0,0.0,0.0,0.0,0.0,0.0,0.0,0.0,0.0,0.0,0.0,0.0,0.0,0.0,0.0,0.0,0.0,0.0,0.0,0.0,0.0,0.0,0.0,0.0,0.0,0.0,0.0,0.0,0.0,0.0,0.0,0.0,0.0,0.0,0.0,0.0,0.0,0.0,0.0,0.0,0.0,0.0,0.0,0.0,0.0,0.0,0.0,0.0,0.0,0.0,0.0,0.0,0.0,0.0,0.0,0.0,0.0,0.0,0.0,0.0,0.0,0.0,0.0,0.0,0.0,0.0,0.0,0.0,0.0,0.0,0.0,0.0,0.0,0.0,0.0,0.0,0.0,0.0,0.0,0.0,0.0,0.0,0.0,0.0,0.0,0.0,0.0,0.0,0.0,0.0,0.0,0.0,0.0,0.0,0.0,0.0,0.0,0.0,0.0,0.0,0.0,0.0,0.0,0.0,0.0,0.0,0.0,0.0,0.0,0.7892,0.7939,0.7985,0.7918,0.7462,0.7001,0.0,0.0,0.0,0.0,0.0,0.0,0.0,0.0,0.0,0.0,0.0,0.0,0.0,0.0,0.0,0.0,0.0,0.0,0.0,0.0,0.0,0.0,0.0,0.0,0.0,0.0,0.0,0.0,0.0,0.0,0.0,0.0,0.0,0.0,0.0,0.0,0.0,0.0,0.0,0.0,0.0,0.0,0.0,0.0,0.0,0.0,0.0,0.0,0.0,0.0,0.0,0.0,0.0,0.0,0.0,0.0,0.0,0.0,0.0,0.0,0.0,0.0,0.0,0.0,0.0,0.0,0.0,0.0,0.0,0.0,0.0,0.0,0.0,0.0,0.0,0.0,0.0,0.0,0.0,0.0,0.0,0.0,0.0,0.0,0.0,0.0,0.0,0.0,0.0,0.0,0.0,0.0,0.0,0.0,0.0,0.0,0.0,0.0,0.0,0.0,0.0,0.0,0.0,0.0,0.0,0.0,0.0,0.0,0.0,0.8772,0.8639,0.854,0.8514,0.8004,0.7541,0.7138,0.0,0.0,0.0,0.0,0.0,0.0,0.0,0.0,0.0,0.0,0.0,0.0,0.0,0.0,0.0,0.0,0.0,0.0,0.0,0.0,0.0,0.0,0.0,0.0,0.0,0.0,0.0,0.0,0.0,0.0,0.0,0.0,0.0,0.0,0.0,0.0,0.0,0.0,0.0,0.0,0.0,0.0,0.0,0.0,0.0,0.0,0.0,0.0,0.0,0.0,0.0,0.0,0.0,0.0,0.0,0.0,0.0,0.0,0.0,0.0,0.0,0.0,0.0,0.0,0.0,0.0,0.0,0.0,0.0,0.0,0.0,0.0,0.0,0.0,0.0,0.0,0.0,0.0,0.0,0.0,0.0,0.0,0.0,0.0,0.0,0.0,0.0,0.0,0.0,0.0,0.0,0.0,0.0,0.0,0.0,0.0,0.0,0.0,0.0,0.0,0.0,0.0,0.0,0.0,0.0,0.0,0.0,0.0,0.9563,0.9224,0.8904,0.8698,0.8272,0.7872,0.0,0.0,0.0,0.0,0.0,0.0,0.0,0.0,0.0,0.0,0.0,0.0,0.0,0.0,0.0,0.0,0.0,0.0,0.0,0.0,0.0,0.0,0.0,0.0,0.0,0.0,0.0,0.0,0.0,0.0,0.0,0.0,0.0,0.0,0.0,0.0,0.0,0.0,0.0,0.0,0.0,0.0,0.0,0.0,0.0,0.0,0.0,0.0,0.0,0.0,0.0,0.0,0.0,0.0,0.0,0.0,0.0,0.0,0.0,0.0,0.0,0.0,0.0,0.0,0.0,0.0,0.0,0.0,0.0,0.0,0.0,0.0,0.0,0.0,0.0,0.0,0.0,0.0,0.0,0.0,0.0,0.0,0.0,0.0,0.0,0.0,0.0,0.0,0.0,0.0,0.0,0.0,0.0,0.0,0.0,0.0,0.0,0.0,0.0,0.0,0.0,0.0,0.0,0.0,0.0,0.0,0.0,0.0,0.0,0.9967,1.009,0.9936,0.9465,0.9199,0.8679,0.0,0.0,0.0,0.0,0.0,0.0,0.0,0.0,0.0,0.0,0.0,0.0,0.0,0.0,0.0,0.0,0.0,0.0,0.0,0.0,0.0,0.0,0.0,0.0,0.0,0.0,0.0,0.0,0.0,0.0,0.0,0.0,0.0,0.0,0.0,0.0,0.0,0.0,0.0,0.0,0.0,0.0,0.0,0.0,0.0,0.0,0.0,0.0,0.0,0.0,0.0,0.0,0.0,0.0,0.0,0.0,0.0,0.0,0.0,0.0,0.0,0.0,0.0,0.0,0.0,0.0,0.0,0.0,0.0,0.0,0.0,0.0,0.0,0.0,0.0,0.0,0.0,0.0,0.0,0.0,0.0,0.0,0.0,0.0,0.0,0.0,0.0,0.0,0.0,0.0,0.0,0.0,0.0,0.0,0.0,0.0,0.0,0.0,0.0,0.0,0.0,0.0,0.0,0.0,0.0,0.0,0.0,0.0,1.0644,1.0522,1.0716,1.0639,1.0439,0.9967,0.9343,0.0,0.0,0.0,0.0,0.0,0.0,0.0,0.0,0.0,0.0,0.0,0.0,0.0,0.0,0.0,0.0,0.0,0.0,0.0,0.0,0.0,0.0,0.0,0.0,0.0,0.0,0.0,0.0,0.0,0.0,0.0,0.0,0.0,0.0,0.0,0.0,0.0,0.0,0.0,0.0,0.0,0.0,0.0,0.0,0.0,0.0,0.0,0.0,0.0,0.0,0.0,0.0,0.0,0.0,0.0,0.0,0.0,0.0,0.0,0.0,0.0,0.0,0.0,0.0,0.0,0.0,0.0,0.0,0.0,0.0,0.0,0.0,0.0,0.0,0.0,0.0,0.0,0.0,0.0,0.0,0.0,0.0,0.0,0.0,0.0,0.0,0.0,0.0,0.0,0.0,0.0,0.0,0.0,0.0,0.0,0.0,0.0,0.0,0.0,0.0,0.0,0.0,0.0,0.0,0.0,0.0,0.0,0.0,1.1168,1.1203,1.1203,1.1356,1.1657,1.066,0.9808,0.0,0.0,0.0,0.0,0.0,0.0,0.0,0.0,0.0,0.0,0.0,0.0,0.0,0.0,0.0,0.0,0.0,0.0,0.0,0.0,0.0,0.0,0.0,0.0,0.0,0.0,0.0,0.0,0.0,0.0,0.0,0.0,0.0,0.0,0.0,0.0,0.0,0.0,0.0,0.0,0.0,0.0,0.0,0.0,0.0,0.0,0.0,0.0,0.0,0.0,0.0,0.0,0.0,0.0,0.0,0.0,0.0,0.0,0.0,0.0,0.0,0.0,0.0,0.0,0.0,0.0,0.0,0.0,0.0,0.0,0.0,0.0,0.0,0.0,0.0,0.0,0.0,0.0,0.0,0.0,0.0,0.0,0.0,0.0,0.0,0.0,0.0,0.0,0.0,0.0,0.0,0.0,0.0,0.0,0.0,0.0,0.0,0.0,0.0,0.0,0.0,0.0,0.0,0.0,0.0,0.0,0.0,0.0,1.174,1.1872,1.2191,1.2339,1.2333,1.1504,1.0688,0.0,0.0,0.0,0.0,0.0,0.0,0.0,0.0,0.0,0.0,0.0,0.0,0.0,0.0,0.0,0.0,0.0,0.0,0.0,0.0,0.0,0.0,0.0,0.0,0.0,0.0,0.0,0.0,0.0,0.0,0.0,0.0,0.0,0.0,0.0,0.0,0.0,0.0,0.0,0.0,0.0,0.0,0.0,0.0,0.0,0.0,0.0,0.0,0.1261,0.0,0.0,0.0,0.0,0.0,0.0,0.0,0.0,0.0,0.0,0.0,0.0,0.0,0.0,0.0,0.0,0.0,0.0,0.0,0.0,0.0,0.0,0.0,0.0,0.0,0.0,0.0,0.0,0.0,0.0,0.0,0.0,0.0,0.0,0.0,0.0,0.0,0.0,0.0,0.0,0.0,0.0,0.0,0.0,0.0,0.0,0.0,0.0,0.0,0.0,0.0,0.0,0.0,0.0,0.0,0.0,0.0,0.0,0.0,1.315,1.2712,1.3029,1.3337,1.3431,1.2699,1.1786,0.0,0.0,0.0,0.0,0.0,0.0,0.0,0.0,0.0,0.0,0.0,0.0,0.0,0.0,0.0,0.0,0.0,0.0,0.0,0.0,0.0,0.0,0.0,0.0,0.0,0.0,0.0,0.0,0.0,0.0,0.0,0.0,0.0,0.0,0.0,0.0,0.0,0.0,0.0,0.0,0.0,0.0,0.0,0.0,0.0,0.0,0.0,0.0,0.0,0.0,0.0,0.0,0.0,0.0,0.0,0.0,0.0,0.0,0.0,0.0,0.0,0.0,0.0,0.0,0.0,0.0,0.0,0.0,0.0,0.0,0.0,0.0,0.0,0.0,0.0,0.0,0.0,0.0,0.0,0.0,0.0,0.0,0.0,0.0,0.0,0.0,0.0,0.0,0.0,0.0,0.0,0.0,0.0,0.0,0.0,0.0,0.0,0.0,0.0,0.0,0.0,0.0,0.0,0.0,0.0,0.0,0.0,1.3413,1.439,1.37,1.399,1.4253,1.4487,1.3784,1.2746,1.1353,0.0,0.0,0.0,0.0,0.0,0.0,0.0,0.0,0.0,0.0,0.0,0.0,0.0,0.0,0.0,0.0,0.0,0.0,0.0,0.0,0.0,0.0,0.0,0.0,0.0,0.0,0.0,0.0,0.0,0.0,0.0,0.0,0.0,0.0,0.0,0.0,0.0,0.0,0.0,0.0,0.0,0.0,0.0,0.0,0.0,0.0,0.0,0.0,0.1868,0.0,0.0,0.0,0.0,0.0,0.0,0.0,0.0,0.0,0.0,0.0,0.0,0.0,0.0,0.0,0.0,0.0,0.0,0.0,0.0,0.0,0.0,0.0,0.0,0.0,0.0,0.0,0.0,0.0,0.0,0.0,0.0,0.0,0.0,0.0,0.0,0.0,0.0,0.0,0.0,0.0,0.0,0.0,0.0,0.0,0.0,0.0,0.0,0.0,0.0,0.0,0.0,0.0,0.0,0.0,0.0,1.1274,1.3749,1.4757,1.428,1.4751,1.4925,1.477,1.4348,1.3452,1.2092,0.0,0.0,0.0,0.0,0.0,0.0,0.0,0.0,0.0,0.0,0.0,0.0,0.0,0.0,0.0,0.0,0.0,0.0,0.0,0.0,0.0,0.0,0.0,0.0,0.0,0.0,0.0,0.0,0.0,0.0,0.0,0.0,0.0,0.0,0.0,0.0,0.0,0.0,0.0,0.0,0.0,0.0,0.0,0.0,0.0,0.0,0.0,0.0,0.0,0.188,0.0,0.0,0.0,0.0,0.0,0.0,0.0,0.0,0.0,0.0,0.0,0.0,0.0,0.0,0.0,0.0,0.0,0.0,0.0,0.0,0.0,0.0,0.0,0.0,0.0,0.0,0.0,0.0,0.0,0.0,0.0,0.0,0.0,0.0,0.0,0.0,0.0,0.0,0.0,0.0,0.0,0.0,0.0,0.0,0.0,0.0,0.0,0.0,0.0,0.0,0.0,0.0,0.0,0.0,0.0,1.1728,1.4237,1.5198,1.5017,1.5466,1.5579,1.5347,1.4691,1.3743,0.0,0.0,0.0,0.0,0.0,0.0,0.0,0.0,0.0,0.0,0.0,0.0,0.0,0.0,0.0,0.0,0.0,0.0,0.0,0.0,0.0,0.0,0.0,0.0,0.0,0.0,0.0,0.0,0.0,0.0,0.0,0.0,0.0,0.0,0.0,0.0,0.0,0.0,0.0,0.0,0.0709,0.1103,0.1112,0.0,0.0,0.0,0.0,0.0,0.0,0.2125,0.2109,0.0,0.0,0.0,0.0,0.0,0.0,0.0,0.0,0.0,0.0,0.0,0.0,0.0,0.0,0.0,0.0,0.0,0.0,0.0,0.0,0.0,0.0,0.0,0.0,0.0,0.0,0.0,0.0,0.0,0.0,0.0,0.0,0.0,0.0,0.0,0.0,0.0,0.0,0.0,0.0,0.0,0.0,0.0,0.0,0.0,0.0,0.0,0.0,0.0,0.0,0.0,0.0,0.0,0.0,0.0,1.2182,1.4513,1.5583,1.5696,1.6137,1.6191,1.5852,1.4977,1.3797,0.0,0.0,0.0,0.0,0.0,0.0,0.0,0.0,0.0,0.0,0.0,0.0,0.0,0.0,0.0,0.0,0.0,0.0,0.0,0.0,0.0,0.0,0.0,0.0,0.0,0.0,0.0,0.0,0.0,0.0,0.0,0.0,0.0,0.0,0.0,0.0,0.0,0.0,0.0,0.0,0.0,0.2228,0.2273,0.2129,0.0,0.0,0.0,0.0,0.255,0.2528,0.0,0.0,0.0,0.0,0.0,0.0,0.0,0.0,0.0,0.0,0.0,0.0,0.0,0.0,0.0,0.0,0.0,0.0,0.0,0.0,0.0,0.0,0.0,0.0,0.0,0.0,0.0,0.0,0.0,0.0,0.0,0.0,0.0,0.0,0.0,0.0,0.0,0.0,0.0,0.0,0.0,0.0,0.0,0.0,0.0,0.0,0.0,0.0,0.0,0.0,0.0,0.0,0.0,0.0,0.0,0.0,1.263,1.4534,1.5702,1.5995,1.6334,1.6286,1.5859,1.4984,1.3749,0.0,0.0,0.0,0.0,0.0,0.0,0.0,0.0,0.0,0.0,0.0,0.0,0.0,0.0,0.0,0.0,0.0,0.0,0.0,0.0,0.0,0.0,0.0,0.0,0.0,0.0,0.0,0.0,0.0,0.0,0.0,0.0,0.0,0.0,0.0,0.0,0.0,0.0,0.0,0.0,0.0,0.231,0.2396,0.2286,0.2292,0.0,0.0,0.2586,0.3605,0.3567,0.0,0.0,0.0,0.0,0.0,0.0,0.0,0.0,0.0,0.0,0.0,0.0,0.0,0.0,0.0,0.0,0.0,0.0,0.0,0.0,0.0,0.0,0.0,0.0,0.0,0.0,0.0,0.0,0.0,0.0,0.0,0.0,0.0,0.0,0.0,0.0,0.0,0.0,0.0,0.0,0.0,0.0,0.0,0.0,0.0,0.0,0.0,0.0,0.0,0.0,0.0,0.0,0.0,0.0,0.0,1.1294,1.2847,1.4632,1.5779,1.6185,1.6497,1.6435,1.5988,1.5113,1.3871,0.0,0.0,0.0,0.0,0.0,0.0,0.0,0.0,0.0,0.0,0.0,0.0,0.0,0.0,0.0,0.0,0.0,0.0,0.0,0.0,0.0,0.0,0.0,0.0,0.0,0.0,0.0,0.0,0.0,0.0,0.0,0.0,0.0,0.0,0.0,0.0,0.0,0.0,0.0,0.0,0.0,0.0,0.2525,0.3474,0.0,0.0,0.0,0.4283,0.5429,0.0,0.0,0.0,0.0,0.0,0.0,0.0,0.0,0.0,0.0,0.0,0.0,0.0,0.0,0.0,0.0,0.0,0.0,0.0,0.0,0.0,0.0,0.0,0.0,0.0,0.0,0.0,0.0,0.0,0.0,0.0,0.0,0.0,0.0,0.0,0.0,0.0,0.0,0.0,0.0,0.0,0.0,0.0,0.0,0.0,0.0,0.0,0.0,0.0,0.0,0.0,0.0,0.0,0.0,0.0,0.0,0.0,1.3112,1.4889,1.6036,1.6449,1.6693,1.6612,1.6191,1.5289,0.0,0.0,0.0,0.0,0.0,0.0,0.0,0.0,0.0,0.0,0.0,0.0,0.0,0.0,0.0,0.0,0.0,0.0,0.0,0.0,0.0,0.0,0.0,0.0,0.0,0.0,0.0,0.2471,0.0,0.0,0.0,0.0,0.0,0.0,0.0,0.0,0.0,0.0,0.0,0.0,0.0,0.0,0.2506,0.3274,0.4626,0.5344,0.0,0.0,0.5677,0.6769,0.6414,0.5584,0.0,0.0,0.0,0.0,0.0,0.0,0.0,0.0,0.0,0.0,0.0,0.0,0.0,0.0,0.0,0.0,0.0,0.0,0.0,0.0,0.0,0.0,0.0,0.0,0.0,0.0,0.0,0.0,0.0,0.0,0.0,0.0,0.0,0.0,0.0,0.0,0.0,0.0,0.0,0.0,0.0,0.0,0.0,0.0,0.0,0.0,0.0,0.0,0.0,0.0,0.0,0.0,0.0,0.0,0.0,1.3553,1.478,1.5893,1.689,1.6958,1.6815,1.649,1.5493,1.4251,0.0,0.0,0.0,0.0,0.0,0.0,0.0,0.0,0.0,0.0,0.0,0.0,0.0,0.0,0.0,0.0,0.0,0.0,0.0,0.0,0.0,0.0,0.0,0.0,0.0,0.0,0.0,0.0,0.0,0.0,0.0,0.0,0.0,0.0,0.0,0.0,0.0,0.0,0.0,0.0,0.0,0.3041,0.4895,0.5414,0.5542,0.0,0.0,0.604,0.7087,0.7675,0.724,0.5492,0.0,0.0,0.0,0.0,0.0,0.0,0.0,0.0,0.0,0.0,0.0,0.0,0.0,0.0,0.0,0.0,0.0,0.0,0.0,0.0,0.0,0.0,0.0,0.0,0.0,0.0,0.0,0.0,0.0,0.0,0.0,0.0,0.0,0.0,0.0,0.0,0.0,0.0,0.0,0.0,0.0,0.0,0.0,0.0,0.0,0.0,0.0,0.0,0.0,0.0,0.0,0.0,0.0,1.206,1.3743,1.5031,1.6103,1.6937,1.7066,1.6971,1.6666,1.5737,1.4624,0.0,0.0,0.0,0.0,0.0,0.0,0.0,0.0,0.0,0.0,0.0,0.0,0.0,0.0,0.0,0.0,0.0,0.0,0.0,0.0,0.0,0.0,0.0,0.0,0.0,0.0,0.0,0.0,0.3384,0.3076,0.2617,0.0,0.0,0.0,0.0,0.0,0.0,0.0,0.0,0.0,0.0,0.4097,0.693,0.7671,0.0,0.0,0.7699,0.7791,0.7964,0.8033,0.7733,0.6539,0.5512,0.0,0.0,0.0,0.0,0.0,0.0,0.0,0.0,0.0,0.0,0.0,0.0,0.0,0.0,0.0,0.0,0.0,0.0,0.0,0.0,0.0,0.0,0.0,0.0,0.0,0.0,0.0,0.0,0.0,0.0,0.0,0.0,0.0,0.0,0.0,0.0,0.0,0.0,0.0,0.0,0.0,0.0,0.0,0.0,0.0,0.0,0.0,0.0,0.0,0.0,0.0,0.0,1.2271,1.3899,1.5242,1.6307,1.7093,1.7209,1.7141,1.687,1.6056,1.5072,0.0,0.0,0.0,0.0,0.0,0.0,0.0,0.0,0.0,0.0,0.0,0.0,0.0,0.0,0.0,0.0,0.0,0.0,0.0,0.0,0.0,0.0,0.0,0.0,0.0,0.0,0.0,0.0,0.443,0.4016,0.3723,0.0,0.0,0.0,0.0,0.0,0.0,0.0,0.0,0.0,0.0,0.5724,0.9221,0.9847,1.0049,1.0041,1.0081,0.9761,0.8815,0.8515,0.8198,0.7625,0.0,0.0,0.0,0.0,0.0,0.0,0.0,0.0,0.0,0.0,0.0,0.0,0.0,0.0,0.0,0.0,0.0,0.0,0.0,0.0,0.0,0.0,0.0,0.0,0.0,0.0,0.0,0.0,0.0,0.0,0.913,0.0,0.0,0.0,0.0,0.0,0.0,0.0,0.0,0.0,0.0,0.0,0.0,0.0,0.0,0.0,0.0,0.0,0.0,0.0,0.0,0.0,0.0,1.2427,1.4055,1.5391,1.651,1.7372,1.7412,1.7344,1.7168,1.6456,1.5567,1.4496,0.0,0.0,0.0,0.0,0.0,0.0,0.0,0.0,0.0,0.0,0.0,0.0,0.0,0.0,0.0,0.0,0.0,0.0,0.0,0.0,0.0,0.0,0.0,0.0,0.0,0.0,0.6063,0.5285,0.4801,0.0,0.0,0.0,0.0,0.0,0.0,0.0,0.0,0.0,0.0,0.5566,0.7819,1.1577,1.213,1.2201,1.214,1.2146,1.1582,0.9992,0.9472,0.915,0.0,0.0,0.0,0.0,0.0,0.0,0.0,0.0,0.0,0.0,0.0,0.0,0.0,0.0,0.0,0.0,0.0,0.0,0.0,0.0,0.0,0.0,0.0,0.0,0.0,0.0,0.0,0.9673,0.9666,0.0,0.0,0.0,0.0,0.0,0.0,0.0,0.0,0.0,0.0,0.0,1.0245,1.0763,0.0,0.0,0.0,0.0,0.0,0.0,0.0,0.0,0.0,0.0,0.0,0.0,1.2725,1.4333,1.5594,1.6824,1.8037,1.8164,1.815,1.8416,1.7547,1.6043,1.4109,0.0,0.0,0.0,0.0,0.0,0.0,0.0,0.0,0.0,0.0,0.0,0.0,0.0,0.0,0.0,0.0,0.0,0.0,0.0,0.0,0.0,0.0,0.0,0.0,0.0,0.6905,0.0,0.0,0.0,0.0,0.0,0.0,0.0,0.0,0.0,0.0,0.0,0.7263,0.6448,0.7512,0.966,1.3607,1.4248,1.4222,0.0,0.0,0.0,0.0,0.0,0.0,0.0,0.0,0.0,0.0,0.0,0.0,0.0,0.0,0.5149,0.3801,0.3455,0.396,0.5338,0.0,0.0,0.0,0.0,0.0,0.0,0.0,0.0,0.0,0.0,0.0,0.0,0.0,0.0,0.0,0.0,1.0253,0.0,0.0,0.0,0.0,0.0,0.0,0.0,0.0,1.158,1.1586,1.1179,1.1831,1.2261,0.0,1.2004,1.128,0.0,0.0,0.0,0.0,0.0,0.0,0.0,0.0,1.3105,1.437,1.6014,1.739,1.846,1.8704,1.8929,1.914,1.7982,1.6501,1.4708,1.3533,1.2265,0.0,0.0,0.0,0.0,0.0,0.0,0.0,0.0,0.0,0.0,0.0,0.0,0.0,0.0,0.0,0.0,0.0,0.0,0.0,0.0,0.0,0.0,0.0,0.7651,0.0,0.0,0.0,0.0,0.0,0.0,0.0,0.0,0.0,0.8112,0.8844,0.9223,0.8948,0.9874,1.1699,1.4752,0.0,0.0,0.0,0.0,0.0,0.0,0.0,1.2138,1.1345,1.0401,0.9821,1.0099,0.9431,0.8958,0.8893,0.0,0.0,0.5776,0.5358,0.5774,0.7144,0.6443,0.5308,0.4327,0.5018,0.5887,0.0,0.0,0.0,0.0,0.0,0.0,0.0,0.0,1.2029,1.2052,0.0,1.1446,0.0,0.0,0.0,0.0,0.0,1.2101,0.0,0.0,1.3166,1.2838,1.2232,1.2847,1.3408,1.3756,1.3089,1.2678,1.2447,1.109,0.0,0.0,0.0,0.0,0.0,0.0,1.3385,1.4166,1.6453,1.8013,1.8689,1.9235,1.9468,1.9126,1.8194,1.7186,1.6148,1.4899,1.3831,1.262,1.1248,0.0,0.0,0.0,0.0,0.0,0.0,0.0,0.0,0.0,0.0,0.0,0.0,0.0,0.0,0.0,0.0,0.0,0.0,0.0,0.0,0.8653,0.0,0.0,0.0,0.0,0.0,0.0,0.0,0.0,0.0,0.0,1.0013,1.0595,1.1113,1.1698,0.0,0.0,0.0,0.0,1.5248,1.5207,1.5187,1.5204,1.4825,1.4774,1.4403,1.3468,0.0,0.0,1.2051,1.177,1.1504,1.1509,1.1487,1.0682,0.8193,0.7731,0.8033,0.9316,0.8767,0.7725,0.6668,0.7091,0.806,1.5351,0.0,0.0,0.0,0.0,1.2798,1.2896,1.3032,1.2986,1.2934,1.2851,1.2499,0.0,0.0,0.0,0.0,0.0,0.0,1.3393,1.3815,1.4311,1.3995,1.3085,1.4436,1.4856,1.4365,1.4189,1.3937,1.3437,1.2929,1.2216,1.1335,0.0,0.0,0.0,0.0,1.429,1.4792,1.712,1.8753,1.9555,2.0116,2.007,1.9615,1.8852,1.8046,1.7024,1.5773,1.4778,1.3851,1.2381,0.0,0.0,0.0,0.0,0.0,0.0,0.0,0.0,0.0,0.0,0.0,0.0,0.0,0.0,0.0,0.0,0.0,0.0,0.0,0.9632,0.9486,0.9241,0.0,0.0,0.0,0.0,0.0,0.0,0.0,0.0,0.0,1.2259,1.2456,1.2621,0.0,0.0,1.4525,1.5017,1.5288,1.5162,1.5107,0.0,0.0,0.0,1.5657,1.5343,1.4558,1.3095,1.1994,1.2587,1.2565,1.2494,1.2522,1.2488,1.2168,1.1464,1.0755,1.0589,1.1172,1.0872,0.9864,0.8353,0.8441,0.8911,1.829,1.6385,1.5245,1.4806,1.4814,1.4814,1.4871,1.496,1.4653,1.4565,1.4231,1.3698,1.3359,1.3191,1.3161,0.0,0.0,0.0,1.475,1.5147,1.5593,1.5391,1.4959,1.5587,1.6031,1.6125,1.5646,1.5084,1.4639,1.4724,1.4309,1.3394,0.0,0.0,1.3044,1.4386,1.5251,1.5739,1.7975,1.9507,2.0428,2.0635,2.0587,2.0261,1.9593,1.8891,1.8015,1.6882,1.5811,1.4646,1.3464,1.2387,0.0,0.0,0.0,0.0,0.0,0.0,0.0,0.0,0.0,0.0,0.0,0.733,0.0,0.0,0.0,0.0,0.9912,1.0046,1.0378,1.027,0.0,0.0,0.0,0.0,0.0,0.0,0.0,1.2617,1.2726,1.2996,1.3817,1.3988,1.399,1.4113,1.4493,1.5076,1.5569,0.0,1.548,1.5472,1.6001,1.6588,1.6585,1.646,1.6124,1.5519,1.4638,1.3713,1.3312,1.3117,1.3273,1.315,1.3105,1.288,1.3004,1.2362,1.2085,1.2471,1.2275,1.1594,1.0179,1.0284,1.0596,2.1704,2.1192,1.8772,1.7774,1.753,1.753,1.7521,1.735,1.6863,1.6598,1.6233,1.5104,1.4546,1.4389,1.4546,0.0,1.4924,1.5916,1.6487,1.669,1.6864,1.6931,1.7127,1.656,1.7024,1.8176,1.7188,1.6317,1.5939,1.6324,1.6331,1.5932,1.4423,1.3885,1.4146,1.5383,1.6241,1.7042,1.8808,2.0269,2.1334,2.1087,2.0848,2.0824,2.0141,1.9476,1.8891,1.8029,1.6994,1.5471,1.4515,1.3539,1.2198,0.0,0.0,0.0,0.0,0.0,0.0,0.0,0.0,0.0,0.0,0.0,0.0,0.0,0.0,0.0,1.0725,0.0,1.1002,1.088,0.0,0.0,0.0,1.0238,1.0809,1.1415,1.2345,1.3734,0.0,0.0,1.4706,0.0,1.5294,1.4917,1.5028,1.5413,1.6096,1.6151,1.6252,1.6115,1.6673,1.7116,1.7376,1.7214,1.6849,1.6239,1.6326,1.5776,1.41,1.3471,1.3682,1.3643,1.3249,1.3021,1.3021,1.2963,1.3037,1.2972,1.2949,1.267,1.2179,1.2481,1.283,2.4882,2.444,2.3467,2.174,1.9596,1.9596,1.9503,1.9372,1.8849,1.8399,1.7695,1.696,1.6254,1.5763,1.5803,1.5996,1.6325,1.6925,1.7226,1.7421,1.7949,1.7819,1.7437,1.7994,1.8287,1.8501,1.7947,1.7383,1.6818,1.7128,1.7188,1.7173,1.6722,1.6442,1.6177,1.7154,1.7642,1.7562,1.9552,2.0815,2.1456,2.0994,2.0791,2.0653,1.9955,1.9292,1.8512,1.7474,1.7196,1.7684,1.5388,1.3459,1.2491,1.1443,0.0,0.0,0.0,0.0,0.0,0.0,0.0,0.0,0.0,0.7858,0.947,0.0,1.1158,0.0,1.1331,1.1463,1.1606,1.1342,0.0,0.0,1.1489,1.1864,1.2,1.2568,1.3513,1.474,1.4646,1.4801,1.5201,1.5744,1.5978,1.5766,1.5734,1.6172,1.6776,1.67,1.6829,1.6768,1.7216,1.7699,1.7648,1.7429,1.7141,1.6936,1.6902,1.6215,1.4052,1.3564,1.3697,1.3614,1.3587,1.3346,1.3471,1.3449,1.3405,1.3436,1.3217,1.2834,1.2653,1.3096,1.3377,2.8015,2.7524,2.7238,2.6029,2.4237,2.292,2.2091,2.1898,2.1272,2.06,1.9767,1.827,1.7518,1.7016,1.7,1.7006,1.7234,1.7664,1.7908,1.8022,1.8395,1.8375,1.8177,1.848,1.8736,1.8945,1.8697,1.8372,1.7802,1.8228,1.8344,1.8145,1.8344,1.8403,1.813,1.8161,1.8182,1.7776,1.9919,2.1119,2.1246,2.0994,2.0694,2.0361,1.9735,1.9042,1.8122,1.7335,1.7118,1.7829,1.5563,1.3665,1.2745,1.1979,1.109,0.0,0.0,0.0,0.0,0.0,0.0,0.0,0.0,0.0,0.0,0.0,1.1617,0.0,1.2045,1.2149,1.2223,1.1756,1.1669,1.1714,1.2671,1.3269,1.3383,1.3824,1.4611,1.5564,1.5716,1.5774,1.5872,1.6313,1.648,1.6485,1.6564,1.6808,1.7264,1.7346,1.7442,1.7372,1.7621,1.7864,1.7961,1.7744,1.75,1.721,1.715,1.6447,1.4039,1.3525,1.3651,1.3597,1.3542,1.3697,1.3631,1.3614,1.3614,1.3614,1.3401,1.3171,1.3118,1.3319,1.3581,3.0839,3.0325,3.0264,2.9958,2.9262,2.6565,2.5065,2.4616,2.3883,2.2778,2.1615,1.9446,1.8322,1.8008,1.778,1.777,1.7843,1.833,1.8566,1.8598,1.8777,1.8858,1.8858,1.8866,1.906,1.9287,1.9388,1.9123,1.8734,1.946,1.9621,1.9206,1.9621,1.9825,1.9808,1.9107,1.8506,1.8209,2.0312,2.1383,2.1116,2.0921,2.0564,2.0044,1.9484,1.8737,1.7828,1.7133,1.6728,1.6432,1.5204,1.4069,1.3178,1.2454,1.1755,0.0,1.0324,0.0,0.0,0.0,0.0,0.0,0.0,0.0,0.0,1.1746,1.2208,1.2285,1.2583,1.2847,1.2847,1.2514,1.2395,1.265,1.3709,1.4527,1.4599,1.5032,1.5598,1.6678,1.6729,1.6912,1.6742,1.7065,1.7114,1.7023,1.7244,1.7575,1.7731,1.7919,1.7751,1.7889,1.7902,1.7889,1.7902,1.7902,1.7854,1.7514,1.7473,1.6589,1.4611,1.3857,1.3781,1.3573,1.3722,1.3656,1.3651,1.3645,1.3645,1.3645,1.3645,1.3391,1.3273,1.3466,1.3542,3.2717,3.2173,3.1719,3.1478,3.1327,2.9677,2.8236,2.6851,2.5951,2.4188,2.2074,2.0118,1.9142,1.8947,1.8453,1.846,1.8744,1.8988,1.9183,1.9313,1.95,1.938,1.9171,1.938,1.9589,1.9798,1.9662,1.9687,1.9493,1.9914,2.0011,1.9806,2.0011,2.0011,2.0011,0.0,0.0,0.0,2.0939,2.1392,2.1108,2.0807,2.0385,1.9849,1.9183,0.0,1.7289,1.6783,1.5881,1.4792,1.4501,0.0,0.0,0.0,0.0,0.0,0.0,0.0,0.0,0.0,0.0,0.0,1.0887,1.1391,1.1491,1.2477,1.2991,1.2793,1.3193,1.3458,1.3464,1.3271,1.3191,1.3186,1.4249,1.5169,1.5688,1.5822,1.6504,1.7923,1.8375,1.8492,1.8358,1.8316,1.794,1.7528,1.7697,1.7799,1.7779,1.7985,1.8012,1.7819,1.7812,1.7819,1.7826,1.7819,1.7799,1.7772,1.7909,1.7636,1.6962,1.5307,1.4133,1.3701,1.3685,1.3885,1.3664,1.3669,1.3658,1.3885,1.3664,1.3605,1.3618,1.3651,1.3519,3.4306,0.0,3.3446,3.3185,0.0,3.1969,3.0876,2.9555,2.7938,2.5862,2.3607,2.1863,2.065,2.0001,1.9514,1.9265,1.9256,1.9435,1.9565,1.9654,1.9743,1.9792,1.9581,1.9792,1.9792,2.0003,1.9882,1.9922,1.9938,2.0109,2.0239,2.0328,2.0328,2.0369,2.045,2.045,2.0547,2.0726,2.1128,2.1218,2.0986,2.0815,2.0385,1.9678,0.0,0.0,0.0,0.0,0.0,0.0,0.0,0.0,0.0,0.0,0.0,1.3072,1.2585,1.2289,1.2143,1.159,1.1301,1.1421,1.2628,1.3186,1.2734,1.3836,1.4412,1.3908,1.4316,1.4792,1.4878,1.4421,1.4329,1.4997,1.6452,1.7566,1.8105,1.8244,1.8518,1.9537,1.9863,1.9914,1.9205,1.8992,1.853,1.7717,1.7799,1.786,1.786,1.786,1.786,1.786,1.786,1.786,1.786,1.786,1.786,1.7853,1.7812,1.8005,1.8019,1.5888,1.4244,1.4037,1.3999,1.4177,1.3955,1.3955,1.3955,1.4177,1.3961,1.3923,1.3798,1.361,1.3669,3.5578,3.5244,3.4963,3.467,3.4376,3.3455,3.2557,3.1655,0.0,0.0,0.0,2.374,2.2264,2.1138,2.069,2.0376,1.9815,1.9971,2.0077,2.0135,1.993,1.9946,1.9971,1.9979,2.0192,2.0414,2.0315,2.0158,2.0166,2.0304,2.0442,2.0588,2.0629,2.0734,2.0889,2.0897,2.0913,2.0954,2.1292,2.1283,2.0905,2.084,2.0426,1.963,1.9199,1.8415,1.7277,1.6908,1.6202,1.5182,1.5339,1.5451,1.5632,1.531,1.4916,1.4592,1.396,1.3713,1.3692,1.2901,1.2391,1.286,1.4252,1.4813,1.421,1.5278,1.5557,1.5046,1.5624,1.6144,1.6316,1.576,1.564,1.6809,1.8466,1.9759,2.0267,2.0209,2.0255,2.0853,2.0832,2.0626,1.976,1.9619,1.9468,1.8708,1.8288,1.7853,1.786,1.786,1.786,1.786,1.786,1.786,1.786,1.786,1.786,1.786,1.786,1.7874,1.7652,1.5998,1.459,1.4387,1.4304,1.4266,1.4249,1.4042,1.4021,1.4244,1.4244,1.4244,1.4021,1.3803,1.3824,3.6059,3.5538,3.5257,3.4963,3.4683,3.3744,3.2635,3.1526,3.0028,2.8276,2.6562,2.4357,2.3145,2.2735,2.1756,2.1247,2.1412,2.0832,2.0811,0.0,2.0693,2.0345,2.0253,2.0481,2.071,2.0906,2.058,2.0523,2.0523,2.0547,2.0572,2.0612,2.0742,2.0913,2.1075,2.0867,2.0939,2.1303,2.1415,2.1341,2.1083,2.0791,2.0434,1.9995,1.9337,1.8785,1.8355,1.7997,1.727,1.6379,1.6179,1.6479,1.7222,1.6475,1.5775,1.527,1.5049,1.4974,1.4847,1.3748,1.3475,1.4048,1.6356,1.7161,1.6082,1.6003,1.6084,1.6047,1.6368,1.6644,1.6822,1.6794,1.6846,1.7371,1.9001,2.0159,2.0217,2.0296,2.0531,2.0808,2.1095,2.1283,2.0915,2.0599,2.0474,2.0536,1.8978,1.7853,1.786,1.786,1.786,1.786,1.786,1.786,1.786,1.786,1.786,1.786,1.786,1.7874,1.7907,1.5844,1.4476,1.4287,1.426,1.4254,1.4254,1.4271,1.4249,1.4243,1.4243,1.4249,1.4238,1.4243,1.4233,3.6487,3.6072,3.5618,3.5351,3.5204,3.4111,3.3136,3.2031,3.0443,2.8901,2.7223,2.5987,2.4635,2.3521,2.3119,2.2599,2.2161,2.196,2.1837,2.2001,2.1372,2.0972,2.0602,2.084,2.107,2.107,2.0996,2.0734,2.0734,2.0734,2.0783,2.0889,2.1059,2.1181,2.1262,2.1262,2.1303,2.1376,2.1311,2.1222,2.1124,2.097,2.071,2.0361,1.9833,1.9394,1.9037,1.859,1.8038,1.758,1.7293,1.7365,1.7944,1.7387,1.69,1.664,1.6271,1.6064,1.5996,1.533,1.5348,1.6293,1.7477,1.8067,1.7516,1.7485,1.7356,1.7142,1.7569,1.7826,1.8277,1.8105,1.8137,1.8629,1.9718,2.0356,2.0328,2.0264,2.0449,2.1078,2.1251,2.139,2.1254,2.1116,2.0961,2.1229,1.9434,1.786,1.786,1.786,1.786,1.786,1.786,1.786,1.786,1.786,1.786,1.786,1.786,1.788,1.7679,1.5868,1.452,1.4314,1.432,1.432,1.432,1.432,1.432,1.432,1.432,1.432,1.432,1.432,1.4298,3.6874,3.6553,3.6046,3.5752,3.5591,3.4518,3.3706,3.2748,3.1243,2.9734,2.8358,2.7502,2.6161,2.4852,2.4452,2.3905,2.3177,2.2983,2.2796,2.2841,2.2199,2.1556,2.1144,2.1177,2.1193,2.1408,2.1152,2.0913,2.0913,2.0913,2.101,2.1181,2.1319,2.1384,2.1603,2.1376,2.1595,2.1823,2.1823,2.1538,2.1189,2.1148,2.0994,2.0718,2.0361,2.002,1.9695,1.9264,1.8899,1.8448,1.8295,1.8322,1.8321,1.8103,1.7997,1.7794,1.7405,1.7222,1.7032,1.6705,1.7042,1.8102,1.833,1.8666,1.897,1.9005,1.8682,1.8192,1.8536,1.8972,1.9248,1.8996,1.9187,1.9798,2.0101,2.0255,2.032,2.0409,2.0767,2.1292,2.139,2.1472,2.1343,2.1384,2.1181,2.0764,1.9206,1.8081,1.786,1.786,1.786,1.786,1.786,1.786,1.786,1.786,1.786,1.786,1.786,1.788,1.7451,1.5868,1.4514,1.4314,1.432,1.432,1.432,1.432,1.432,1.432,1.432,1.432,1.432,1.432,1.432,3.7181,3.6887,3.654,3.6112,3.5645,3.4924,3.4385,3.3719,3.2374,3.1376,3.0546,2.8622,2.7596,2.7186,2.5721,2.4895,2.4702,2.3834,2.3518,2.3476,2.3045,2.2241,2.148,2.1967,2.1975,2.1505,2.1181,2.1132,2.1132,2.1124,2.1197,2.1343,2.1376,2.1612,2.2042,2.1587,2.1798,2.2909,2.2909,2.2472,2.1352,2.1205,2.1108,2.1083,2.0734,2.045,2.0255,2.0044,1.9695,1.924,1.9159,1.9199,1.9096,1.8847,1.8493,1.816,1.8127,1.7933,1.7561,1.7499,1.767,1.8248,1.8879,1.9237,1.9585,1.9593,1.9502,1.9021,1.911,1.9297,1.9484,1.9557,1.9758,1.9846,2.0214,2.0377,2.0361,2.0955,2.1359,2.1333,2.148,2.1368,2.1376,2.1384,2.0953,2.0111,1.8786,1.7901,1.7914,1.7894,1.7887,1.7874,1.7867,1.786,1.786,1.786,1.786,1.786,1.786,1.788,1.7444,1.6089,1.4287,1.4314,1.432,1.432,1.432,1.432,1.432,1.432,1.432,1.432,1.432,1.432,1.432,3.7462,3.7155,3.67,3.6273,3.5912,3.567,3.5323,3.4685,3.4056,3.3337,3.2381,3.1116,2.9563,2.7854,2.7207,2.6429,2.5498,2.5183,2.4854,2.4521,2.4193,2.3842,2.3444,2.324,2.3027,2.2796,2.2728,2.2702,2.2702,2.2702,2.2736,2.2787,2.2711,2.2871,2.2863,2.2523,2.2682,2.3128,2.3819,2.3609,2.2472,2.2403,2.2369,2.2126,2.1682,2.1309,2.1193,2.0635,2.0101,1.989,1.9476,1.9203,1.9265,1.9045,1.8874,1.8541,1.8501,1.8501,1.8303,1.8177,1.8336,1.8817,1.9045,1.9405,1.9741,1.9991,1.995,1.9492,1.9532,1.9646,1.9817,1.9766,1.9886,1.9999,2.016,2.0328,2.0285,2.0913,2.1316,2.1472,2.1343,2.1384,2.1384,2.1408,2.0804,1.9759,1.867,1.8009,1.7873,1.7833,1.7996,1.7982,1.7928,1.7867,1.786,1.786,1.786,1.786,1.786,1.7874,1.7672,1.5868,1.4287,1.4314,1.432,1.432,1.432,1.432,1.432,1.432,1.432,1.432,1.432,1.432,1.432,3.7769,3.7435,3.6874,3.646,3.6193,3.6193,3.5922,3.5423,3.5489,3.4836,3.3671,3.3078,3.1445,2.9189,2.8489,2.7517,2.6594,2.6314,2.5942,2.5298,2.4994,2.4836,2.5068,2.4388,2.4164,2.4406,2.3932,2.3708,2.3716,2.3716,2.3716,2.369,2.3576,2.3737,2.3719,2.3303,2.3207,2.3654,2.453,2.4521,2.3873,2.3654,2.3408,2.3128,2.257,2.2258,2.1982,2.1176,2.0676,2.032,1.9854,1.9565,1.9634,1.9362,1.9167,1.885,1.885,1.8866,1.8673,1.8761,1.8922,1.9362,1.9402,1.9741,1.9995,2.0077,2.0102,1.993,1.9938,1.9987,2.0036,2.0109,1.9999,2.0369,2.0304,2.0449,2.0674,2.1059,2.1415,2.1352,2.1376,2.1384,2.1172,2.0985,2.0393,1.9626,1.8769,1.8145,1.8253,1.8186,1.8084,1.786,1.7962,1.7874,1.786,1.786,1.786,1.7867,1.7867,1.7887,1.7686,1.5862,1.4292,1.4314,1.432,1.432,1.432,1.432,1.432,1.432,1.432,1.432,1.432,1.432,1.432,3.8063,3.7716,3.7155,3.674,3.6487,3.6487,3.6326,3.5896,3.6193,3.5502,3.4145,3.3965,3.3041,3.1425,2.9866,2.8786,2.7912,2.7035,2.6165,2.5496,2.5525,2.5515,2.5506,2.4836,2.5096,2.5619,2.4685,2.3985,2.3967,2.3958,2.3716,2.3949,2.3941,2.4156,2.4343,2.3701,2.3824,2.4955,2.5033,2.4995,2.4945,2.4973,2.444,2.3399,2.3128,2.2839,2.225,2.1974,2.1498,2.0344,2.0304,2.0133,2.0223,1.9605,1.9139,1.9053,1.9142,1.9034,1.8861,1.9091,1.929,1.933,1.9954,2.0265,2.0233,2.0282,2.0348,2.0279,2.0288,2.0255,2.0158,2.0247,2.0176,2.0337,2.0377,2.0554,2.1292,2.1349,2.1431,2.1343,2.1384,2.0945,2.0513,2.0088,1.9737,1.9403,1.9007,1.8621,1.8726,1.8656,1.8356,1.8063,1.7968,1.786,1.786,1.786,1.786,1.7867,1.788,1.7894,1.7001,1.6102,1.498,1.4314,1.432,1.432,1.432,1.432,1.432,1.432,1.432,1.432,1.432,1.432,1.432,3.7983,3.7502,3.7101,3.6874,3.678,3.678,3.6714,3.662,3.67,3.6493,3.5793,3.4897,3.3999,3.3309,3.1974,3.0455,2.8871,2.8098,2.7265,2.6388,2.6062,2.5903,2.5903,2.5676,2.5685,2.5921,2.5458,2.5222,2.5222,2.5222,2.5222,2.5204,2.5093,2.5254,2.5217,2.4817,2.4938,2.5392,2.5317,2.5317,2.5383,2.5392,2.5133,2.4624,2.4171,2.3639,2.3014,2.2455,2.1799,2.107,2.0621,2.0385,2.0348,1.9849,1.9638,1.9524,1.9557,1.9597,1.9404,1.9509,1.9629,1.9938,2.0176,2.0266,2.0422,2.0553,2.0652,2.0499,2.0604,2.0621,2.058,2.0539,2.0564,2.0293,2.0642,2.0978,2.1333,2.1448,2.1319,2.1368,2.1164,2.0505,1.9632,1.9434,1.9286,1.8741,1.8635,1.8712,1.876,1.8733,1.8656,1.8091,1.7962,1.786,1.786,1.786,1.7867,1.7867,1.7874,1.7438,1.6767,1.5646,1.4525,1.4314,1.432,1.432,1.432,1.432,1.432,1.432,1.432,1.432,1.432,1.432,1.432,3.8023,3.7635,3.7235,3.7074,3.7074,3.6981,3.6941,3.6941,3.6981,3.6799,3.6577,3.5648,3.473,3.4271,3.3364,3.2067,3.021,2.9224,2.8173,2.7054,2.6519,2.6348,2.611,2.6129,2.6129,2.6129,2.6129,2.6129,2.6129,2.6129,2.6129,2.611,2.5988,2.5921,2.5893,2.5714,2.5619,2.56,2.5543,2.5534,2.56,2.561,2.5647,2.5695,2.5254,2.4676,2.3985,2.3118,2.227,2.1415,2.0921,2.0629,2.0336,2.0093,1.9906,1.9817,1.9841,1.9873,1.9882,1.9922,2.0044,2.0206,2.0239,2.0312,2.0483,2.0824,2.089,2.071,2.0775,2.0864,2.0905,2.084,2.0815,2.0491,2.0835,2.1374,2.1439,2.1319,2.1156,2.0725,2.0285,1.9632,1.8971,1.8985,1.8614,1.807,1.8192,1.8486,1.8774,1.8507,1.8452,1.8097,1.7962,1.788,1.786,1.786,1.786,1.7867,1.7887,1.7216,1.6317,1.5197,1.4303,1.4314,1.432,1.432,1.432,1.432,1.432,1.432,1.432,1.432,1.432,1.432,1.432,3.825,3.813,3.7635,3.7395,3.7355,3.7128,3.6981,3.7008,3.6994,3.7074,3.6905,3.6354,3.5489,3.4545,3.437,3.3625,3.2265,3.0676,2.9296,2.8151,2.7489,2.6795,2.6082,2.611,2.612,2.6129,2.6129,2.6129,2.6129,2.6129,2.6129,2.6129,2.611,2.6092,2.611,2.5931,2.6062,2.5799,2.5666,2.5657,2.5799,2.5827,2.5903,2.6063,2.6082,2.5449,2.4639,2.4003,2.2906,2.1587,2.1423,2.1095,2.045,2.0336,2.0182,1.9963,2.0003,2.0076,2.0093,2.0231,2.0184,2.0312,2.0361,2.0629,2.0759,2.0832,2.0856,2.0864,2.0897,2.0954,2.11,2.1116,2.11,2.0907,2.0931,2.1213,2.1335,2.14,2.0977,1.9853,1.9192,1.875,1.8537,1.8309,1.8143,1.8023,1.8097,1.8145,1.8459,1.8404,1.7887,1.7833,1.7955,1.7874,1.786,1.786,1.7867,1.7867,1.7894,1.7458,1.6323,1.5202,1.4536,1.432,1.432,1.432,1.432,1.432,1.432,1.432,1.432,1.432,1.432,1.432,1.432,3.8263,3.821,3.7849,3.7676,3.7676,3.7569,3.729,3.7026,3.729,3.7555,3.7343,3.6879,3.6189,3.551,3.5069,3.4147,3.3007,3.2149,3.1058,2.9339,2.8647,2.7479,2.632,2.6092,2.611,2.612,2.6129,2.6129,2.6129,2.6129,2.6129,2.6129,2.6129,2.6129,2.6129,2.6063,2.6035,2.6025,2.5969,2.5978,2.6035,2.6035,2.6063,2.612,2.6129,2.5826,2.5704,2.484,2.3431,2.1538,2.1368,2.1316,2.0996,2.0906,2.0637,2.0547,2.0572,2.0604,2.0604,2.0637,2.0473,2.0529,2.0775,2.1021,2.1301,2.1201,2.1259,2.1059,2.114,2.1254,2.1287,2.1303,2.1295,2.1303,2.1303,2.1319,2.0937,2.0058,1.8942,1.8515,1.853,1.853,1.8309,1.786,1.7887,1.7941,1.8016,1.8091,1.803,1.807,1.7806,1.7948,1.7887,1.786,1.786,1.786,1.7646,1.7424,1.7444,1.7458,1.633,1.5208,1.4542,1.432,1.432,1.432,1.432,1.432,1.432,1.432,1.432,1.432,1.432,1.432,1.432,3.8531,3.841,3.8103,3.7983,3.7969,3.7863,3.7569,3.7316,3.7569,3.7823,3.7823,3.7356,3.6901,3.6459,3.6003,3.5318,3.4378,3.3992,3.2913,3.1364,2.9825,2.8626,2.7459,2.6786,2.6339,2.6129,2.6129,2.6129,2.6129,2.6129,2.6129,2.6129,2.6129,2.6129,2.6129,2.6129,2.6129,2.6129,2.612,2.6129,2.6129,2.6129,2.6129,2.6129,2.6129,2.6129,2.612,2.5542,2.4379,2.265,2.171,2.1456,2.1433,2.1177,2.0929,2.0864,2.0848,2.084,2.0848,2.0824,2.0666,2.0706,2.0954,2.1433,2.15,2.1407,2.1222,2.1238,2.1311,2.1384,2.1376,2.1164,2.1172,2.14,2.1392,2.0961,2.0301,1.8949,1.8053,1.8074,1.8081,1.8088,1.8081,1.786,1.786,1.788,1.7941,1.7989,1.7907,1.7948,1.7914,1.7887,1.7874,1.786,1.786,1.7646,1.7418,1.721,1.6773,1.6779,1.6108,1.4992,1.432,1.432,1.432,1.432,1.432,1.432,1.432,1.432,1.4341,1.432,1.432,1.432,1.433,3.8998,3.8718,3.841,3.8277,3.825,3.8023,3.7943,3.8143,3.7916,3.7943,3.817,3.7956,3.7461,3.6979,3.6816,3.6359,3.6041,3.5127,3.4644,3.3342,3.1682,2.9846,2.9318,2.7727,2.6824,2.612,2.6129,2.6129,2.6129,2.6129,2.6129,2.6129,2.6129,2.6129,2.6129,2.6129,2.6129,2.6129,2.6129,2.6129,2.6129,2.6129,2.6129,2.6129,2.6129,2.6129,2.612,2.5844,2.5213,2.3734,2.2285,2.14,2.1448,2.1173,2.11,2.0978,2.0905,2.0913,2.0905,2.0945,2.0986,2.0899,2.1148,2.1431,2.1319,2.1335,2.1352,2.1352,2.1376,2.1384,2.1164,2.0945,2.0733,2.1197,2.0977,2.0081,1.8295,1.8067,1.7853,1.786,1.786,1.786,1.786,1.786,1.786,1.7867,1.788,1.788,1.7874,1.7887,1.7874,1.786,1.786,1.786,1.786,1.719,1.6975,1.676,1.633,1.6108,1.5886,1.4992,1.432,1.432,1.433,1.433,1.4347,1.4363,1.439,1.4423,1.4407,1.4347,1.4358,1.4396,1.4417,3.9118,3.9012,3.8718,3.8597,3.8597,3.8504,3.8477,3.8491,3.8477,3.845,3.8477,3.8491,3.822,3.754,3.7527,3.7322,3.655,3.5705,3.5399,3.4864,3.3219,3.1454,2.9598,2.7954,2.6815,2.6101,2.612,2.6129,2.6129,2.6129,2.6129,2.6129,2.6129,2.6129,2.6129,2.6129,2.6129,2.6129,2.6129,2.6129,2.6129,2.6129,2.6129,2.6129,2.6129,2.6129,2.5882,2.5068,2.4278,2.371,2.2586,2.1774,2.1693,2.1579,2.1473,2.1425,2.1311,2.1246,2.1246,2.1246,2.127,2.1303,2.1335,2.1335,2.1368,2.1384,2.1384,2.1384,2.1384,2.1164,2.0945,2.0505,2.0521,2.0096,1.9419,1.8736,1.8074,1.7853,1.786,1.786,1.786,1.786,1.786,1.786,1.786,1.786,1.786,1.786,1.786,1.786,1.786,1.786,1.786,1.786,1.7639,1.6969,1.6526,1.6317,1.6102,1.5664,1.522,1.4547,1.432,1.432,1.4352,1.4363,1.4417,1.4236,1.4494,1.4521,1.4537,1.4521,1.4327,1.436,1.4354,3.9265,3.9132,3.8838,3.8718,3.8718,3.8718,3.8718,3.8718,3.8718,3.8718,3.8718,3.8718,3.8485,3.8253,3.824,3.8021,3.7516,3.691,3.6382,3.5855,3.4231,3.2206,3.0008,2.8086,2.7121,2.6092,2.612,2.6129,2.6129,2.6129,2.6129,2.6129,2.6129,2.6129,2.6129,2.6129,2.6129,2.6129,2.6129,2.6129,2.6129,2.6129,2.6129,2.6129,2.6129,2.6129,2.5882,2.4867,2.4094,2.3771,2.2712,2.1936,2.2161,2.1847,2.1774,2.1766,2.1668,2.162,2.1611,2.162,2.1611,2.139,2.1381,2.1381,2.139,2.1611,2.1603,2.1514,2.1285,2.1016,2.0521,2.0301,1.9647,1.8978,1.8309,1.7853,1.7853,1.786,1.786,1.786,1.786,1.786,1.786,1.786,1.786,1.786,1.786,1.786,1.786,1.786,1.786,1.786,1.786,1.786,1.7639,1.6748,1.6102,1.5892,1.5518,1.5066,1.4814,1.4358,1.4341,1.4352,1.4379,1.4647,1.4494,1.4553,1.4591,1.4851,1.4662,1.445,1.4461,1.4493,1.4493,3.9466,3.9172,3.8891,3.8758,3.8731,3.8718,3.8718,3.8718,3.8718,3.8718,3.8718,3.8718,3.8718,3.8718,3.8485,3.8718,3.8485,3.7762,3.7283,3.6275,3.4692,3.2492,3.0956,2.9198,2.7917,2.6625,2.6377,2.6406,2.6434,2.6205,2.6214,2.6491,2.6472,2.6415,2.6663,2.6406,2.6387,2.6358,2.6358,2.6358,2.6358,2.6129,2.6129,2.6129,2.6129,2.5901,2.5672,2.4958,2.4217,2.4295,2.2754,2.2268,2.2478,2.2227,2.1961,2.1944,2.1912,2.1888,2.1912,2.1879,2.1679,2.1655,2.143,2.147,2.1655,2.1871,2.1823,2.1239,2.1016,2.0716,2.0149,1.9685,1.9007,1.8323,1.786,1.786,1.786,1.786,1.786,1.786,1.786,1.786,1.786,1.786,1.786,1.786,1.786,1.786,1.786,1.786,1.786,1.786,1.786,1.7867,1.7418,1.6748,1.6114,1.57,1.5151,1.473,1.468,1.4434,1.4396,1.4401,1.4483,1.4542,1.4591,1.464,1.4917,1.4978,1.4809,1.4771,1.4738,1.4798,1.482,3.9773,3.9479,3.9185,3.8931,3.8744,3.8718,3.8731,3.8744,3.8731,3.8758,3.8731,3.8731,3.8731,3.8718,3.8718,3.8718,3.8718,3.8021,3.7309,3.5895,3.4687,3.4051,3.3002,3.1055,2.9166,2.7937,2.7278,2.7057,2.7086,2.6971,2.6844,2.73,2.7483,2.7463,2.7777,2.7748,2.7668,2.7529,2.7062,2.6854,2.6625,2.6396,2.6167,2.6148,2.6148,2.5901,2.5443,2.4746,2.4288,2.4032,2.3063,2.231,2.2522,2.2204,2.2139,2.2115,2.2017,2.1953,2.1944,2.1969,2.1944,2.1743,2.1751,2.1936,2.2178,2.2194,2.1711,2.1182,2.0732,2.0439,1.9403,1.8712,1.8225,1.7928,1.7894,1.788,1.7867,1.7867,1.786,1.786,1.786,1.786,1.786,1.786,1.786,1.786,1.786,1.786,1.786,1.786,1.786,1.786,1.7867,1.7652,1.676,1.6348,1.5759,1.537,1.4807,1.4662,1.4613,1.4586,1.4581,1.4591,1.4619,1.4668,1.47,1.4771,1.5061,1.489,1.4934,1.4912,1.489,1.4918,1.4918,3.9947,3.9773,3.9479,3.9279,3.9145,3.9132,3.9132,3.9145,3.9132,3.9052,3.8945,3.8918,3.8851,3.8731,3.8718,3.8718,3.8485,3.8021,3.7322,3.6375,3.5427,3.4933,3.4579,3.3013,3.1089,2.9354,2.8651,2.844,2.8016,2.7863,2.7902,2.8155,2.8399,2.8551,2.847,2.8671,2.8379,2.8058,2.7797,2.7577,2.7327,2.7106,2.6587,2.6299,2.6271,2.6013,2.5223,2.4517,2.4314,2.411,2.318,2.2472,2.2456,2.2375,2.2326,2.2302,2.2253,2.2188,2.2188,2.2188,2.2196,2.2172,2.218,2.2196,2.2204,2.1968,2.1449,2.0705,2.0441,1.9709,1.8888,1.8192,1.7914,1.788,1.7847,1.782,1.7975,1.7907,1.786,1.786,1.786,1.786,1.786,1.786,1.786,1.786,1.786,1.786,1.786,1.786,1.786,1.7867,1.7874,1.7438,1.6545,1.5952,1.5422,1.5061,1.4722,1.4809,1.4836,1.4814,1.4568,1.4771,1.4961,1.5,1.4809,1.5122,1.4939,1.4972,1.4999,1.5026,1.5026,1.4988,1.4983,4.0067,4.0014,3.976,3.964,3.9599,3.9586,3.9559,3.9573,3.9599,3.9412,3.9265,3.9225,3.9078,3.8851,3.8811,3.8784,3.8499,3.8021,3.7322,3.6609,3.5895,3.5439,3.4909,3.4016,3.2885,3.1309,3.0314,2.9827,2.9372,2.918,2.9272,2.9444,2.9668,2.9901,2.9626,2.9827,2.9764,2.8974,2.8985,2.8783,2.8308,2.7863,2.7096,2.6526,2.6422,2.5895,2.5084,2.4597,2.4358,2.3923,2.3008,2.2785,2.2537,2.248,2.2464,2.2464,2.2424,2.2407,2.2399,2.2424,2.2432,2.2464,2.2456,2.2472,2.2242,2.1256,2.049,2.0215,1.9698,1.9191,1.8375,1.8348,1.8101,1.8068,1.8068,1.8021,1.8138,1.7989,1.7921,1.786,1.786,1.786,1.786,1.786,1.786,1.786,1.786,1.786,1.786,1.7867,1.7867,1.7874,1.7887,1.7046,1.594,1.5588,1.5044,1.495,1.4611,1.4912,1.4983,1.4956,1.4907,1.4852,1.5061,1.5099,1.4907,1.4956,1.4999,1.5032,1.5037,1.5037,1.5037,1.5037,1.5037,4.0254,4.0027,3.9974,3.9827,3.9626,3.9613,3.964,3.9599,3.9653,3.9586,3.9533,3.9519,3.9359,3.9145,3.9078,3.8958,3.8539,3.8021,3.7542,3.6843,3.6129,3.5686,3.4957,3.4675,3.4381,3.39,3.2544,3.1463,3.105,3.0945,3.0966,3.1278,3.1503,3.1661,3.1752,3.2163,3.1597,3.0778,3.0303,3.0081,2.9615,2.8682,2.7494,2.6939,2.6592,2.5783,2.5024,2.4534,2.407,2.2924,2.283,2.2886,2.283,2.2635,2.2521,2.2513,2.2521,2.2537,2.2529,2.2489,2.2472,2.2472,2.2489,2.2497,2.1796,2.0594,1.9626,1.9164,1.915,1.8884,1.8511,1.8498,1.8437,1.8375,1.8348,1.8568,1.85,1.8165,1.8023,1.7948,1.7907,1.786,1.786,1.786,1.786,1.786,1.786,1.786,1.786,1.7867,1.7874,1.7887,1.7894,1.6627,1.5341,1.5011,1.4912,1.4809,1.4918,1.4967,1.5021,1.5026,1.4994,1.4934,1.4934,1.4972,1.5005,1.5026,1.5026,1.5037,1.5037,1.5037,1.5037,1.5037,1.5037,4.0388,4.0267,4.0267,4.0187,4.0067,4.0054,4.0054,4.0054,4.0054,3.9974,3.9867,3.9813,3.9653,3.9412,3.9199,3.8998,3.8552,3.8485,3.7775,3.6843,3.6375,3.5907,3.5192,3.497,3.4982,3.4723,3.39,3.3115,3.2433,3.2287,3.2366,3.2602,3.285,3.3017,3.2937,3.3126,3.3046,3.2453,3.1986,3.1529,3.0815,2.9181,2.8208,2.761,2.6819,2.6023,2.4987,2.4745,2.4034,2.3113,2.2943,2.2992,2.3195,2.2878,2.2748,2.274,2.2732,2.2732,2.2716,2.2667,2.261,2.261,2.2562,2.1803,2.0848,1.943,1.8721,1.8742,1.8749,1.8735,1.866,1.8647,1.862,1.8572,1.8774,1.8733,1.8671,1.8589,1.8233,1.8084,1.7975,1.7914,1.786,1.786,1.786,1.786,1.786,1.7867,1.7867,1.7874,1.7887,1.7223,1.702,1.6006,1.4966,1.4857,1.476,1.489,1.4967,1.5015,1.5037,1.5037,1.5037,1.501,1.5032,1.5037,1.5037,1.5032,1.5037,1.5037,1.5037,1.5037,1.5037,1.5037,1.5037,4.0481,4.0481,4.0481,4.0481,4.0481,4.0481,4.0468,4.0481,4.0454,4.0321,4.0147,4.0094,3.992,3.9573,3.9225,3.8931,3.8718,3.8718,3.8021,3.7076,3.6843,3.6141,3.5414,3.5192,3.5204,3.5673,3.5414,3.4735,3.3994,3.3782,3.3782,3.4017,3.4253,3.4253,3.4006,3.3982,3.3782,3.3546,3.331,3.2591,3.116,3.021,2.897,2.808,2.733,2.6271,2.5191,2.4702,2.3994,2.3294,2.3098,2.313,2.3359,2.3351,2.3106,2.3098,2.3041,2.3,2.2951,2.2878,2.2539,2.2491,2.241,2.1147,1.9676,1.8967,1.8742,1.8755,1.8762,1.8762,1.8742,1.8755,1.8755,1.8742,1.8728,1.8715,1.8843,1.8754,1.8671,1.8507,1.8084,1.7989,1.7968,1.786,1.786,1.7867,1.7874,1.7874,1.788,1.7894,1.7679,1.6558,1.5934,1.5151,1.4801,1.4912,1.482,1.4967,1.5005,1.5032,1.5037,1.5037,1.5037,1.5037,1.5037,1.5037,1.5037,1.5037,1.5037,1.5037,1.5037,1.5037,1.5037,1.5037,1.5037,4.0481,4.0481,4.0481,4.0481,4.0481,4.0481,4.0481,4.0481,4.0481,4.0468,4.0388,4.0388,4.0094,3.9586,3.9038,3.8798,3.8731,3.8718,3.8021,3.6843,3.6843,3.6116,3.5143,3.5649,3.6141,3.6388,3.6375,3.6141,3.5673,3.5439,3.5673,3.5895,3.5661,3.5661,3.5427,3.5192,3.497,3.4723,3.4253,3.3074,3.1419,3.0469,2.9497,2.8246,2.694,2.5897,2.514,2.4656,2.3942,2.3236,2.3374,2.3447,2.3471,2.3471,2.3463,2.3374,2.3211,2.3,2.3033,2.2772,2.27,2.2393,2.2555,2.1028,1.9514,1.8755,1.8755,1.8762,1.8762,1.8762,1.8762,1.8762,1.8762,1.8762,1.8755,1.8755,1.8708,1.8871,1.8795,1.8498,1.8081,1.8192,1.8124,1.7982,1.7867,1.7874,1.788,1.7887,1.7438,1.7223,1.7008,1.5886,1.5295,1.473,1.4619,1.4956,1.4858,1.5015,1.5032,1.5037,1.5037,1.5037,1.5037,1.5037,1.5037,1.5037,1.5037,1.5037,1.5037,1.5037,1.5037,1.5037,1.5037,1.5037,1.5037,4.0481,4.0481,4.0481,4.0481,4.0481,4.0481,4.0481,4.0481,4.0481,4.0481,4.0481,4.0481,4.0147,3.9586,3.9132,3.8878,3.8758,3.8718,3.8007,3.7076,3.6596,3.6104,3.5378,3.5649,3.6388,3.7373,3.7114,3.6843,3.6843,3.6609,3.6609,3.6843,3.6609,3.6375,3.6375,3.6141,3.5624,3.5143,3.4687,3.3782,3.2366,3.0944,2.9755,2.8812,2.7034,2.6051,2.5325,2.4615,2.4126,2.3422,2.3504,2.3528,2.3528,2.352,2.352,2.3512,2.2918,2.283,2.2822,2.2989,2.2655,2.2354,2.2047,2.1445,1.9386,1.881,1.8769,1.8762,1.8762,1.8762,1.8762,1.8762,1.8762,1.8762,1.8762,1.8762,1.8755,1.8728,1.866,1.8369,1.8079,1.796,1.7835,1.792,1.7806,1.778,1.751,1.7001,1.6317,1.5413,1.5197,1.4764,1.4641,1.4532,1.4651,1.4995,1.488,1.5005,1.5032,1.5037,1.5037,1.5037,1.5037,1.5037,1.5037,1.5037,1.5037,1.5037,1.5037,1.5037,1.5037,1.5037,1.5037,1.5037,1.5037,4.0414,4.0481,4.0481,4.0481,4.0481,4.0481,4.0481,4.0481,4.0481,4.0481,4.0428,4.0321,3.9987,3.9586,3.9199,3.8878,3.8731,3.8718,3.8007,3.7076,3.6596,3.6092,3.5599,3.587,3.7127,3.8645,3.7827,3.7555,3.7775,3.7542,3.7309,3.7309,3.7076,3.7076,3.7076,3.6843,3.6104,3.5341,3.5143,3.4241,3.2838,3.1419,3.0231,2.8802,2.7367,2.5937,2.5465,2.4734,2.4003,2.352,2.352,2.3528,2.3528,2.3528,2.3528,2.3278,2.2997,2.2515,2.2499,2.2452,2.239,2.2073,2.1481,2.0812,1.9235,1.8871,1.8782,1.8769,1.8762,1.8762,1.8762,1.8762,1.8762,1.8762,1.8762,1.8762,1.8755,1.8735,1.849,1.7749,1.7479,1.746,1.7333,1.7647,1.7768,1.7709,1.7386,1.6379,1.5448,1.4542,1.4347,1.4369,1.4258,1.4381,1.4722,1.5061,1.4934,1.4994,1.5026,1.5037,1.5037,1.5037,1.5037,1.5037,1.5037,1.5037,1.5037,1.5037,1.5037,1.5037,1.5037,1.5037,1.5037,1.5037,1.5037,4.0227,4.0481,4.0468,4.0481,4.0481,4.0481,4.0481,4.0481,4.0481,4.0468,4.0361,4.0213,3.9958,3.9466,3.9052,3.8771,3.8718,3.8718,3.7775,3.7076,3.6596,3.6079,3.5587,3.6079,3.7309,3.828,3.8021,3.8253,3.8485,3.8253,3.8253,3.8485,3.7788,3.7788,3.7555,3.7309,3.6596,3.5845,3.5378,3.4452,3.3063,3.1656,3.0469,2.904,2.7137,2.5465,2.5465,2.426,2.377,2.3528,2.3528,2.3528,2.3528,2.3528,2.3528,2.3287,2.2803,2.2319,2.2062,2.182,2.1775,2.1391,2.0765,1.9915,1.9081,1.8764,1.8905,1.8796,1.8782,1.8762,1.8762,1.8762,1.8762,1.8762,1.8762,1.8762,1.8762,1.8762,1.8284,1.7336,1.6853,1.6597,1.6585,1.6676,1.7257,1.742,1.6383,1.5594,1.5077,1.439,1.4423,1.4247,1.4349,1.4461,1.482,1.4918,1.4988,1.501,1.5032,1.5037,1.5037,1.5037,1.5037,1.5037,1.5037,1.5037,1.5037,1.5037,1.5037,1.5037,1.5037,1.5037,1.5037,1.5037,1.5037,4.0094,4.0214,4.0401,4.0481,4.0481,4.0481,4.0481,4.0481,4.0481,4.0361,4.0187,4.0052,3.9756,3.9265,3.8958,3.8718,3.8718,3.8253,3.7542,3.6843,3.635,3.5845,3.5599,3.5845,3.6609,3.7309,3.7542,3.7542,3.7555,3.8047,3.8021,3.8021,3.8293,3.8253,3.8253,3.8021,3.7309,3.6338,3.5353,3.4392,3.3063,3.1892,3.0707,2.9289,2.6897,2.5706,2.5224,2.426,2.377,2.3528,2.3528,2.3528,2.3528,2.3528,2.3528,2.3287,2.2561,2.2077,2.16,2.1615,2.135,2.0558,1.9928,1.9557,1.9217,1.9108,1.8993,1.8898,1.8823,1.8803,1.8769,1.8762,1.8762,1.8762,1.8762,1.8769,1.8762,1.853,1.7826,1.6878,1.6174,1.593,1.593,1.5913,1.6519,1.6893,1.584,1.4807,1.4515,1.4477,1.429,1.4338,1.4429,1.4515,1.4863,1.4956,1.5032,1.5037,1.5037,1.5037,1.5037,1.5037,1.5037,1.5037,1.5037,1.5037,1.5037,1.5037,1.5037,1.5037,1.5037,1.5037,1.5037,1.5037,1.5037,3.988,4.0054,4.0254,4.0401,4.0468,4.0481,4.0481,4.0481,4.0481,4.0308,4.0014,3.9733,3.9439,3.9145,3.8865,3.8718,3.8485,3.8021,3.7542,3.6843,3.6129,3.5636,3.5378,3.5624,3.6116,3.6338,3.683,3.6843,3.7076,3.7399,3.7698,3.8191,3.8464,3.8464,3.8718,3.8718,3.8021,3.6804,3.5562,3.4381,3.3063,3.1892,3.0696,2.904,2.6897,2.5706,2.5224,2.4252,2.3528,2.3528,2.3528,2.3528,2.3528,2.3528,2.3528,2.3045,2.2319,2.1593,2.16,2.1122,2.0651,1.9873,1.9818,1.9729,1.9633,1.9237,1.9156,1.9047,1.8952,1.8877,1.885,1.885,1.8803,1.8796,1.8776,1.8769,1.8298,1.8065,1.7123,1.6186,1.5714,1.5248,1.5254,1.5476,1.5646,1.6034,1.5722,1.4923,1.4845,1.4597,1.4392,1.4673,1.4738,1.482,1.5127,1.4972,1.5037,1.5037,1.5037,1.5037,1.5037,1.5037,1.5037,1.5037,1.5037,1.5037,1.5037,1.5037,1.5037,1.5037,1.5037,1.5037,1.5037,1.5037,1.5037,3.9506,4.0014,4.004,4.0214,4.0441,4.0481,4.0481,4.0481,4.0481,4.0294,3.9974,3.9164,3.8887,3.8871,3.8811,3.8731,3.8485,3.8021,3.7309,3.6609,3.5907,3.5402,3.539,3.539,3.5636,3.555,3.5833,3.6375,3.6609,3.7059,3.7409,3.7996,3.8545,3.8755,3.8771,3.8718,3.8021,3.683,3.555,3.4404,3.3052,3.1892,3.0696,2.904,2.6897,2.5465,2.5224,2.4252,2.3528,2.3528,2.3528,2.3528,2.3528,2.3528,2.3528,2.3287,2.2319,2.16,2.1358,2.0394,1.9908,1.9664,1.9617,1.9825,1.9722,1.964,1.9571,1.921,1.9149,1.9088,1.9033,1.8972,1.8905,1.8871,1.8857,1.8344,1.7645,1.7123,1.6186,1.5726,1.5487,1.5021,1.5026,1.5021,1.5199,1.5149,1.5105,1.5044,1.4972,1.4939,1.4727,1.4776,1.4831,1.4874,1.4945,1.4994,1.5037,1.5037,1.5037,1.5037,1.5037,1.5037,1.5037,1.5037,1.5037,1.5037,1.5037,1.5037,1.5037,1.5037,1.5037,1.5037,1.5037,1.5037,1.5037,3.9279,3.9479,3.9867,4.0094,4.0201,4.0401,4.0481,4.0481,4.0441,4.0201,3.9548,3.9072,3.8768,3.8711,3.8811,3.8485,3.8021,3.7309,3.6843,3.6141,3.5673,3.5192,3.518,3.518,3.518,3.5156,3.5427,3.5673,3.5661,3.6205,3.7013,3.7562,3.8768,3.9136,3.9052,3.8632,3.8021,3.6817,3.5562,3.4369,3.3074,3.1903,3.049,2.9309,2.6916,2.5474,2.5465,2.4252,2.3528,2.3528,2.3528,2.3528,2.3528,2.3528,2.3528,2.3287,2.2319,2.1115,2.063,1.9908,1.9664,1.9664,1.9657,1.9637,1.9832,1.9722,1.9653,1.9352,1.9284,1.921,1.9142,1.8885,1.8845,1.8838,1.8569,1.7537,1.6784,1.5988,1.5243,1.526,1.5032,1.5032,1.5037,1.5037,1.4994,1.4983,1.495,1.4956,1.4907,1.5077,1.4836,1.4885,1.4928,1.495,1.4988,1.5021,1.5037,1.5037,1.5037,1.5037,1.5037,1.5037,1.5037,1.5037,1.5037,1.5037,1.5037,1.5037,1.5037,1.5037,1.5037,1.5037,1.5037,1.5037,1.5037,3.9065,3.9212,3.968,3.9947,4.0067,4.0348,4.0481,4.0454,4.0374,4.0054,3.9653,3.8966,3.8662,3.8592,3.8485,3.8253,3.7788,3.6843,3.6375,3.5907,3.5204,3.5204,3.497,3.497,3.4957,3.497,3.497,3.497,3.5229,3.5806,3.6815,3.7985,3.8965,3.9428,3.9426,3.899,3.8335,3.7148,3.5919,3.4702,3.3349,3.2168,3.0929,2.9201,2.724,2.5544,2.5251,2.4502,2.3528,2.3536,2.3528,2.3528,2.3528,2.3528,2.3528,2.3045,2.2319,2.1115,2.0144,1.9664,1.9664,1.9664,1.9664,1.9664,1.9657,1.9818,1.9542,1.9481,1.9393,1.9339,1.9291,1.9046,1.9026,1.9012,1.7738,1.6704,1.5896,1.5102,1.5048,1.5059,1.5037,1.5037,1.5037,1.5037,1.5026,1.5026,1.5032,1.5037,1.5037,1.4977,1.4923,1.4956,1.4988,1.4999,1.501,1.5026,1.5037,1.5037,1.5037,1.5037,1.5037,1.5037,1.5037,1.5037,1.5037,1.5037,1.5037,1.5037,1.5037,1.5037,1.5037,1.5037,1.5037,1.5037,1.5037,3.8891,3.9172,3.9466,3.9746,4.004,4.0334,4.0481,4.0454,4.0455,4.0159,3.9586,3.903,3.8751,3.8539,3.8021,3.7788,3.7309,3.6375,3.5907,3.5673,3.5204,3.497,3.497,3.497,3.497,3.497,3.497,3.497,3.503,3.569,3.6899,3.8254,3.9372,3.9787,3.9641,3.9256,3.857,3.7504,3.6453,3.5024,3.3646,3.252,3.0953,2.9431,2.7446,2.5927,2.513,2.4327,2.3819,2.3561,2.3536,2.3528,2.3528,2.3528,2.3528,2.3045,2.2077,2.1115,1.9908,1.9664,1.9664,1.9664,1.9664,1.9664,1.9657,1.9637,1.9617,1.9617,1.9569,1.9515,1.9468,1.944,1.9413,1.8381,1.7103,1.6056,1.548,1.5173,1.5124,1.5092,1.5048,1.5037,1.5037,1.5037,1.5037,1.5037,1.5037,1.5037,1.5037,1.5037,1.4994,1.4999,1.5021,1.5032,1.5037,1.5037,1.5037,1.5037,1.5037,1.5037,1.5037,1.5037,1.5037,1.5037,1.5037,1.5037,1.5037,1.5037,1.5037,1.5037,1.5037,1.5037,1.5037,1.5037,1.5037,3.8771,3.8878,3.9159,3.9452,3.9786,4.0267,4.0481,4.0441,4.0442,4.0146,3.9586,3.9017,3.8478,3.8034,3.7788,3.7309,3.6609,3.6141,3.5673,3.5439,3.5204,3.497,3.497,3.497,3.497,3.497,3.497,3.4994,3.5338,3.5989,3.7023,3.8394,3.9366,3.9837,4.0039,3.9986,3.8974,3.7784,3.6701,3.5526,3.3863,3.2685,3.1142,2.9642,2.7417,2.614,2.559,2.4495,2.3731,2.3455,2.3593,2.3536,2.3528,2.3528,2.3287,2.2319,2.1593,2.1108,1.9908,1.9664,1.9664,1.9664,1.9664,1.9664,1.9664,1.9664,1.9664,1.9664,1.9664,1.9596,1.9569,1.9556,1.9052,1.8033,1.6748,1.5935,1.5363,1.5045,1.4991,1.514,1.5097,1.507,1.5064,1.5037,1.5037,1.5037,1.5037,1.5037,1.5037,1.5037,1.5037,1.5037,1.5037,1.5037,1.5037,1.5037,1.5037,1.5037,1.5037,1.5037,1.5037,1.5037,1.5037,1.5037,1.5037,1.5037,1.5037,1.5037,1.5037,1.5037,1.5037,1.5037,1.5037,1.5037,1.5037,3.8718,3.8758,3.9038,3.9332,3.9626,3.9987,4.0134,4.0361,4.0466,4.0025,3.9309,3.8401,3.7905,3.7801,3.7309,3.6609,3.5907,3.5673,3.5204,3.5204,3.497,3.497,3.497,3.497,3.497,3.497,3.4994,3.503,3.5472,3.6363,3.7389,3.847,3.9253,3.9739,4.0212,4.0401,3.9542,3.8356,3.6998,3.5766,3.4323,3.2873,3.1395,2.9843,2.7375,2.6371,2.5808,2.4687,2.3885,2.3568,2.3423,2.3593,2.3561,2.3528,2.2803,2.2077,2.1593,2.0872,1.9908,1.9664,1.9664,1.9664,1.9664,1.9664,1.9664,1.9664,1.9664,1.9664,1.9664,1.9657,1.9664,1.9421,1.8684,1.7697,1.6877,1.5828,1.5494,1.5168,1.5071,1.5211,1.5162,1.513,1.5102,1.5064,1.5037,1.5037,1.5037,1.5037,1.5037,1.5037,1.5037,1.5037,1.5037,1.5037,1.5037,1.5037,1.5037,1.5037,1.5037,1.5037,1.5037,1.5037,1.5037,1.5037,1.5037,1.5037,1.5037,1.5037,1.5037,1.5037,1.5037,1.5037,1.5037,1.5037,1.5037,3.8718,3.8744,3.9038,3.9306,3.9546,3.9613,3.9653,3.9864,4.0128,3.985,3.8926,3.7489,3.7283,3.7309,3.6609,3.6141,3.5661,3.5204,3.5204,3.497,3.497,3.497,3.497,3.497,3.497,3.497,3.5054,3.5235,3.5775,3.6369,3.7209,3.8509,3.9009,3.9739,4.0468,4.0481,3.9674,3.8381,3.7065,3.5821,3.4468,3.328,3.1763,3.0093,2.8055,2.6282,2.5903,2.506,2.3999,2.364,2.3528,2.3455,2.3585,2.3528,2.2803,2.2077,2.1593,2.0872,2.0151,1.9664,1.9664,1.9664,1.9664,1.9664,1.9664,1.9664,1.9664,1.9664,1.9664,1.9664,1.9664,1.9177,1.8447,1.7465,1.6686,1.6115,1.579,1.5461,1.538,1.5298,1.5266,1.5227,1.5168,1.513,1.5075,1.5059,1.5037,1.5037,1.5037,1.5037,1.5037,1.5037,1.5037,1.5037,1.5037,1.5037,1.5037,1.5037,1.5037,1.5037,1.5037,1.5037,1.5037,1.5037,1.5037,1.5037,1.5037,1.5037,1.5037,1.5037,1.5037,1.5037,1.5037,1.5037,1.5037,3.8718,3.8744,3.9038,3.9199,3.9292,3.9506,3.9586,3.9586,3.8887,3.8559,3.8231,3.7685,3.6817,3.6375,3.6141,3.5673,3.5192,3.5204,3.497,3.497,3.497,3.497,3.4982,3.4994,3.4994,3.5042,3.5199,3.5525,3.5863,3.6359,3.7028,3.8252,3.8791,3.9548,4.0521,4.0535,3.9831,3.8623,3.7506,3.6012,3.4605,3.3357,3.1805,3.0274,2.8511,2.7003,2.6397,2.5562,2.493,2.4286,2.3869,2.3471,2.3544,2.3536,2.2803,2.1835,2.1593,2.0872,2.0151,1.9664,1.9664,1.9664,1.9664,1.9664,1.9664,1.9664,1.9664,1.9664,1.9664,1.9664,1.9421,1.8934,1.8209,1.7471,1.6488,1.616,1.5839,1.5767,1.569,1.5657,1.538,1.5314,1.5249,1.5184,1.5124,1.5081,1.5048,1.5037,1.5037,1.5037,1.5037,1.5037,1.5037,1.5037,1.5037,1.5037,1.5037,1.5037,1.5037,1.5037,1.5037,1.5037,1.5037,1.5037,1.5037,1.5037,1.5037,1.5037,1.5037,1.5037,1.5037,1.5037,1.5037,1.5037,1.5037,3.8718,3.8744,3.8891,3.8958,3.8998,3.891,3.899,3.8977,3.8101,3.7281,3.6786,3.64,3.6104,3.5661,3.5673,3.5439,3.497,3.497,3.497,3.497,3.497,3.497,3.4994,3.5078,3.5163,3.5247,3.5585,3.5923,3.6165,3.6809,3.7444,3.8547,3.8855,3.9679,4.0682,4.0517,4.0094,3.8903,3.7938,3.6401,3.4955,3.3412,3.1868,3.0374,2.8865,2.7612,2.6581,2.5733,2.5123,2.4657,2.395,2.3479,2.3577,2.3528,2.2803,2.2077,2.135,2.1115,2.0151,1.9664,1.9664,1.9664,1.9664,1.9664,1.9664,1.9664,1.9664,1.9664,1.9664,1.9664,1.9421,1.869,1.8203,1.7465,1.6488,1.5961,1.5928,1.5652,1.5613,1.5603,1.5532,1.5423,1.5342,1.4996,1.4927,1.507,1.5037,1.5037,1.5037,1.5037,1.5037,1.5037,1.5037,1.5037,1.5037,1.5037,1.5037,1.5037,1.5048,1.5037,1.5037,1.5037,1.5037,1.5037,1.5037,1.5037,1.5037,1.5037,1.5037,1.5037,1.5037,1.5037,1.5037,1.5037,1.5037,3.8718,3.8718,3.8718,3.8731,3.8499,3.8034,3.8073,3.8099,3.7114,3.6116,3.5378,3.5131,3.539,3.5414,3.5204,3.5204,3.497,3.497,3.497,3.497,3.497,3.503,3.5139,3.4986,3.538,3.5848,3.6152,3.6092,3.6261,3.6907,3.7763,3.861,3.9499,4.0172,4.0783,4.0916,4.0513,3.9418,3.8275,3.7173,3.5342,3.3489,3.19,3.0364,2.8865,2.7612,2.6859,2.6087,2.5508,2.4541,2.4023,2.3812,2.3658,2.3601,2.2827,2.21,2.1593,2.0872,2.0144,1.9664,1.9664,1.9664,1.9664,1.9664,1.9664,1.9664,1.9664,1.9664,1.9664,1.9664,1.9171,1.8684,1.7953,1.7465,1.6488,1.5755,1.5749,1.5738,1.5738,1.5738,1.5652,1.5532,1.5429,1.5077,1.497,1.5102,1.5043,1.5037,1.5037,1.5037,1.5037,1.5037,1.5037,1.5037,1.5037,1.5048,1.5048,1.5075,1.5086,1.5059,1.5037,1.5037,1.5037,1.5037,1.5037,1.5037,1.5037,1.5037,1.5037,1.5037,1.5037,1.5037,1.5037,1.5037,1.5037,3.8718,3.8718,3.8718,3.8485,3.8021,3.7788,3.7555,3.7089,3.6375,3.5636,3.5143,3.4933,3.5192,3.5204,3.5204,3.497,3.497,3.4994,3.4982,3.497,3.5066,3.5163,3.5295,3.5214,3.567,3.5923,3.6407,3.6261,3.6626,3.7237,3.7913,3.8839,3.9603,4.0277,4.1009,4.1128,4.092,3.9833,3.8648,3.7469,3.5388,3.3522,3.19,3.0623,2.9115,2.8114,2.7361,2.6868,2.5733,2.4806,2.4129,2.3934,2.3804,2.3479,2.2929,2.2131,2.1615,2.0865,2.0144,1.9664,1.9664,1.9664,1.9664,1.9664,1.9664,1.9664,1.9664,1.9664,1.9664,1.9664,1.9421,1.844,1.7703,1.7221,1.6488,1.5999,1.5749,1.5749,1.5749,1.5749,1.5722,1.5624,1.5532,1.5418,1.5077,1.5211,1.5092,1.5086,1.507,1.5053,1.5043,1.5037,1.5037,1.5037,1.5037,1.5064,1.5075,1.5108,1.513,1.5113,1.5086,1.5043,1.5037,1.5037,1.5037,1.5037,1.5037,1.5037,1.5037,1.5037,1.5037,1.5037,1.5037,1.5037,1.5037]}]]